[[{"header":{"parameterUnit":"m.s-1","parameterCategory":1,"la1":30.6,"la2":29.2853,"lo1":-89.7004,"lo2":-87.6739,"dy":0.0162,"dx":0.0183,"nx":112,"ny":82,"refTime":"2024-03-06T06:00:00:Z","depth":0,"parameterNumber":2,"parameterNumberName":"U-component_of_WINDS"},"data":[0.0,0.0,0.0,0.0,0.0,0.0,0.0,0.0,0.0,0.0,0.0,0.0,0.0,0.0,0.0,0.0,0.0,0.0,0.0,0.0,0.0,0.0,0.0,0.0,0.0,0.0,0.0,0.0,0.0,0.0,0.0,0.0,0.0,0.0,0.0,0.0,0.0,0.0,0.0,0.0,0.0,0.0,0.0,0.0,0.0,0.0,0.0,0.0,0.0,0.0,0.0,0.0,0.0,0.0,0.0,0.0,0.0,0.0,0.0,0.0,0.0,0.0,0.0,0.0,0.0,0.0,0.0,0.0,0.0,0.0,0.0,0.0,0.0,0.0,0.0,0.0,0.0,0.0,0.0,0.0,0.0,0.0,0.0,0.0,0.0,0.0,0.0,0.0,0.0,0.0,0.0,0.5842,0.5236,0.4834,0.4834,0.4834,0.4332,0.3229,0.0,0.0,0.0,0.0,0.0,0.0,0.0,0.0,0.0,0.0,0.0,0.0,0.0,0.0,0.0,0.0,0.0,0.0,0.0,0.0,0.0,0.0,0.0,0.0,0.0,0.0,0.0,0.0,0.0,0.0,0.0,0.0,0.0,0.0,0.0,0.0,0.0,0.0,0.0,0.0,0.0,0.0,0.0,0.0,0.0,0.0,0.0,0.0,0.0,0.0,0.0,0.0,0.0,0.0,0.0,0.0,0.0,0.0,0.0,0.0,0.0,0.0,0.0,0.0,0.0,0.0,0.0,0.0,0.0,0.0,0.0,0.0,0.0,0.0,0.0,0.0,0.0,0.0,0.0,0.0,0.0,0.0,0.0,0.0,0.0,0.0,0.0,0.0,0.0,0.0,0.0,0.0,0.0,0.0,0.0,0.0,0.0,0.0,0.0,0.0,0.0,0.0,0.0,0.0,0.6537,0.5135,0.4834,0.4834,0.4834,0.4834,0.4332,0.3229,0.0,0.0,0.0,0.0,0.0,0.0,0.0,0.0,0.0,0.0,0.0,0.0,0.0,0.0,0.0,0.0,0.0,0.0,0.0,0.0,0.0,0.0,0.0,0.0,0.0,0.0,0.0,0.0,0.0,0.0,0.0,0.0,0.0,0.0,0.0,0.0,0.0,0.0,0.0,0.0,0.0,0.0,0.0,0.0,0.0,0.0,0.0,0.0,0.0,0.0,0.0,0.0,0.0,0.0,0.0,0.0,0.0,0.0,0.0,0.0,0.0,0.0,0.0,0.0,0.0,0.0,0.0,0.0,0.0,0.0,0.0,0.0,0.0,0.0,0.0,0.0,0.0,0.0,0.0,0.0,0.0,0.0,0.0,0.0,0.0,0.0,0.0,0.0,0.0,0.0,0.0,0.0,0.0,0.0,0.0,0.0,0.0,0.0,0.0,0.0,0.0,0.0,0.0,0.6137,0.5636,0.4834,0.4834,0.4834,0.4834,0.4834,0.4332,0.3229,0.3232,0.0,0.0,0.0,0.0,0.0,0.0,0.0,0.0,0.0,0.0,0.0,0.0,0.0,0.0,0.0,0.0,0.0,0.0,0.0,0.0,0.0,0.0,0.0,0.0,0.0,0.0,0.0,0.0,0.0,0.0,0.0,0.0,0.0,0.0,0.0,0.0,0.0,0.0,0.0,0.0,0.0,0.0,0.0,0.0,0.0,0.0,0.0,0.0,0.0,0.0,0.0,0.0,0.0,0.0,0.0,0.0,0.0,0.0,0.0,0.0,0.0,0.0,0.0,0.0,0.0,0.0,0.0,0.0,0.0,0.0,0.0,0.0,0.0,0.0,0.0,0.0,0.0,0.0,0.0,0.0,0.0,0.0,0.0,0.0,0.0,0.0,0.0,0.0,0.0,0.0,0.0,0.0,0.0,0.0,0.0,0.0,0.0,0.0,0.0,0.0,0.0,0.0,0.5336,0.4834,0.4834,0.4834,0.4834,0.4834,0.4734,0.4232,0.3229,0.3141,0.0,0.0,0.0,0.0,0.0,0.0,0.0,0.0,0.0,0.0,0.0,0.0,0.0,0.0,0.0,0.0,0.0,0.0,0.0,0.0,0.0,0.0,0.0,0.0,0.0,0.0,0.0,0.0,0.0,0.0,0.0,0.0,0.0,0.0,0.0,0.0,0.0,0.0,0.0,0.0,0.0,0.0,0.0,0.0,0.0,0.0,0.0,0.0,0.0,0.0,0.0,0.0,0.0,0.0,0.0,0.0,0.0,0.0,0.0,0.0,0.0,0.0,0.0,0.0,0.0,0.0,0.0,0.0,0.0,0.0,0.0,0.0,0.0,0.0,0.0,0.0,0.0,0.0,0.0,0.0,0.0,0.0,0.0,0.0,0.0,0.0,0.0,0.0,0.0,0.0,0.0,0.0,0.0,0.0,0.0,0.0,0.0,0.0,0.0,0.0,0.0,0.0,0.5336,0.4834,0.4834,0.4834,0.4834,0.4834,0.4332,0.3833,0.3232,0.2769,0.0,0.0,0.0,0.0,0.0,0.0,0.0,0.0,0.0,0.0,0.0,0.0,0.0,0.0,0.0,0.0,0.0,0.0,0.0,0.0,0.0,0.0,0.0,0.0,0.0,0.0,0.0,0.0,0.0,0.0,0.0,0.0,0.0,0.0,0.0,0.0,0.0,0.0,0.0,0.0,0.0,0.0,0.0,0.0,0.0,0.0,0.0,0.0,0.0,0.0,0.0,0.0,0.0,0.0,0.0,0.0,0.0,0.0,0.0,0.0,0.0,0.0,0.0,0.0,0.0,0.0,0.0,0.0,0.0,0.0,0.0,0.0,0.0,0.0,0.0,0.0,0.0,0.0,0.0,0.0,0.0,0.0,0.0,0.0,0.0,0.0,0.0,0.0,0.0,0.0,0.0,0.0,0.0,0.0,0.0,0.0,0.0,0.0,0.0,0.0,0.0,0.0,0.5336,0.4834,0.0,0.4834,0.4859,0.4916,0.4716,0.4226,0.3338,0.0,0.0,0.0,0.0,0.0,0.0,0.0,0.0,0.0,0.0,0.0,0.0,0.0,0.0,0.0,0.0,0.0,0.0,0.0,0.0,0.0,0.0,0.0,0.0,0.0,0.0,0.0,0.0,0.0,0.0,0.0,0.0,0.0,0.0,0.0,0.0,0.0,0.0,0.0,0.0,0.0,0.0,0.0,0.0,0.0,0.0,0.0,0.0,0.0,0.0,0.0,0.0,0.0,0.0,0.0,0.0,0.0,0.0,0.0,0.0,0.0,0.0,0.0,0.0,0.0,0.0,0.0,0.0,0.0,0.0,0.0,0.0,0.0,0.0,0.0,0.0,0.0,0.0,0.0,0.0,0.0,0.0,0.0,0.0,0.0,0.0,0.0,0.0,0.0,0.0,0.0,0.0,0.0,0.0,0.0,0.0,0.0,0.0,0.0,0.0,0.0,0.0,0.5641,0.5135,0.4847,0.0,0.4879,0.4814,0.4798,0.4598,0.4096,0.3191,0.0,0.0,0.0,0.0,0.0,0.0,0.0,0.0,0.0,0.0,0.0,0.0,0.0,0.0,0.0,0.0,0.0,0.0,0.0,0.0,0.0,0.0,0.0,0.0,0.0,0.0,0.0,0.0,0.0,0.0,0.0,0.0,0.0,0.0,0.0,0.0,0.0,0.0,0.0,0.0,0.0,0.0,0.0,0.0,0.0,0.0,0.0,0.0,0.0,0.0,0.0,0.0,0.0,0.0,0.0,0.0,0.0,0.0,0.0,0.0,0.0,0.0,0.0,0.0,0.0,0.0,0.0,0.0,0.0,0.0,0.0,0.0,0.0,0.0,0.0,0.0,0.0,0.0,0.0,0.0,0.0,0.0,0.0,0.0,0.0,0.0,0.0,0.0,0.0,0.0,0.0,0.0,0.0,0.0,0.0,0.0,0.0,0.0,0.0,0.0,0.0,0.0,0.4834,0.4834,0.4871,0.4965,0.4973,0.4802,0.4256,0.3728,0.3196,0.0,0.0,0.0,0.0,0.0,0.0,0.0,0.0,0.0,0.0,0.0,0.0,0.0,0.0,0.0,0.0,0.0,0.0,0.0,0.0,0.0,0.0,0.0,0.0,0.0,0.0,0.0,0.0,0.0,0.0,0.0,0.0,0.0,0.0,0.0,0.0,0.0,0.0,0.0,0.0,0.0,0.0,0.0,0.0,0.0,0.0,0.0,0.0,0.0,0.0,0.0,0.0,0.0,0.0,0.0,0.0,0.0,0.0,0.0,0.0,0.0,0.0,0.0,0.0,0.0,0.0,0.0,0.0,0.0,0.0,0.0,0.0,0.0,0.0,0.0,0.0,0.0,0.0,0.0,0.0,0.0,0.0,0.0,0.0,0.0,0.0,0.0,0.0,0.0,0.0,0.0,0.0,0.0,0.0,0.0,0.0,0.0,0.0,0.0,0.0,0.0,0.0,0.0,0.4924,0.4932,0.4965,0.5059,0.4646,0.4362,0.4327,0.3793,0.327,0.2652,0.0,0.0,0.0,0.0,0.0,0.0,0.0,0.0,0.0,0.0,0.0,0.0,0.0,0.0,0.0,0.0,0.0,0.0,0.0,0.0,0.0,0.0,0.0,0.0,0.0,0.0,0.0,0.0,0.0,0.0,0.0,0.0,0.0,0.0,0.0,0.0,0.0,0.0,0.0,0.0,0.0,0.0,0.0,0.0,0.0,0.0,0.0,0.0,0.0,0.0,0.0,0.0,0.0,0.0,0.0,0.0,0.0,0.0,0.0,0.0,0.0,0.0,0.0,0.0,0.0,0.0,0.0,0.0,0.0,0.0,0.0,0.0,0.0,0.0,0.0,0.0,0.0,0.0,0.0,0.0,0.0,0.0,0.0,0.0,0.0,0.0,0.0,0.0,0.0,0.0,0.0,0.0,0.0,0.0,0.0,0.0,0.0,0.0,0.0,0.0,0.0,0.0,0.4965,0.5002,0.4849,0.4504,0.4085,0.3571,0.2861,0.2425,0.1995,0.1345,0.0,0.0,0.0,0.0,0.0,0.0,0.0,0.0,0.0,0.0,0.0,0.0,0.0,0.0,0.0,0.0,0.0,0.0,0.0,0.0,0.0,0.0,0.0,0.0,0.0,0.0,0.0,0.0,0.0,0.0,0.0,0.0,0.0,0.0,0.0,0.0,0.0,0.0,0.0,0.0,0.0,0.0,0.0,0.0,0.0,0.0,0.0,0.0,0.0,0.0,0.0,0.0,0.0,0.0,0.0,0.0,0.0,0.0,0.0,0.0,0.0,0.0,0.0,0.0,0.0,0.0,0.0,0.0,0.0,0.0,0.0,0.0,0.0,0.0,0.0,0.0,0.0,0.0,0.0,0.0,0.0,0.0,0.0,0.0,0.0,0.0,0.0,0.0,0.0,0.0,0.0,0.0,0.0,0.0,0.0,0.0,0.0,0.0,0.0,0.0,0.0,0.0,0.489,0.4857,0.4507,0.3382,0.3169,0.242,0.0559,0.0336,-0.0112,-0.0897,0.0,0.0,0.0,0.0,0.0,0.0,0.0,0.0,0.0,0.0,0.0,0.0,0.0,0.0,0.0,0.0,0.0,0.0,0.0,0.0,0.0,0.0,0.0,0.0,0.0,0.0,0.0,0.0,0.0,0.0,0.0,0.0,0.0,0.0,0.0,0.0,0.0,0.0,0.0,0.0,0.0,0.0,0.0,0.0,0.0,0.0,0.0,0.0,0.0,0.0,0.0,0.0,0.0,0.0,0.0,0.0,0.0,0.0,0.0,0.0,1.8319,0.0,0.0,0.0,0.0,0.0,0.0,0.0,0.0,0.0,0.0,0.0,0.0,0.0,0.0,0.0,0.0,0.0,0.0,0.0,0.0,0.0,0.0,0.0,0.0,0.0,0.0,0.0,0.0,0.0,0.0,0.0,0.0,0.0,0.0,0.0,0.0,0.0,0.0,0.0,0.0,0.0,0.3877,0.3787,0.3275,0.1889,0.1335,0.078,0.0112,-0.0336,-0.0672,-0.0897,-0.0897,0.0,0.0,0.0,0.0,0.0,0.0,0.0,0.0,0.0,0.0,0.0,0.0,0.0,0.0,0.0,0.0,0.0,0.0,0.0,0.0,0.0,0.0,0.0,0.0,0.0,0.0,0.0,0.0,0.0,0.0,0.0,0.0,0.0,0.0,0.0,0.0,0.0,0.0,0.0,0.0,0.0,0.0,0.0,0.0,0.0,0.0,0.0,0.0,0.0,0.0,0.0,0.0,0.0,0.0,0.0,0.0,0.0,0.0,0.0,0.0,1.7483,0.0,0.0,0.0,0.0,0.0,0.0,0.0,0.0,0.0,0.0,0.0,0.0,0.0,0.0,0.0,0.0,0.0,0.0,0.0,0.0,0.0,0.0,0.0,0.0,0.0,0.0,0.0,0.0,0.0,0.0,0.0,0.0,0.0,0.0,0.0,0.0,0.0,0.0,0.0,0.0,0.3594,0.2855,0.1883,0.0671,0.0112,-0.0559,-0.1456,-0.1793,-0.2018,-0.2242,-0.2242,0.0,0.0,0.0,0.0,0.0,0.0,0.0,0.0,0.0,0.0,0.0,0.0,0.0,0.0,0.0,0.0,0.0,0.0,0.0,0.0,0.0,0.0,0.0,0.0,0.0,0.0,0.0,0.0,0.0,0.0,0.0,0.0,0.0,0.0,0.0,0.0,0.0,0.0,0.0,0.0,0.0,0.0,0.0,0.0,0.0,0.0,0.0,0.0,0.0,0.0,0.0,0.0,0.0,1.7109,1.7016,1.7016,1.6828,1.6264,1.552,1.6264,1.617,1.552,1.6358,0.0,0.0,0.0,0.0,0.0,0.0,0.0,0.0,0.0,0.0,0.0,0.0,0.0,0.0,0.0,0.0,0.0,0.0,0.0,0.0,0.0,0.0,0.0,0.0,0.6736,0.6736,0.0,0.0,0.0,0.0,0.0,0.0,0.0,0.0,0.0,0.0,0.0,0.0,0.2957,0.1775,0.056,-0.0672,-0.1008,-0.1791,-0.3026,-0.3138,-0.325,-0.3586,-0.3589,-0.325,0.0,0.0,0.0,0.0,0.0,0.0,0.0,0.0,0.0,0.0,0.0,0.0,0.0,0.0,0.0,0.0,0.0,0.0,0.0,0.0,0.0,0.0,0.0,0.0,0.0,0.0,0.0,0.0,0.0,0.0,0.0,0.0,2.4211,2.3932,0.0,0.0,0.0,0.0,0.0,0.0,0.0,0.0,0.0,0.0,0.0,0.0,0.0,1.8796,1.8796,1.7762,1.7296,1.7296,1.6452,1.5981,1.5981,1.4867,1.4304,1.4112,1.4016,0.0,1.4112,1.4016,0.0,0.0,0.0,0.0,0.0,0.0,0.0,0.0,0.0,0.0,0.0,0.0,0.0,0.0,0.0,0.0,0.0,0.0,0.0,0.0,0.0,0.0,0.6731,0.5432,0.5135,0.5135,0.0,0.5636,0.6168,0.6159,0.5578,0.0,0.0,0.0,0.0,0.0,0.0,0.0,0.0782,0.0336,-0.0449,-0.2244,-0.2468,-0.2805,-0.3474,-0.3586,-0.3586,-0.3589,-0.3589,-0.3586,-0.3474,-0.3586,0.0,0.0,0.0,0.0,0.0,0.0,0.0,0.0,0.0,0.0,0.0,0.0,0.0,0.0,0.0,0.0,0.0,0.0,0.0,0.0,0.0,0.0,0.0,0.0,0.0,0.0,0.0,0.0,0.0,2.4467,2.3694,2.258,2.2227,2.1961,0.0,0.0,0.0,0.0,0.0,0.0,0.0,0.0,0.0,1.9438,1.8503,1.7669,1.7109,1.6075,1.552,1.533,1.4962,1.4675,1.4484,1.3919,1.3642,1.3642,1.334,1.334,1.3437,1.3437,1.3545,1.3545,0.0,0.0,0.0,0.0,1.305,1.2953,1.2856,1.2759,0.0,1.2068,0.0,0.0,0.0,0.0,0.0,0.0,0.0,0.0,0.0,0.0,0.5737,0.4935,0.4834,0.4847,0.49,0.5218,0.5435,0.0,0.5265,0.5137,0.5177,0.0,0.0,0.0,0.0,0.1232,0.0112,-0.0897,-0.1795,-0.2582,-0.3029,-0.3365,-0.3586,-0.3589,-0.3589,-0.3589,-0.3589,-0.3589,-0.3589,-0.3589,-0.3589,0.0,0.0,0.0,0.0,0.0,0.0,0.0,0.0,0.0,0.0,0.0,0.0,0.0,0.0,0.0,0.0,0.0,0.0,0.0,0.0,0.0,0.0,0.0,0.0,0.0,0.0,0.0,0.0,2.378,2.2755,2.1374,2.0835,2.0564,0.0,0.0,0.0,0.0,0.0,0.0,2.0292,2.011,1.9546,1.8796,1.7483,1.6438,1.5697,1.4675,1.4016,1.3835,1.3835,1.3738,1.3545,1.3448,1.3448,1.334,1.3147,1.305,1.305,1.3244,1.334,1.334,1.334,1.3244,1.305,1.305,1.2759,1.237,1.237,1.2165,1.1873,1.1072,0.0,1.0681,0.9805,0.0,0.0,0.0,0.0,0.693,0.6531,0.5737,0.5039,0.4834,0.4851,0.4888,0.4957,0.501,0.5043,0.0,0.4935,0.4811,0.4833,0.0,0.0,0.0,0.0,-0.0224,-0.0561,-0.1795,-0.2692,-0.2805,-0.3253,-0.3474,-0.3586,-0.3589,-0.3589,-0.3589,-0.3589,-0.3589,-0.3589,-0.3589,-0.3589,-0.3589,0.0,0.0,0.0,0.0,0.0,0.0,0.0,0.0,0.0,0.0,0.0,0.0,0.0,0.0,0.0,0.0,0.0,0.0,0.0,0.0,0.0,0.0,0.0,0.0,0.0,0.0,0.0,0.0,0.0,2.0744,2.0473,0.0,0.0,0.0,0.0,2.0292,2.0292,2.0292,2.0292,1.9347,1.8888,1.8796,1.6626,1.5494,1.5399,1.4196,1.3545,1.3534,1.3534,1.3545,1.3437,1.3244,1.3147,1.3147,1.2856,1.2856,1.2856,1.2856,1.2856,1.2856,1.2856,1.2856,1.2856,1.2856,1.2165,1.1268,1.1268,1.0583,0.9706,0.9706,0.9706,0.9706,0.9608,0.8916,0.0,0.0,0.6731,0.5636,0.534,0.5035,0.4834,0.4834,0.49,0.4965,0.4969,0.5108,0.523,0.0,0.4361,0.3616,0.3678,0.0,0.1456,0.0336,-0.0224,-0.0896,-0.1908,-0.2468,-0.2805,-0.3026,-0.3138,-0.325,-0.3586,-0.3589,-0.3589,-0.3589,-0.3589,-0.3589,-0.3589,-0.3589,-0.3589,-0.3589,-0.3589,0.0,0.0,0.0,0.0,0.0,0.0,0.0,0.0,0.0,0.0,0.0,0.0,0.0,0.0,0.0,0.0,0.0,0.0,0.0,0.0,0.0,0.0,0.0,0.0,0.0,0.0,0.0,0.0,2.0744,2.0473,0.0,2.0292,2.0292,2.0292,2.0292,2.0292,1.9911,1.9147,1.878,1.784,1.6358,1.5602,1.4854,1.4196,1.3727,1.3437,1.3244,1.3244,1.3147,1.305,1.2953,1.2953,1.2856,1.2856,1.2759,1.2759,1.2759,1.2759,1.2759,1.2759,1.2759,1.2759,1.2068,1.157,1.1072,1.0386,0.9903,0.9509,0.8817,0.8124,0.7528,0.7528,0.7129,0.6637,0.6437,0.5837,0.524,0.5035,0.4834,0.4851,0.4908,0.4949,0.5006,0.512,0.4546,0.4051,0.4205,0.3883,0.3334,0.2571,0.1456,0.0448,0.0112,-0.0897,-0.1682,-0.1908,-0.2578,-0.2914,-0.2805,-0.3141,-0.3474,-0.3586,-0.3589,-0.3589,-0.3589,-0.3589,-0.3589,-0.3589,-0.3589,-0.3605,-0.3646,-0.3646,-0.3676,0.0,0.0,0.0,0.0,0.0,0.0,0.0,0.0,0.0,0.0,0.0,0.0,0.0,0.0,0.0,0.0,0.0,0.0,0.0,0.0,0.0,0.0,0.0,0.0,0.0,0.0,2.1338,2.0744,2.0473,2.0292,2.0292,2.0292,2.0292,2.0292,2.0019,1.9347,1.8488,1.7747,1.6626,1.5045,1.4567,1.4004,1.334,1.3352,1.3147,1.2953,1.2953,1.2953,1.2759,1.2759,1.2759,1.2759,1.2759,1.2759,1.2759,1.2759,1.2759,1.2759,1.2759,1.2565,1.2165,1.1473,1.0779,0.9993,0.8909,0.852,0.8414,0.7726,0.693,0.6337,0.6337,0.6137,0.5942,0.5536,0.534,0.514,0.4834,0.4859,0.4896,0.4957,0.4702,0.4457,0.4561,0.3726,0.276,0.2457,0.2351,0.2127,0.1344,0.0224,-0.0561,-0.0561,-0.157,-0.2356,-0.2132,-0.2802,-0.325,-0.3029,-0.3365,-0.3589,-0.3589,-0.3589,-0.3589,-0.3589,-0.3589,-0.3589,-0.3589,-0.3589,-0.3605,-0.3646,-0.3687,-0.3739,-0.3801,0.0,0.0,0.0,0.0,0.0,0.0,0.0,0.0,0.0,0.0,0.0,0.0,0.0,0.0,0.0,0.0,0.0,0.0,0.0,0.0,0.0,0.0,0.0,2.2227,2.1356,2.0654,2.0654,2.0473,2.0292,2.0292,2.0292,2.0292,2.0292,1.9347,1.8688,1.8395,1.6438,1.5222,1.4949,1.3715,1.305,1.305,1.2856,1.2759,1.2759,1.2759,1.2759,1.2759,1.2759,1.2759,1.2759,1.2759,1.2759,1.2759,1.2759,1.2759,1.2759,1.2759,1.2068,1.117,1.1072,0.9797,0.7826,0.6731,0.6437,0.6437,0.6437,0.6437,0.6337,0.6042,0.5942,0.5842,0.534,0.524,0.514,0.4839,0.4904,0.4973,0.4977,0.4153,0.3382,0.3491,0.2545,0.1344,0.0224,-0.0,-0.0112,-0.0112,-0.1009,-0.1795,-0.1795,-0.2356,0.0,-0.2694,-0.3253,-0.3589,-0.3586,-0.3586,-0.3589,-0.3589,-0.3589,-0.3589,-0.3589,-0.3589,-0.3591,-0.3591,-0.3591,-0.3594,-0.3597,-0.3714,-0.3804,-0.3864,0.0,0.0,0.0,0.0,0.0,0.0,0.0,0.0,0.0,0.0,0.0,0.0,0.0,0.0,0.0,0.0,0.0,0.0,0.0,0.0,0.0,0.0,2.0835,2.1087,2.0744,2.0382,2.0382,2.0382,2.0292,2.0292,2.0292,2.0292,2.0292,1.9347,1.8319,1.7095,1.5792,1.4567,1.3426,1.305,1.2856,1.2856,1.2856,1.2759,1.2759,1.2759,1.2759,1.2759,1.2759,1.2759,1.2759,1.2759,1.2759,1.2759,1.2759,1.236,1.1668,1.1668,1.1473,1.0974,0.9501,0.8018,0.6836,0.6537,0.6437,0.6437,0.6437,0.6237,0.6142,0.6042,0.5741,0.534,0.524,0.5039,0.4951,0.4916,0.4953,0.5006,0.5137,0.4226,0.3392,0.3545,0.1897,0.0448,0.0112,-0.0673,-0.1346,-0.1346,-0.157,-0.1908,-0.202,-0.2468,0.0,-0.2694,-0.3253,-0.3474,-0.325,-0.3474,-0.3589,-0.3589,-0.3589,-0.3589,-0.3589,-0.363,-0.3654,-0.3654,-0.3695,-0.3739,-0.3785,-0.3861,-0.3907,0.0,0.0,0.0,0.0,0.0,0.0,0.0,0.0,0.0,0.0,0.0,0.0,0.0,0.0,0.0,0.0,0.0,0.0,0.0,0.0,0.0,0.0,2.1087,2.0564,2.0564,2.0382,2.0292,2.0292,2.0292,2.0292,2.0292,2.0292,2.011,1.9729,1.8703,1.7483,1.5981,1.4949,1.3908,1.2856,1.2759,1.2759,1.2759,1.2759,1.2759,1.2759,1.2759,1.2759,1.2759,1.2759,1.2759,0.0,1.236,1.2165,1.2068,1.1678,1.1082,0.0,0.0,0.0,0.0,0.0,0.693,0.6437,0.6437,0.6437,0.6337,0.6237,0.6142,0.5942,0.5741,0.5441,0.514,0.5039,0.4935,0.4855,0.4949,0.5002,0.5063,0.521,0.3951,0.2764,0.2792,0.0896,-0.0785,-0.0785,-0.1346,0.0,-0.1795,-0.1795,-0.1908,-0.2132,-0.2468,-0.2692,-0.2805,-0.325,-0.3474,-0.3362,-0.3474,-0.3589,-0.3589,-0.361,0.0,0.0,0.0,-0.3717,-0.3717,-0.3749,0.0,0.0,0.0,-0.3927,-0.3951,0.0,0.0,0.0,-0.6124,-0.685,0.0,0.0,0.0,0.0,0.0,0.0,0.0,0.0,0.0,0.0,0.0,0.0,0.0,0.0,0.0,0.0,2.0654,2.0292,2.0292,2.0292,2.0292,2.0292,2.0292,2.0292,2.0292,2.0292,1.9911,1.8888,1.7855,1.664,1.5045,0.0,0.0,0.0,0.0,1.2759,1.2759,1.2759,1.2759,1.2759,1.2759,1.2759,1.2759,1.2759,1.2759,1.2759,1.1765,1.1268,1.117,1.0199,0.9608,0.9509,1.0485,0.96,0.7726,0.6731,0.6437,0.6437,0.6437,0.0,0.0,0.6042,0.5942,0.5842,0.534,0.514,0.514,0.4834,0.4843,0.4871,0.4965,0.5055,0.5145,0.5239,0.3545,0.2015,0.1791,-0.0,-0.1683,-0.1795,-0.1795,-0.1795,-0.1795,-0.1795,-0.1908,-0.2244,-0.258,-0.2805,-0.3138,-0.3362,-0.3589,-0.3589,0.0,0.0,-0.3597,-0.3654,-0.3689,-0.3689,-0.3747,-0.3782,-0.379,-0.379,-0.3815,-0.3869,-0.3869,-0.3897,-0.3951,-0.5298,-0.6639,-0.7856,-0.6884,-0.7612,0.0,0.0,0.0,0.0,0.0,0.0,0.0,0.0,0.0,0.0,0.0,0.0,0.0,0.0,0.0,2.0997,2.0654,2.0292,2.0292,2.0292,2.0292,2.0292,2.0292,2.0292,2.0292,2.0292,1.9911,1.8888,1.7855,1.664,1.5045,1.4004,1.3244,1.2759,1.2759,1.2759,1.2759,1.2759,1.2759,1.2759,0.0,0.0,1.2759,1.2759,1.2759,1.2759,1.2565,1.197,1.117,1.0974,0.9895,0.8322,0.8513,0.7819,0.6637,0.6437,0.6437,0.6437,0.6437,0.6437,0.6337,0.6042,0.5842,0.5636,0.534,0.5039,0.0,0.4834,0.4888,0.4965,0.5059,0.5149,0.5243,0.5333,0.4244,0.3022,0.2015,0.0672,-0.0673,-0.157,-0.1795,-0.1795,-0.1795,-0.202,-0.2244,-0.258,-0.2805,-0.3138,-0.3474,-0.3586,-0.3589,-0.3589,-0.3632,-0.3659,-0.3659,-0.3717,-0.3752,-0.3752,-0.3809,-0.3864,-0.3913,-0.3916,-0.3921,-0.3932,-0.3932,-0.394,-0.3951,-0.5298,-0.6639,-0.7856,-0.8708,-0.993,0.0,0.0,0.0,0.0,0.0,0.0,0.0,0.0,0.0,0.0,0.0,2.2069,2.1642,0.0,2.0817,2.0817,2.0564,2.0292,2.0292,2.0292,2.0292,2.0292,2.0292,2.0292,2.0292,2.0292,1.9637,1.8133,1.7576,1.6452,1.4388,1.3727,1.3244,1.2759,1.2759,1.2759,1.2759,1.2759,1.2759,1.2759,1.2759,1.2759,1.2759,1.2759,1.2759,1.2759,1.1678,1.0886,1.0288,0.9205,0.8216,0.7229,0.7229,0.683,0.6437,0.6437,0.6437,0.6437,0.6437,0.6437,0.6337,0.5937,0.5737,0.5536,0.5135,0.4935,0.4843,0.4892,0.4937,0.5002,0.5141,0.521,0.5267,0.5361,0.448,0.3245,0.2015,0.0896,-0.0336,-0.157,-0.1808,-0.1817,-0.1817,-0.2172,-0.2515,-0.2701,-0.2914,-0.326,-0.363,-0.3632,-0.3646,-0.3676,-0.3706,-0.3725,-0.3725,-0.3779,-0.3828,-0.3858,-0.3888,-0.3918,-0.3948,-0.3951,-0.3951,-0.3951,-0.3951,-0.3951,-0.3951,-0.5908,-0.725,-0.7978,-0.993,-1.1156,0.0,0.0,0.0,0.0,0.0,0.0,0.0,0.0,2.258,2.182,2.1571,2.1392,2.1392,2.1015,2.0744,2.0744,2.0473,2.0292,2.0292,2.0292,2.0292,2.0292,2.0292,2.0201,2.0019,2.0019,1.9163,1.7203,1.7016,1.5981,1.363,1.3545,1.3244,1.2759,1.2759,1.2759,1.2759,1.2759,1.2759,1.2759,1.2759,1.2759,1.2759,1.2759,1.2759,1.2662,1.0493,0.9509,0.9114,0.7229,0.6437,0.6437,0.6437,0.6437,0.6437,0.6437,0.6337,0.6337,0.6337,0.6337,0.6137,0.5636,0.555,0.5464,0.4964,0.4875,0.4904,0.4977,0.501,0.5059,0.5206,0.5259,0.5288,0.5365,0.4704,0.358,0.2463,0.1235,-0.0,-0.1239,-0.16,-0.1849,-0.1849,-0.2336,-0.2684,-0.2618,-0.2945,-0.3297,-0.3574,-0.3684,-0.37,-0.3763,-0.3768,-0.3779,-0.3804,-0.385,-0.3899,-0.3948,-0.3951,-0.3951,-0.3951,-0.3951,-0.3951,-0.3951,-0.3951,-0.4074,-0.4318,-0.6761,-0.7978,-0.8343,-1.0671,-1.1776,2.7976,2.6798,2.5717,2.485,2.3973,2.3018,0.0,0.0,2.182,2.1731,2.1571,2.1392,2.1392,2.1015,2.0744,2.0744,2.0473,2.0292,2.0292,2.0292,2.0292,2.0292,2.0292,1.9911,1.9072,1.898,1.8133,1.6075,1.5981,1.5235,1.3642,1.3545,1.3244,1.2759,1.2759,1.2759,1.2759,1.2759,1.2759,1.2759,1.2759,1.2759,1.2759,1.2759,1.2759,1.2662,1.0493,0.9015,0.8124,0.693,0.6437,0.6437,0.6437,0.6437,0.6437,0.6437,0.6237,0.6042,0.6042,0.5937,0.5636,0.534,0.5298,0.5373,0.506,0.5014,0.5079,0.5092,0.5153,0.5218,0.5239,0.5304,0.5369,0.5377,0.527,0.4819,0.3692,0.2378,0.1145,-0.0,-0.1161,-0.188,-0.188,-0.2119,-0.2355,-0.2346,-0.3164,-0.3632,-0.3403,-0.3595,-0.37,-0.3763,-0.3768,-0.3812,-0.3921,-0.3937,-0.3943,-0.3951,-0.3951,-0.3951,-0.3951,-0.3951,-0.3951,-0.3951,-0.3951,-0.4441,-0.5663,-0.7128,-0.8465,-0.968,-1.1156,-1.1776,2.7787,2.5889,2.4533,0.0,2.3742,2.3329,2.2637,2.2492,2.2334,2.182,2.1571,2.1392,2.1195,2.0925,2.0654,0.0,2.0382,2.0292,2.0292,2.0292,2.0292,2.0292,2.0292,2.011,1.9729,1.9163,1.8226,1.6828,1.617,1.514,1.3534,1.3545,1.3244,1.2759,1.2759,1.2759,1.2759,1.2759,1.2759,1.2759,1.2759,1.2759,1.2759,1.2759,1.2457,1.1765,1.0297,0.9015,0.7925,0.683,0.6437,0.6437,0.6437,0.6337,0.6137,0.6337,0.6237,0.6042,0.6042,0.5837,0.5546,0.5408,0.5355,0.5399,0.5139,0.5079,0.512,0.5173,0.5214,0.5255,0.5308,0.5353,0.5382,0.5382,0.5382,0.5043,0.3916,0.315,0.2263,0.034,-0.0459,-0.1045,-0.1743,-0.2109,-0.224,-0.2121,-0.2945,-0.3426,-0.3339,-0.368,-0.3807,-0.3869,-0.3875,-0.3897,-0.3946,-0.3951,-0.3951,-0.3951,-0.3951,-0.3951,-0.3951,-0.3951,-0.4318,-0.5053,-0.5053,-0.5663,-0.7123,-0.8343,-0.9361,-1.006,-1.1302,-1.1979,2.776,2.5743,2.4196,2.3926,2.3577,2.3242,2.2917,2.2744,2.2492,2.182,2.1571,2.1302,2.1087,2.0817,2.0654,2.0382,2.0292,2.0292,2.0292,2.0292,2.0292,2.0292,2.0292,2.0201,1.9911,1.898,1.7948,1.6922,1.5981,1.4854,1.3534,1.3545,1.3244,1.2759,1.2759,1.2759,1.2759,1.2759,1.2759,1.2759,1.2759,1.2759,1.2759,1.2759,1.2165,1.117,1.0386,0.9402,0.8322,0.7329,0.683,0.683,0.6537,0.6237,0.6042,0.6242,0.6042,0.5741,0.5741,0.5655,0.539,0.5364,0.5322,0.5273,0.5128,0.5165,0.5198,0.5263,0.5284,0.5296,0.5365,0.5382,0.5382,0.5382,0.5382,0.5154,0.4254,0.3818,0.293,0.0903,0.0229,-0.0462,-0.1621,-0.2106,-0.2122,-0.1885,-0.2592,-0.3076,-0.3229,-0.3607,-0.3877,-0.3921,-0.394,-0.3951,-0.3951,-0.3951,-0.3951,-0.3951,-0.3951,-0.3951,-0.3951,-0.3951,-0.4564,-0.5908,-0.5908,-0.6775,-0.8523,-0.9381,-1.0197,-1.0724,-1.1604,-1.2207,2.7787,2.6619,2.5521,2.4539,2.3331,2.2318,2.23,2.2006,2.1731,2.1731,2.1571,2.1302,2.1087,2.0817,2.0654,2.0382,2.0292,2.0292,2.0292,2.0292,2.0292,2.0292,2.0292,1.9911,0.0,1.7948,1.6922,1.5886,1.4949,1.4112,1.3545,1.3545,1.3244,1.2759,1.2759,1.2759,1.2759,1.2759,1.2759,1.2759,1.2759,1.2759,1.2759,1.2759,1.2165,1.117,1.117,1.0583,0.9509,0.8421,0.7925,0.7826,0.683,0.6237,0.6042,0.6042,0.5641,0.524,0.524,0.5099,0.4969,0.4969,0.5092,0.5239,0.5239,0.5304,0.5373,0.5377,0.5377,0.5377,0.5382,0.5382,0.5382,0.5382,0.5382,0.5382,0.5382,0.4422,0.3095,0.1835,0.0697,-0.047,-0.1649,-0.1885,-0.1885,-0.1885,-0.224,-0.2474,-0.2827,-0.3465,-0.3861,-0.3864,-0.3916,-0.3951,-0.3951,-0.3951,-0.3951,-0.3951,-0.3951,-0.3951,-0.3951,-0.3951,-0.4564,-0.5908,-0.5908,-0.7301,-1.0025,-1.0025,-1.0864,-1.217,-1.2296,-1.2393,2.7473,2.6311,2.5085,2.407,2.3426,2.307,2.2795,2.2428,2.2135,2.2135,2.1825,2.1463,2.1087,2.0907,2.0727,2.0382,2.0292,2.0292,2.0292,2.0292,2.0292,2.0292,2.0292,0.0,0.0,0.0,0.0,1.5886,1.4854,1.4112,1.3545,1.3545,1.3244,1.2759,1.2759,1.2759,1.2759,1.2759,1.2759,1.2759,1.2759,1.2759,1.2759,1.2759,1.2565,1.2262,1.1473,1.0974,1.0583,0.9501,0.8619,0.7925,0.7428,0.6637,0.5737,0.5541,0.524,0.4935,0.514,0.5099,0.4981,0.5043,0.5145,0.5255,0.5316,0.5357,0.5382,0.5382,0.5382,0.5382,0.5382,0.5382,0.5382,0.5382,0.5382,0.5382,0.5382,0.5065,0.4405,0.316,0.2041,0.0797,-0.0456,-0.1255,-0.1939,-0.2395,-0.2581,-0.2872,-0.3109,-0.3638,-0.3921,-0.3921,-0.3937,-0.3951,-0.3951,-0.3951,-0.3951,-0.3951,-0.3951,-0.4318,-0.5176,-0.5172,-0.6272,-0.8465,-0.8676,-0.9614,-1.1402,-1.1526,-1.1917,-1.2475,-1.2475,-1.2572,2.74,2.631,2.5082,2.404,2.3657,2.3474,2.3121,2.285,2.2502,2.2355,2.2154,2.1808,2.114,2.1013,2.0902,2.04,2.0292,2.0292,2.0292,2.0292,2.0292,2.0292,2.0292,2.0201,0.0,0.0,0.0,1.6452,1.5045,1.4112,1.3545,1.3545,1.3244,1.2759,1.2759,1.2759,1.2759,1.2759,1.2759,1.2759,1.2759,1.2759,1.2759,1.2759,1.2759,1.2759,1.2068,1.1765,1.1668,1.0592,0.9698,0.881,0.8223,0.7129,0.5837,0.5737,0.5258,0.4883,0.5086,0.5047,0.5035,0.5128,0.5218,0.5304,0.5365,0.5382,0.5382,0.5382,0.5382,0.5382,0.5382,0.5382,0.5382,0.5382,0.5382,0.5382,0.5382,0.5382,0.5043,0.3804,0.3022,0.1903,0.0336,-0.1009,-0.202,-0.2468,-0.2678,-0.287,-0.3348,-0.3638,-0.3804,-0.3825,-0.3828,-0.3951,-0.3951,-0.3951,-0.3951,-0.3951,-0.3951,-0.4441,-0.5786,-0.5937,-0.7182,-0.9883,-1.0032,-1.0893,-1.2223,-1.2345,-1.2491,-1.2661,-1.2661,-1.2726,2.7579,2.6532,2.5586,2.4627,2.3956,2.3565,2.3565,2.3272,2.2774,2.2465,2.2405,2.2236,0.0,0.0,2.1015,2.0468,2.0309,2.0292,2.0292,2.0292,2.0292,0.0,0.0,0.0,0.0,0.0,0.0,1.739,0.0,1.4112,1.3545,1.3545,1.3244,1.2759,1.2759,1.2759,1.2759,1.2759,1.2759,1.2759,1.2759,1.2759,1.2759,1.2759,1.2759,1.2759,1.2759,1.2759,1.2759,1.1668,1.0877,1.0288,0.9213,0.7826,0.6437,0.6337,0.5804,0.4973,0.4977,0.5039,0.5128,0.5214,0.5308,0.5382,0.5382,0.5382,0.5382,0.5382,0.5382,0.5382,0.5382,0.5382,0.5382,0.5382,0.5382,0.5382,0.5382,0.5382,0.5043,0.3918,0.358,0.2798,0.0448,-0.1009,-0.1908,-0.2132,-0.2309,-0.2594,-0.318,-0.3584,-0.3764,-0.3574,-0.3704,-0.3951,-0.3951,-0.3951,-0.3951,-0.3951,-0.3954,-0.4567,-0.5912,-0.6243,-0.7541,-1.0046,-1.0314,-1.1104,-1.2435,-1.2572,-1.267,-1.284,-1.284,-1.284,2.8609,2.8143,2.7673,2.6723,2.5779,2.514,2.514,2.4256,2.3363,2.3253,2.2804,2.2416,0.0,0.0,0.0,2.0847,2.048,0.0,2.0292,2.0292,0.0,2.0292,0.0,2.0201,1.9911,1.9255,0.0,0.0,1.617,1.4854,1.3534,1.3545,1.3244,1.2759,1.2759,1.2759,1.2759,1.2759,1.2759,1.2759,1.2759,1.2759,1.2759,1.2759,1.2759,1.2759,1.2759,1.2759,1.2759,1.2068,1.1277,1.0288,0.941,0.8024,0.6337,0.6142,0.5606,0.4981,0.5051,0.5132,0.5214,0.5239,0.5308,0.5382,0.5382,0.5382,0.5382,0.5382,0.5382,0.5382,0.5382,0.5382,0.5382,0.5382,0.5382,0.5382,0.5382,0.5382,0.527,0.5043,0.3471,0.1791,0.0224,-0.1009,-0.1908,-0.2132,-0.2309,-0.2594,-0.318,-0.35,-0.3687,-0.3825,-0.3828,-0.3951,-0.3951,-0.3951,-0.3951,-0.3951,-0.3989,-0.5011,-0.75,-0.7602,-0.8419,-1.0202,-1.1374,-1.1736,-1.0991,-1.2172,-1.2791,-1.284,-1.284,-1.284,2.8646,2.8179,2.7819,2.7045,2.6581,2.6264,2.5781,2.5024,2.4331,2.368,2.322,0.0,2.2334,0.0,0.0,0.0,0.0,0.0,2.0292,2.0292,2.0292,0.0,2.0292,0.0,2.0292,1.982,1.8796,0.0,1.617,1.5045,1.3534,1.334,1.3147,1.2759,1.2759,1.2759,1.2759,1.2759,1.2759,1.2759,1.2759,1.2759,1.2759,1.2759,1.2759,1.2759,0.0,1.2759,1.2759,1.2175,1.1482,1.069,1.001,0.8718,0.7241,0.7202,0.6487,0.5566,0.5665,0.5552,0.5304,0.5304,0.5341,0.5382,0.5382,0.5382,0.5382,0.5382,0.5382,0.5382,0.5382,0.5382,0.5382,0.5382,0.5382,0.5382,0.5382,0.5382,0.5382,0.5382,0.3918,0.2239,0.1009,-0.0224,-0.1234,-0.2132,-0.2193,-0.2356,-0.3061,-0.3268,-0.3579,-0.3704,-0.3828,-0.3951,-0.3951,-0.3973,-0.3986,-0.3986,-0.4041,-0.4959,-0.7107,-0.7331,-0.8291,-1.0223,-1.1279,-1.1627,-1.1497,-1.2389,-1.284,-1.284,-1.284,-1.284,2.8473,2.7871,2.739,2.6961,2.717,2.7105,2.6167,2.5781,2.5295,2.3888,0.0,2.3242,2.2451,2.1857,2.1302,2.0994,0.0,2.0292,2.0292,2.0292,2.0292,2.0292,2.0292,2.0292,2.0292,2.0292,1.9438,1.7282,1.6156,1.4937,1.3534,1.3244,1.305,1.2759,1.2759,1.2759,1.2759,1.2759,1.2759,1.2759,1.2759,1.2759,1.2759,1.2759,1.2759,1.2759,1.2759,0.0,1.2759,1.2175,1.159,1.11,1.0511,0.9533,0.8478,0.8606,0.7736,0.6409,0.6511,0.6074,0.5382,0.5382,0.5382,0.5382,0.5382,0.5382,0.5382,0.5382,0.5382,0.5382,0.5382,0.5382,0.5382,0.5382,0.5382,0.5382,0.5382,0.5382,0.5382,0.5382,0.448,0.3245,0.2015,0.0784,-0.0449,-0.1913,-0.1966,-0.2124,-0.2723,-0.3156,-0.3455,-0.3455,-0.371,-0.3962,-0.3962,-0.4014,-0.4046,-0.4046,-0.4104,-0.4778,-0.6058,-0.6276,-0.75,-1.011,-1.0504,-1.1233,-1.2568,-1.27,-1.284,-1.284,-1.284,-1.284,2.9806,2.9489,2.915,2.9443,2.9028,2.8143,2.72,2.6244,0.0,0.0,2.3701,2.3402,2.3178,2.2223,2.1388,2.1319,0.0,0.0,0.0,0.0,2.0292,0.0,0.0,0.0,0.0,0.0,0.0,0.0,0.0,1.5412,1.3244,1.3147,1.305,1.2759,1.2759,1.2759,1.2759,1.2759,1.2759,1.2759,1.2759,1.2759,1.2759,1.2759,1.2759,1.2759,1.2759,0.0,1.2759,1.1785,1.1296,1.11,1.0117,0.9314,0.8621,0.8649,0.7799,0.6516,0.6536,0.6074,0.5382,0.5382,0.5382,0.5382,0.5382,0.5382,0.5382,0.5382,0.5382,0.5382,0.5382,0.5382,0.5382,0.5382,0.5382,0.5382,0.5382,0.5382,0.5382,0.5382,0.448,0.3245,0.2015,0.0784,-0.0451,-0.1714,-0.1864,-0.2022,-0.244,-0.2827,-0.3209,-0.3455,-0.3743,-0.4019,-0.4019,-0.4076,-0.4109,-0.4109,-0.4166,-0.4851,-0.6153,-0.637,-0.7213,-0.8938,-1.0022,-1.0836,-1.1101,-1.2173,-1.284,-1.284,-1.284,-1.284,2.9869,2.9665,2.955,2.978,2.967,2.9187,2.8236,0.0,0.0,0.0,2.4134,2.3456,2.3456,0.0,0.0,0.0,0.0,0.0,0.0,0.0,0.0,0.0,0.0,0.0,0.0,0.0,0.0,0.0,0.0,1.5792,1.4184,1.334,1.2856,1.2759,1.2759,1.2759,1.2759,1.2759,1.2759,1.2759,1.2759,1.2759,1.2759,1.2759,1.2759,1.2759,1.2759,0.0,1.2759,1.1688,1.1198,1.111,1.012,0.9609,0.9391,0.9473,0.8899,0.796,0.8029,0.7216,0.6047,0.6047,0.5712,0.5382,0.5382,0.5382,0.5382,0.5382,0.5382,0.5382,0.5382,0.5382,0.5382,0.5382,0.5382,0.5382,0.5382,0.5382,0.5382,0.5382,0.448,0.3245,0.2015,0.0784,-0.0452,-0.1625,-0.1889,-0.193,-0.2237,-0.2764,-0.3158,-0.3534,-0.3812,-0.4082,-0.4082,-0.4139,-0.4174,-0.4174,-0.4229,-0.4528,-0.5189,-0.5355,-0.6309,-0.8573,-0.9238,-1.0306,-1.1769,-1.2437,-1.284,-1.284,-1.284,-1.284,2.9658,2.9504,2.9504,2.9504,2.9848,2.9943,2.891,2.8049,0.0,2.5877,2.4609,2.3637,2.3338,0.0,2.1405,0.0,0.0,0.0,0.0,0.0,0.0,0.0,0.0,0.0,0.0,0.0,0.0,0.0,0.0,0.0,1.4567,1.3426,1.2759,1.2759,1.2759,1.2759,1.2759,1.2759,1.2759,1.2759,1.2759,1.2759,1.2759,1.2759,1.2759,1.2759,1.2759,0.0,0.0,1.1757,1.1293,1.125,1.0298,0.9965,1.0038,1.0331,0.9915,0.9204,0.9318,0.8367,0.6932,0.6715,0.6158,0.5382,0.5382,0.5382,0.5382,0.5382,0.5382,0.5382,0.5382,0.5382,0.5382,0.5382,0.5382,0.5382,0.5382,0.5382,0.5382,0.5382,0.448,0.3248,0.2024,0.0789,-0.0456,-0.1777,-0.1925,-0.1964,-0.203,-0.2703,-0.3243,-0.3512,-0.3894,-0.4145,-0.4145,-0.4202,-0.4237,-0.4237,-0.4281,-0.4308,-0.4308,-0.4308,-0.5644,-0.8573,-0.8573,-1.0035,-1.284,-1.284,-1.2816,-1.2775,-1.2775,-1.2759,2.9658,2.9504,2.9504,2.9504,2.9848,2.9943,2.891,0.0,2.7955,2.5781,2.5001,2.4412,2.3238,2.2114,0.0,0.0,0.0,2.0292,0.0,0.0,0.0,0.0,0.0,0.0,0.0,0.0,0.0,0.0,0.0,0.0,1.305,1.2856,1.2759,1.2759,1.2759,1.2759,1.2759,1.2759,1.2759,1.2759,1.2759,1.2759,1.2759,1.2759,1.2759,1.2759,1.2759,0.0,0.0,1.1883,1.1595,1.1662,1.0543,1.0241,1.0387,1.042,0.9985,0.934,0.9354,0.8699,0.7703,0.6932,0.6158,0.5382,0.5382,0.5382,0.5382,0.5382,0.5382,0.5382,0.5382,0.5382,0.5382,0.5382,0.5382,0.5382,0.5382,0.5382,0.5382,0.5382,0.448,0.3148,0.1942,0.0802,-0.0466,-0.1833,-0.1971,-0.2004,-0.209,-0.276,-0.3175,-0.3212,-0.3843,-0.4207,-0.4207,-0.4264,-0.43,-0.43,-0.4305,-0.4308,-0.4308,-0.4308,-0.5644,-0.8573,-0.8573,-1.0035,-1.284,-1.284,-1.2751,-1.2588,-1.2588,-1.2507,3.0206,2.98,2.9573,2.9848,3.0078,3.0125,2.9646,0.0,2.8236,2.6512,2.547,2.4436,2.2938,2.1976,2.1336,2.1131,2.0634,0.0,2.0292,0.0,0.0,0.0,0.0,0.0,0.0,0.0,0.0,0.0,0.0,0.0,1.3522,1.305,1.2759,1.2759,1.2759,1.2759,1.2759,1.2759,1.2759,1.2759,1.2759,1.2759,1.2759,1.2759,1.2834,1.2964,1.2964,0.0,0.0,1.2108,1.1746,1.1728,1.0704,1.0371,1.0444,1.055,1.0413,1.0139,1.0139,0.9581,0.8699,0.7814,0.6932,0.6047,0.5605,0.5382,0.5382,0.5382,0.5382,0.5382,0.5382,0.5382,0.5382,0.5382,0.5382,0.5382,0.5382,0.5382,0.5398,0.5447,0.3865,0.2285,0.1859,0.0117,-0.1304,-0.1863,-0.2001,-0.2034,-0.2125,-0.2803,-0.321,-0.3226,-0.3882,-0.427,-0.427,-0.4294,-0.4308,-0.4308,-0.4308,-0.4308,-0.4308,-0.5108,-0.6577,-0.8573,-0.9371,-1.0788,-1.267,-1.267,-1.258,-1.241,-1.241,-1.2377,3.0388,3.0027,2.9757,2.9963,3.0101,3.0216,0.0,0.0,2.8702,2.7369,2.632,2.5043,2.3019,2.2145,2.157,2.1036,2.0549,2.0292,2.0292,0.0,0.0,0.0,0.0,0.0,0.0,0.0,0.0,0.0,0.0,0.0,1.4292,1.334,1.2759,1.2759,1.2759,1.2759,1.2759,1.2759,1.2759,1.2759,1.2759,1.2759,1.277,1.2834,1.2953,1.3104,1.3179,0.0,0.0,1.2323,1.1945,1.1915,1.089,1.0509,1.0526,1.0647,1.0688,1.0688,1.0688,1.0249,0.9581,0.8361,0.7593,0.6821,0.5712,0.5382,0.5382,0.5382,0.5382,0.5382,0.5382,0.5382,0.5382,0.5382,0.5382,0.539,0.5414,0.5418,0.5443,0.5529,0.3467,0.1743,0.1889,-0.0237,-0.1929,-0.2019,-0.2158,-0.219,-0.2144,-0.2827,-0.3362,-0.3228,-0.3902,-0.4308,-0.4308,-0.4308,-0.4308,-0.4308,-0.4308,-0.4308,-0.4308,-0.5644,-0.7107,-0.8573,-0.9864,-1.1243,-1.2564,-1.2515,-1.2393,-1.2223,-1.2223,-1.2223,3.0062,3.0004,3.0101,2.9619,2.9871,3.0216,0.0,3.0216,2.9646,2.7955,2.7579,2.6676,2.3777,2.2817,2.225,2.113,2.0549,2.0292,2.0292,0.0,0.0,0.0,0.0,0.0,0.0,0.0,0.0,0.0,0.0,0.0,1.5057,1.3619,1.2759,1.2759,1.2759,1.2759,1.2759,1.2759,1.2759,1.2759,1.2759,1.2759,1.277,1.2996,1.3104,0.0,0.0,0.0,0.0,1.2539,1.2238,1.2327,1.1126,1.0688,1.0688,1.0688,1.0688,1.0688,1.0688,1.0688,1.0359,0.8582,0.8029,0.7697,0.5935,0.5382,0.5382,0.5382,0.5382,0.5382,0.5382,0.5382,0.5382,0.5382,0.5382,0.5406,0.5488,0.5508,0.5533,0.5627,0.3643,0.1891,0.1798,-0.0241,-0.196,-0.205,-0.2322,-0.2477,-0.2281,-0.3096,-0.3633,-0.3228,-0.3902,-0.4308,-0.4308,-0.4308,-0.4308,-0.4308,-0.4308,-0.4308,-0.4308,-0.5644,-0.7107,-0.8573,-0.9764,-1.1128,-1.2564,-1.2393,-1.2215,-1.2028,-1.2028,-1.2028,3.0392,3.0281,3.017,3.0032,3.0101,3.0216,3.0216,3.0216,2.9738,2.7977,2.7327,2.6413,2.4032,2.2777,2.1913,2.1354,2.0724,2.0292,0.0,0.0,0.0,0.0,0.0,0.0,0.0,0.0,0.0,0.0,0.0,0.0,1.5057,1.3619,1.2759,1.2759,1.2759,1.2759,1.2759,1.2759,1.2759,1.277,1.292,1.2996,1.3007,1.3243,1.3448,0.0,0.0,0.0,0.0,1.2773,1.238,1.2327,1.1126,1.0688,1.0688,1.0688,1.0688,1.0688,1.0688,1.0688,1.0468,0.9361,0.8472,0.7808,0.6599,0.5828,0.5382,0.5382,0.5382,0.5382,0.5382,0.5382,0.5398,0.5455,0.5467,0.5492,0.5582,0.5602,0.5627,0.572,0.3582,0.1801,0.1949,-0.0247,-0.2007,-0.2057,-0.2342,-0.2638,-0.2553,-0.323,-0.3768,-0.3633,-0.4037,-0.4308,-0.4308,-0.4308,-0.4308,-0.4308,-0.4308,-0.4308,-0.4308,-0.6514,-0.7923,-0.8448,-1.0534,-1.1814,-1.2199,-1.2142,-1.2028,-1.1857,-1.1857,-1.2045,3.0668,3.0397,3.0216,3.0216,3.0216,3.0216,3.0216,0.0,2.951,2.8114,2.7395,2.6422,2.4277,2.3035,2.2171,2.15,2.0727,0.0,0.0,0.0,0.0,0.0,0.0,0.0,0.0,0.0,0.0,0.0,0.0,0.0,1.514,1.3908,1.305,1.2759,1.2759,1.2759,1.2759,1.2759,1.2802,1.2888,1.3039,1.3157,1.3254,1.3502,1.3685,0.0,0.0,0.0,0.0,1.2881,1.2436,1.2327,1.1126,1.0688,1.0688,1.0688,1.0688,1.0688,1.0688,1.0688,1.0578,0.9691,0.8589,0.7371,0.6821,0.6047,0.5382,0.5382,0.5382,0.539,0.5418,0.5431,0.5451,0.5537,0.5557,0.5586,0.5676,0.5696,0.5725,0.5814,0.4125,0.2433,0.2089,0.0248,-0.1383,-0.2042,-0.2451,-0.2739,-0.2646,-0.3444,-0.384,-0.3708,-0.3973,-0.424,-0.424,-0.4281,-0.4308,-0.4308,-0.4286,-0.4273,-0.4273,-0.6823,-0.8318,-0.8318,-1.0883,-1.2142,-1.2028,-1.1963,-1.1882,-1.1776,-1.1776,-1.215,0.0,3.0397,3.0216,3.0216,3.0216,3.0216,3.0216,2.9829,0.0,2.8294,2.7597,2.6641,2.4625,2.3641,2.2768,2.1679,0.0,0.0,0.0,0.0,0.0,0.0,0.0,0.0,0.0,0.0,0.0,0.0,0.0,0.0,1.5153,1.4376,1.3522,1.2856,1.2759,1.2759,1.2759,1.278,1.2899,1.3104,1.3136,1.3276,1.3513,1.3739,1.3846,0.0,0.0,0.0,0.0,1.2881,1.2436,1.2327,1.1126,1.0688,1.0688,1.0688,1.0688,1.0688,1.0688,1.0688,1.0578,0.9691,0.8257,0.6826,0.672,0.6051,0.5382,0.539,0.539,0.541,0.5496,0.5516,0.5541,0.5631,0.5655,0.568,0.5769,0.579,0.5814,0.59,0.4803,0.3446,0.2216,0.0863,-0.0496,-0.1762,-0.2651,-0.3048,-0.2705,-0.3482,-0.3997,-0.3608,-0.3868,-0.4125,-0.4125,-0.4229,-0.4294,-0.4294,-0.4243,-0.421,-0.4341,-0.685,-0.8198,-0.832,-1.0717,-1.2012,-1.2012,-1.1849,-1.1776,-1.1776,-1.1792,-1.2217,3.1294,0.0,3.0216,3.0216,3.0216,3.0216,0.0,2.9557,0.0,0.0,0.0,0.0,0.0,0.0,0.0,0.0,0.0,0.0,0.0,0.0,0.0,0.0,0.0,0.0,0.0,0.0,0.0,0.0,0.0,1.5913,1.5153,1.4376,1.3522,1.2856,1.2759,1.2759,1.2759,1.2931,1.305,1.3114,1.348,1.3685,1.375,1.3997,1.4105,0.0,0.0,0.0,1.4083,1.2881,1.2436,1.2327,1.1126,1.0688,1.0688,1.0688,1.0688,1.0688,1.0688,1.0688,1.0578,0.9691,0.914,0.8497,0.7145,0.6106,0.5394,0.5459,0.548,0.55,0.559,0.561,0.5635,0.5729,0.5749,0.5774,0.5867,0.5884,0.5892,0.5912,0.4803,0.3446,0.2216,0.0871,-0.0502,-0.1766,-0.2676,-0.3085,-0.2966,-0.361,-0.4125,-0.3997,-0.3997,-0.4125,-0.4125,-0.4153,-0.4169,-0.4169,-0.4155,-0.4532,-0.5558,-0.7126,-0.8455,-0.9456,-1.1057,-1.1833,-1.1833,-1.1792,-1.1776,-1.1776,-1.1906,-1.2457,3.156,3.0758,3.0216,3.0216,3.0216,3.0147,2.994,2.9128,0.0,0.0,0.0,0.0,0.0,0.0,0.0,0.0,0.0,0.0,0.0,0.0,0.0,0.0,0.0,0.0,0.0,0.0,0.0,0.0,0.0,1.6292,1.5153,1.4675,1.3908,1.2856,1.2759,1.2759,1.2759,1.2985,1.3157,1.3276,1.3642,1.3879,1.3997,1.4126,1.4191,0.0,0.0,0.0,1.4083,1.2881,1.2436,1.2327,1.1126,1.0688,1.0688,1.0688,1.0688,1.0688,1.0688,1.0688,1.0594,1.0231,0.9809,0.9384,0.8514,0.7252,0.6079,0.5672,0.5569,0.559,0.5684,0.5708,0.5729,0.5823,0.5843,0.5859,0.5908,0.5916,0.5916,0.5916,0.5298,0.4186,0.2339,0.1364,0.025,-0.1749,-0.2642,-0.3036,-0.3036,-0.3668,-0.4046,-0.4046,-0.4046,-0.4046,-0.4046,-0.4046,-0.4068,-0.4123,-0.4098,-0.4718,-0.5986,-0.7271,-0.8817,-1.0674,-1.1453,-1.1776,-1.1776,-1.1776,-1.1776,-1.1784,-1.2078,-1.2623,3.1816,3.0909,3.0191,3.0101,3.0032,2.9871,2.9392,2.8589,0.0,0.0,0.0,0.0,0.0,0.0,0.0,0.0,0.0,0.0,0.0,0.0,0.0,0.0,0.0,0.0,0.0,0.0,0.0,0.0,0.0,1.6669,1.5153,1.5057,1.4388,1.2856,1.2759,1.2759,1.2759,1.3028,1.3265,1.348,1.375,1.3986,1.4191,1.4191,1.4191,1.4191,0.0,0.0,1.4083,1.2881,1.2436,1.2327,1.1126,1.0688,1.0688,1.0688,1.0688,1.0688,1.0688,1.0712,1.0761,1.0915,1.0529,0.9894,0.9932,0.8703,0.7072,0.6151,0.5793,0.5688,0.5778,0.5802,0.5823,0.59,0.5916,0.5916,0.5916,0.5916,0.5916,0.5916,0.5916,0.5176,0.2708,0.2093,0.1108,-0.1358,-0.2469,-0.296,-0.296,-0.3579,-0.3951,-0.3951,-0.3951,-0.3951,-0.3951,-0.3951,-0.3995,-0.4093,-0.4052,-0.4646,-0.6268,-0.7664,-0.9566,-1.1776,-1.1776,-1.1776,-1.1776,-1.1776,-1.1792,-1.1817,-1.2365,-1.2914,3.2525,3.1382,3.0343,2.9773,2.9274,2.882,2.8426,2.7544,0.0,0.0,0.0,0.0,0.0,0.0,0.0,0.0,0.0,0.0,0.0,0.0,0.0,0.0,0.0,0.0,0.0,0.0,0.0,0.0,0.0,0.0,1.5153,1.5057,1.4388,1.2856,1.2759,1.2759,1.2759,1.32,1.3437,1.348,1.3922,1.4159,1.4191,1.4191,1.4191,1.4191,0.0,1.4191,1.4083,1.2881,1.2436,1.2327,1.1126,1.0688,1.0688,1.0688,1.0688,1.0688,1.0688,1.0794,1.0932,1.0964,1.0948,1.087,1.0215,0.9202,0.8158,0.7417,0.6417,0.5782,0.5872,0.5896,0.59,0.5912,0.5916,0.5916,0.5916,0.5916,0.5916,0.5916,0.5916,0.5421,0.3815,0.2706,0.1478,-0.0123,-0.1849,-0.296,-0.296,-0.3579,-0.3951,-0.3951,-0.3951,-0.3951,-0.3951,-0.3951,-0.3959,-0.3976,-0.397,-0.507,-0.7516,-0.995,-1.1405,-1.1776,-1.1776,-1.1776,-1.1776,-1.1776,-1.1849,-1.1996,-1.254,-1.3104,3.2352,3.1455,3.0465,2.94,2.8935,2.8545,2.7843,2.7081,2.6432,0.0,0.0,0.0,0.0,0.0,0.0,0.0,0.0,0.0,0.0,0.0,0.0,0.0,0.0,0.0,0.0,0.0,0.0,0.0,0.0,0.0,1.571,1.5343,1.458,1.3426,1.305,1.2759,1.2759,1.3104,1.334,1.348,1.3965,1.4191,1.4191,1.4191,1.4191,1.4191,0.0,1.4191,1.4083,1.2881,1.2436,1.2327,1.1126,1.0688,1.0688,1.0688,1.0688,1.0704,1.081,1.0899,1.1005,1.1191,1.1305,1.1286,1.1105,1.0321,0.9366,0.8453,0.7099,0.5863,0.5908,0.5916,0.5916,0.5916,0.5916,0.5916,0.5916,0.5916,0.5916,0.5916,0.5916,0.5421,0.4183,0.2831,0.1601,0.0246,-0.1726,-0.296,-0.296,-0.3579,-0.3951,-0.3951,-0.3951,-0.3951,-0.3951,-0.3951,-0.3951,-0.3951,-0.5298,-0.6639,-0.7856,-1.0429,-1.1776,-1.1776,-1.1776,-1.1776,-1.1776,-1.1776,-1.1987,-1.2283,-1.2832,-1.3409,3.2034,3.1284,3.0586,2.9238,2.8787,2.8326,2.7178,2.6664,2.6151,0.0,0.0,0.0,0.0,0.0,0.0,0.0,0.0,0.0,0.0,0.0,0.0,0.0,0.0,0.0,0.0,0.0,0.0,0.0,0.0,0.0,1.6292,1.552,1.4758,1.3908,1.3147,1.2759,1.2759,1.2985,1.3233,1.348,1.39,1.4137,1.4191,1.4191,1.4191,1.4191,1.4191,1.4191,1.4083,1.2881,1.2436,1.2327,1.1126,1.0688,1.0688,1.0688,1.072,1.0777,1.0923,1.1021,1.1143,1.1411,1.1533,1.1589,1.1736,1.0921,0.9815,0.8958,0.7378,0.5916,0.5916,0.5916,0.5916,0.5916,0.5916,0.5916,0.5916,0.5916,0.5916,0.5916,0.5916,0.5544,0.4555,0.3077,0.1601,0.0616,-0.148,-0.296,-0.296,-0.3579,-0.3951,-0.3951,-0.3951,-0.3951,-0.3951,-0.3951,-0.4074,-0.4318,-0.6639,-0.7856,-0.7856,-1.0429,-1.1776,-1.1776,-1.1776,-1.1776,-1.1776,-1.1938,-1.2167,-1.2721,-1.3277,-1.3734,3.1967,3.1396,3.0565,2.9436,2.8626,2.787,2.6368,2.595,0.0,2.4721,0.0,0.0,0.0,0.0,0.0,0.0,0.0,0.0,0.0,0.0,0.0,0.0,0.0,0.0,0.0,0.0,0.0,0.0,0.0,0.0,1.6292,1.552,1.4758,1.3908,1.3147,1.2759,1.2759,1.2985,1.3233,1.348,1.3728,1.3965,1.4191,1.4191,1.4191,1.4191,1.4191,1.4191,1.4083,1.2881,1.2436,1.2327,1.1126,1.0688,1.0688,1.0688,1.0802,1.0956,1.0964,1.1183,1.1468,1.1492,1.1614,1.176,1.1776,1.0429,0.8836,0.8836,0.7378,0.5916,0.5916,0.5916,0.5916,0.5916,0.5916,0.5916,0.5916,0.5916,0.5916,0.5916,0.5916,0.5916,0.5794,0.3694,0.197,0.1847,-0.0863,-0.296,-0.296,-0.3579,-0.3951,-0.3951,-0.3951,-0.3951,-0.3951,-0.3951,-0.4441,-0.5663,-0.7128,-0.7856,-0.7856,-1.0429,-1.1776,-1.1776,-1.1776,-1.1776,-1.1776,-1.2306,-1.2597,-1.2775,-1.3616,-1.4198,3.147,3.1161,3.0778,2.9856,2.9003,0.0,0.0,2.5906,2.5654,2.4721,2.455,0.0,0.0,0.0,0.0,0.0,0.0,0.0,0.0,0.0,0.0,0.0,0.0,0.0,0.0,0.0,0.0,0.0,0.0,0.0,0.0,1.571,1.4962,1.4675,1.3426,1.2759,1.2759,1.2845,1.3093,1.348,1.3706,1.3954,1.4191,1.4191,1.4191,1.4191,1.4191,1.3975,1.3532,1.2762,1.2219,1.1782,1.1017,1.0688,1.0704,1.0826,1.0907,1.1005,1.1224,1.1386,1.1516,1.163,1.135,1.0914,1.0914,0.9937,0.8714,0.8105,0.7378,0.6644,0.6039,0.5916,0.5916,0.5916,0.5916,0.5916,0.5916,0.5916,0.5916,0.5916,0.5916,0.5916,0.5916,0.4432,0.2952,0.2093,-0.0123,-0.2094,-0.2837,-0.3579,-0.3951,-0.3951,-0.3951,-0.3951,-0.3951,-0.3951,-0.4071,-0.4684,-0.6639,-0.8221,-0.9073,-1.0793,-1.1776,-1.1776,-1.1776,-1.1833,-1.1939,-1.2373,-1.2807,-1.3361,-1.3824,-1.4346,3.1078,3.0973,3.0823,2.996,0.0,0.0,2.6302,2.5822,2.5464,2.4615,2.455,0.0,0.0,0.0,0.0,0.0,0.0,0.0,0.0,0.0,0.0,0.0,0.0,0.0,0.0,0.0,0.0,0.0,0.0,0.0,0.0,1.59,1.5057,1.5057,1.3619,1.2759,1.2759,1.2834,1.3071,1.348,1.3706,1.3954,1.4191,1.4191,1.4191,1.4191,1.4191,1.3867,1.3207,1.2654,1.2001,1.1236,1.0907,1.0688,1.0712,1.0899,1.1005,1.1094,1.1395,1.1541,1.1606,1.1366,1.0914,1.0186,0.9937,0.9086,0.8227,0.7617,0.7133,0.6766,0.6039,0.5916,0.5916,0.5916,0.5916,0.5916,0.5916,0.5916,0.5916,0.5916,0.5916,0.5916,0.5916,0.48,0.3446,0.2216,0.0246,-0.1478,-0.2837,-0.3579,-0.3951,-0.3951,-0.3951,-0.3951,-0.3951,-0.3951,-0.4071,-0.4564,-0.6639,-0.8343,-0.9195,-1.0914,-1.1776,-1.1776,-1.1833,-1.1914,-1.2028,-1.2648,-1.3213,-1.3602,-1.418,-1.454,3.0973,3.0973,0.0,0.0,0.0,0.0,2.6302,2.5549,2.5041,2.4615,0.0,2.455,0.0,0.0,0.0,0.0,0.0,0.0,0.0,0.0,0.0,0.0,0.0,0.0,0.0,0.0,0.0,0.0,0.0,0.0,0.0,1.59,1.5057,1.5057,1.3619,1.2759,1.2759,1.2985,1.3233,1.348,1.3706,1.3954,1.4191,1.4191,1.4191,1.4191,1.4191,1.3867,1.3207,1.2663,1.1673,1.0688,1.0688,1.0696,1.072,1.0907,1.1078,1.1248,1.1435,1.1622,1.1655,1.0671,1.0308,1.0058,0.9079,0.8105,0.7373,0.7373,0.6648,0.5916,0.5916,0.5916,0.5916,0.5916,0.5916,0.5916,0.5916,0.5916,0.5916,0.5916,0.5916,0.5916,0.5916,0.4803,0.3446,0.2216,0.0246,-0.1478,-0.2837,-0.3579,-0.3951,-0.3951,-0.3951,-0.3951,-0.3951,-0.3951,-0.4441,-0.5786,-0.7123,-0.7856,-0.7856,-1.0429,-1.1776,-1.1776,-1.1947,-1.2028,-1.2036,-1.3029,-1.3602,-1.3602,-1.4447,-1.4931,3.0973,3.0672,0.0,0.0,0.0,0.0,0.0,2.5611,0.0,0.0,0.0,0.0,0.0,0.0,0.0,0.0,0.0,0.0,0.0,0.0,0.0,0.0,0.0,0.0,0.0,0.0,0.0,0.0,0.0,0.0,0.0,1.59,1.5057,1.5057,1.3619,1.2759,1.2759,1.2985,1.3233,1.348,1.3706,1.3954,1.4191,1.4191,1.4191,1.4191,1.4191,1.3867,1.3207,1.2228,1.1345,1.0688,1.0688,1.0769,1.0907,1.1086,1.1265,1.1443,1.163,1.1727,1.1776,1.1405,1.0429,0.9201,0.8836,0.7622,0.6403,0.6403,0.6162,0.5916,0.5916,0.5916,0.5916,0.5916,0.5916,0.5916,0.5916,0.5916,0.5916,0.5916,0.5916,0.5916,0.5916,0.5544,0.4555,0.2339,0.1107,-0.0615,-0.3332,-0.3828,-0.3951,-0.3951,-0.3951,-0.3951,-0.3951,-0.3951,-0.4071,-0.4441,-0.6639,-0.8343,-0.9195,-1.0914,-1.1833,-1.1955,-1.2004,-1.215,-1.2402,-1.3157,-1.3664,-1.3796,-1.4511,-1.4931,3.0973,0.0,0.0,0.0,0.0,0.0,0.0,0.0,0.0,0.0,0.0,0.0,0.0,0.0,0.0,0.0,0.0,0.0,0.0,0.0,0.0,0.0,0.0,0.0,0.0,0.0,0.0,0.0,0.0,0.0,0.0,1.59,1.5057,1.5057,1.3619,1.2759,1.2759,1.3093,1.333,1.348,1.3814,1.4051,1.4191,1.4191,1.4191,1.4191,1.3975,1.3532,1.2881,1.2001,1.1236,1.0688,1.0688,1.0802,1.0988,1.1159,1.1338,1.1524,1.1711,1.1776,1.1776,1.1285,1.0429,0.9201,0.8471,0.7378,0.6403,0.6039,0.5916,0.5916,0.5916,0.5916,0.5916,0.5916,0.5916,0.5916,0.5916,0.5916,0.5916,0.5916,0.5916,0.5916,0.5916,0.5916,0.5176,0.3077,0.1354,-0.0615,-0.3083,-0.3702,-0.3951,-0.3951,-0.3951,-0.3951,-0.3951,-0.3951,-0.3951,-0.3951,-0.6394,-0.8244,-0.9032,-1.089,-1.1922,-1.2028,-1.2166,-1.2471,-1.2822,-1.3414,-1.39,-1.4137,-1.467,-1.4931,3.0973,0.0,0.0,0.0,0.0,0.0,0.0,0.0,0.0,0.0,0.0,0.0,0.0,0.0,0.0,0.0,0.0,0.0,0.0,0.0,0.0,0.0,0.0,0.0,0.0,0.0,0.0,0.0,0.0,0.0,0.0,1.59,1.5057,1.5057,1.3619,1.2759,1.2759,1.3243,1.348,1.348,1.3965,1.4191,1.4191,1.4191,1.4191,1.4191,1.365,1.2989,1.2436,1.19,1.1345,1.0806,1.0712,1.0834,1.1013,1.1183,1.1362,1.1549,1.1719,1.1776,1.1655,1.0671,1.0429,0.9937,0.8227,0.7495,0.725,0.628,0.5916,0.5916,0.5916,0.5916,0.5916,0.5916,0.5916,0.5916,0.5916,0.5916,0.5916,0.5916,0.5916,0.5916,0.5916,0.5916,0.5421,0.3937,0.1107,-0.1354,-0.2342,-0.3332,-0.3951,-0.3951,-0.3951,-0.3951,-0.3951,-0.3951,-0.3951,-0.3951,-0.6403,-0.7921,-0.8035,-1.0652,-1.2044,-1.2077,-1.2393,-1.283,-1.3105,-1.3665,-1.4006,-1.4408,-1.48,-1.4931,0.0,2.9858,0.0,0.0,0.0,0.0,0.0,0.0,0.0,0.0,0.0,0.0,0.0,0.0,0.0,0.0,0.0,0.0,0.0,0.0,0.0,0.0,0.0,0.0,0.0,0.0,0.0,0.0,0.0,0.0,1.7326,1.59,1.5057,1.5057,1.3619,1.2759,1.2759,1.3243,1.348,0.0,1.3965,1.4191,1.4191,1.4191,1.4191,1.4191,1.4083,1.365,1.3098,1.2436,1.1891,1.1362,1.1073,1.1013,1.1191,1.137,1.1557,1.1719,1.176,1.1776,1.1776,1.1526,1.0914,1.0179,0.9815,0.8593,0.7373,0.7128,0.6526,0.5916,0.5916,0.5916,0.5916,0.5916,0.5916,0.5916,0.5916,0.5916,0.5916,0.5916,0.5916,0.5916,0.5916,0.5916,0.5176,0.3077,0.0615,-0.1354,-0.2342,-0.3332,-0.3951,-0.3951,-0.3951,-0.3951,-0.3951,-0.3951,-0.3951,-0.3951,-0.6469,-0.8013,-0.804,-1.0652,-1.2158,-1.2442,-1.2523,-1.2896,-1.3308,-1.3726,-1.4006,-1.4408,-1.48,-1.4931,0.0,0.0,0.0,0.0,0.0,0.0,0.0,0.0,0.0,0.0,0.0,0.0,0.0,0.0,0.0,0.0,0.0,0.0,0.0,0.0,0.0,0.0,0.0,0.0,0.0,0.0,0.0,0.0,0.0,1.7606,1.7326,1.59,1.5057,1.5057,1.3619,1.2759,1.2759,1.3243,1.348,1.348,1.3965,1.4191,1.4191,1.4191,1.4191,1.4191,1.4191,1.3867,1.3315,1.2989,1.2327,1.159,1.1458,1.1297,1.1248,1.1435,1.1614,1.1776,1.1776,1.1776,1.1776,1.1776,1.1405,1.0921,1.0429,0.9572,0.8593,0.7617,0.7011,0.6526,0.6039,0.5916,0.5916,0.5916,0.5916,0.5916,0.5916,0.5916,0.5916,0.5916,0.5916,0.5916,0.5916,0.5916,0.5298,0.3448,0.1354,-0.0492,-0.1603,-0.296,-0.3951,-0.3951,-0.3951,-0.3951,-0.3951,-0.3951,-0.3962,-0.3989,-0.6514,-0.8215,-0.8331,-1.0883,-1.2377,-1.2556,-1.2913,-1.3265,-1.3621,-1.4015,-1.4277,-1.467,-1.48,-1.4931,0.0,0.0,0.0,0.0,0.0,0.0,0.0,0.0,0.0,0.0,0.0,0.0,0.0,0.0,0.0,0.0,0.0,0.0,0.0,0.0,0.0,0.0,0.0,0.0,0.0,0.0,0.0,0.0,0.0,1.79,1.7419,1.59,1.5057,1.5057,1.3619,1.2759,1.2759,1.3243,1.348,1.348,1.3965,1.4191,1.4191,1.4191,1.4191,1.4191,1.4191,1.3975,1.3423,1.3315,1.2792,1.1964,1.1836,1.1688,1.1405,1.1476,1.1646,1.1776,1.1776,1.1776,1.1776,1.1776,1.1776,1.1655,1.0793,1.0429,0.9937,0.8349,0.7739,0.7495,0.6648,0.628,0.6162,0.6162,0.6039,0.5916,0.5916,0.5916,0.5916,0.5916,0.5916,0.5916,0.5916,0.5916,0.5425,0.4066,0.2216,0.0492,-0.0863,-0.2714,-0.3951,-0.3951,-0.3951,-0.3951,-0.3951,-0.3951,-0.3976,-0.403,-0.6428,-0.8039,-0.8513,-1.089,-1.2475,-1.2742,-1.316,-1.363,-1.4006,-1.4277,-1.4539,-1.4931,-1.4931,-1.4931,0.0,0.0,0.0,0.0,0.0,0.0,0.0,0.0,0.0,0.0,0.0,0.0,0.0,0.0,0.0,0.0,0.0,0.0,0.0,0.0,0.0,0.0,0.0,0.0,0.0,0.0,0.0,0.0,1.8627,1.8087,1.7994,1.6183,1.5057,1.5057,1.3619,1.2759,1.2759,1.3243,1.348,1.348,1.3965,1.4191,1.4191,1.4191,1.4191,1.4191,1.4191,1.4191,1.4083,1.3532,1.3317,1.3285,1.237,1.2116,1.2308,1.191,1.1752,1.1776,1.1776,1.1776,1.1776,1.1776,1.1776,1.1776,1.1655,1.1042,1.0308,0.9937,0.9329,0.8593,0.8471,0.7861,0.725,0.725,0.6526,0.5916,0.5916,0.5916,0.5916,0.5916,0.5916,0.5916,0.5916,0.5916,0.5425,0.4066,0.2216,0.0492,-0.0863,-0.2714,-0.3951,-0.3951,-0.3951,-0.3951,-0.3951,-0.3951,-0.3976,-0.403,-0.5605,-0.7098,-0.8388,-1.0077,-1.1732,-1.3202,-1.3358,-1.3761,-1.4268,-1.4399,-1.4539,-1.4931,-1.4931,-1.4931,2.9003,0.0,0.0,0.0,0.0,0.0,0.0,0.0,0.0,0.0,0.0,0.0,0.0,0.0,0.0,0.0,0.0,0.0,0.0,0.0,0.0,0.0,0.0,0.0,0.0,0.0,0.0,0.0,1.918,1.8719,1.8087,1.6466,1.533,1.5153,1.3619,1.2759,1.2759,1.3243,1.361,1.3879,1.4094,1.4191,1.4191,1.4191,1.4191,1.4191,1.4191,1.4191,1.4191,1.3867,1.3775,1.3669,1.2861,1.2614,1.2469,1.1952,1.1776,1.1776,1.1776,1.1776,1.1776,1.1776,1.1776,1.1776,1.1776,1.1526,1.1042,1.0429,0.9937,0.9572,0.8958,0.8105,0.7373,0.7373,0.6644,0.5916,0.5916,0.5916,0.5916,0.5916,0.5916,0.5916,0.5916,0.5916,0.5425,0.4066,0.2216,0.0492,-0.0863,-0.2714,-0.3951,-0.3951,-0.3951,-0.3951,-0.3951,-0.3978,-0.4022,-0.4082,-0.5426,-0.6936,-0.8486,-0.9871,-1.163,-1.3621,-1.3621,-1.3884,-1.4408,-1.4539,-1.48,-1.4931,-1.4931,-1.4931,0.0,0.0,0.0,0.0,0.0,0.0,0.0,0.0,0.0,0.0,0.0,0.0,0.0,0.0,0.0,0.0,0.0,0.0,0.0,0.0,0.0,0.0,0.0,0.0,0.0,0.0,0.0,0.0,1.9637,1.9088,1.8087,1.656,1.552,1.4854,1.3534,1.2759,1.2759,1.3243,1.3717,1.4191,1.4191,1.4191,1.4191,1.4191,1.4191,1.4191,1.4191,1.4191,1.4202,1.4256,1.4198,1.3973,1.3288,1.2919,1.2776,1.2088,1.1776,1.1776,1.1776,1.1776,1.1776,1.1776,1.1776,1.1776,1.1776,1.1776,1.1655,1.0914,1.0671,1.055,0.9815,0.8836,0.8105,0.7861,0.7011,0.6158,0.5916,0.5916,0.5916,0.5916,0.5916,0.5916,0.5916,0.5916,0.5425,0.4066,0.2216,0.0492,-0.0863,-0.2714,-0.3951,-0.3951,-0.3951,-0.3956,-0.397,-0.4011,-0.4068,-0.4145,-0.5102,-0.6609,-0.8568,-0.9637,-1.149,-1.3875,-1.4006,-1.4137,-1.4539,-1.48,-1.4931,-1.4931,-1.4931,-1.4931,0.0,0.0,0.0,0.0,0.0,0.0,0.0,0.0,0.0,0.0,0.0,0.0,0.0,0.0,0.0,0.0,0.0,0.0,0.0,0.0,0.0,0.0,0.0,0.0,0.0,0.0,0.0,0.0,1.982,1.9088,1.7777,1.6452,1.5235,1.4004,1.3244,1.2759,1.2759,1.3243,1.3717,1.4191,1.4191,1.4191,1.4191,1.4191,1.4191,1.4191,1.4191,1.4191,1.4213,1.4428,1.4654,1.4778,1.3732,1.3476,1.3435,1.2251,1.1776,1.1776,1.1776,1.1776,1.1776,1.1776,1.1776,1.1776,1.1776,1.1776,1.1776,1.1776,1.1776,1.1655,1.1655,1.0914,0.9937,0.8958,0.7983,0.7011,0.6162,0.5916,0.5916,0.5916,0.5916,0.5916,0.5916,0.5916,0.5425,0.4066,0.2216,0.0492,-0.0863,-0.2714,-0.3951,-0.3951,-0.3951,-0.3973,-0.4025,-0.4033,-0.4085,-0.4204,-0.4215,-0.5558,-0.8435,-0.8972,-1.069,-1.3875,-1.4268,-1.4539,-1.4931,-1.4931,-1.4931,-1.4931,-1.4931,-1.4931,0.0,0.0,0.0,0.0,0.0,0.0,0.0,0.0,0.0,0.0,0.0,0.0,0.0,0.0,0.0,0.0,0.0,0.0,0.0,0.0,0.0,0.0,0.0,0.0,0.0,0.0,0.0,0.0,0.0,1.8703,1.7777,1.6183,1.4854,1.3908,1.3147,1.291,1.3222,1.3394,1.3717,1.4191,1.4191,1.4191,1.4191,1.4191,1.4191,1.4191,1.4191,1.4191,1.4213,1.4439,1.4676,1.4788,1.4215,1.3858,1.3564,1.2724,1.213,1.1776,1.1776,1.1776,1.1776,1.1776,1.1776,1.1776,1.1776,1.1776,1.1776,1.1776,1.1776,1.1776,1.1776,1.055,0.8958,0.7378,0.6648,0.628,0.6039,0.5916,0.5916,0.5916,0.5916,0.5916,0.5916,0.5544,0.4926,0.4066,0.1847,-0.0,-0.0863,-0.2714,-0.3951,-0.3951,-0.3951,-0.3973,-0.403,-0.4071,-0.4128,-0.4213,-0.4253,-0.5612,-0.8834,-0.9099,-1.069,-1.4137,-1.4408,-1.4539,-1.4931,-1.4931,-1.4931,-1.4931,-1.4931,-1.4931,2.9263,0.0,0.0,0.0,0.0,0.0,0.0,0.0,0.0,0.0,0.0,0.0,0.0,0.0,0.0,0.0,0.0,0.0,0.0,0.0,0.0,0.0,0.0,0.0,0.0,0.0,0.0,0.0,0.0,0.0,1.7016,1.5792,1.4663,1.3619,1.305,1.2996,1.347,1.348,1.3717,1.4191,1.4191,1.4191,1.4191,1.4191,1.4191,1.4191,1.4191,1.4234,1.4331,1.4557,1.4794,1.4916,1.4559,1.4153,1.3573,1.2964,1.2371,1.1776,1.1776,1.1776,1.1776,1.1776,1.1776,1.1776,1.1776,1.1776,1.1776,1.1776,1.1776,1.1776,1.1776,1.0308,0.8471,0.7133,0.6403,0.5916,0.5916,0.5916,0.5916,0.5916,0.5916,0.5916,0.5916,0.5298,0.4681,0.3943,0.1723,-0.0246,-0.0863,-0.2714,-0.3951,-0.3951,-0.3967,-0.4003,-0.406,-0.4123,-0.4183,-0.4243,-0.4551,-0.5778,-0.844,-0.9232,-1.0955,-1.3875,-1.4268,-1.467,-1.4931,-1.4931,-1.4931,-1.4931,-1.4931,-1.4931,0.0,0.0,0.0,0.0,0.0,0.0,0.0,0.0,0.0,0.0,0.0,0.0,0.0,0.0,0.0,0.0,0.0,0.0,0.0,0.0,0.0,0.0,0.0,0.0,0.0,0.0,0.0,0.0,1.7948,1.6828,1.5494,1.5399,1.4651,1.3147,1.2964,1.3007,1.347,1.348,1.3728,1.4191,1.4191,1.4191,1.4191,1.4191,1.4191,1.4191,1.4202,1.4331,1.4568,1.4794,1.5031,1.5151,1.4785,1.4282,1.3573,1.2964,1.2363,1.1776,1.1776,1.1776,1.1776,1.1776,1.1776,1.1776,1.1776,1.1776,1.1776,1.1776,1.1776,1.1776,1.1776,1.0308,0.8836,0.8714,0.7255,0.5916,0.5916,0.5916,0.5916,0.5916,0.5916,0.5916,0.5916,0.5298,0.4681,0.3943,0.16,-0.0246,-0.0863,-0.2714,-0.3951,-0.3954,-0.4003,-0.406,-0.4123,-0.4183,-0.4243,-0.4303,-0.498,-0.6049,-0.7512,-0.9498,-1.1351,-1.2816,-1.4137,-1.4931,-1.4931,-1.4931,-1.4931,-1.4931,-1.4931,-1.4931,2.9365,0.0,0.0,0.0,0.0,0.0,0.0,2.4053,0.0,0.0,0.0,0.0,0.0,0.0,0.0,0.0,0.0,0.0,0.0,0.0,0.0,0.0,0.0,0.0,0.0,0.0,0.0,0.0,1.898,1.7855,1.6518,1.4937,1.3715,1.3147,1.3215,1.3357,1.348,1.3642,1.3879,1.4191,1.4191,1.4191,1.4191,1.4191,1.4191,1.4202,1.4374,1.4568,1.4794,1.4859,1.5031,1.5151,1.5268,1.4639,1.3684,1.3444,1.2733,1.1776,1.1776,1.1776,1.1776,1.1776,1.1776,1.1776,1.1776,1.1776,1.1776,1.1776,1.1776,1.1655,1.0914,0.9815,0.8593,0.7983,0.6766,0.5916,0.5916,0.5916,0.5916,0.5916,0.5916,0.5916,0.5916,0.493,0.4066,0.3943,0.1231,-0.0739,-0.0986,-0.2714,-0.3965,-0.4008,-0.4025,-0.4076,-0.4183,-0.4207,-0.4243,-0.4303,-0.498,-0.618,-0.7769,-0.8967,-1.069,-1.3079,-1.3473,-1.4137,-1.4931,-1.4931,-1.4931,-1.4931,-1.4931,-1.4931,2.9028,2.773,2.64,0.0,0.0,0.0,2.4219,2.4157,2.4157,0.0,0.0,0.0,0.0,0.0,0.0,0.0,0.0,0.0,0.0,0.0,0.0,0.0,0.0,0.0,0.0,1.9911,1.9637,1.9637,1.8703,1.7669,1.6532,1.4675,1.3545,1.3244,1.338,1.3523,1.348,1.3706,1.3943,1.4191,1.4191,1.4191,1.4191,1.4191,1.4191,1.4202,1.4439,1.4665,1.4891,1.4999,1.5182,1.5408,1.5548,1.4997,1.4043,1.3803,1.3093,1.213,1.1897,1.1776,1.1776,1.1776,1.1776,1.1776,1.1776,1.1776,1.1776,1.1776,1.1776,1.1534,1.055,0.9572,0.8593,0.7617,0.6644,0.5916,0.5916,0.5916,0.5916,0.5916,0.5916,0.5794,0.5544,0.4561,0.382,0.3576,0.0986,-0.0986,-0.0986,-0.2714,-0.3973,-0.4027,-0.4057,-0.4112,-0.4207,-0.424,-0.4403,-0.4708,-0.5383,-0.6447,-0.7769,-0.8972,-1.0565,-1.2684,-1.2684,-1.321,-1.4268,-1.467,-1.4931,-1.4931,-1.4931,-1.4931,2.8712,2.7221,2.5735,2.5652,0.0,0.0,2.4488,2.4467,2.4447,0.0,0.0,0.0,0.0,0.0,0.0,0.0,0.0,0.0,0.0,0.0,0.0,0.0,0.0,0.0,2.0292,1.9438,1.898,1.898,1.8041,1.7109,1.617,1.4962,1.4124,1.3676,1.3709,1.3668,1.3513,1.375,1.3976,1.4191,1.4191,1.4191,1.4191,1.4191,1.4213,1.4245,1.4471,1.4708,1.4945,1.5192,1.5408,1.5601,1.5601,1.5235,1.451,1.3923,1.3324,1.2603,1.201,1.1776,1.1776,1.1776,1.1776,1.1776,1.1776,1.1776,1.1776,1.1776,1.1776,1.1534,1.055,0.9572,0.8593,0.7617,0.6644,0.5916,0.5916,0.5916,0.5916,0.5916,0.5794,0.5544,0.5049,0.4312,0.3576,0.3083,0.074,-0.0986,-0.0986,-0.2718,-0.3981,-0.4038,-0.4098,-0.4161,-0.4221,-0.4275,-0.4711,-0.5379,-0.6049,-0.6849,-0.7512,-0.9111,-1.0571,-1.163,-1.1762,-1.2289,-1.3079,-1.4137,-1.48,-1.4931,-1.4931,-1.4941,0.0,0.0,0.0,0.0,0.0,0.0,2.4095,2.4012,2.3908,0.0,0.0,0.0,0.0,0.0,0.0,0.0,0.0,0.0,0.0,0.0,0.0,0.0,0.0,0.0,2.0292,2.011,2.0019,2.0019,1.9072,1.8411,1.8226,1.7203,1.6184,1.5083,1.5146,1.4808,1.375,1.3997,1.4148,1.4191,1.4191,1.4191,1.4191,1.4191,1.4299,1.4482,1.4719,1.4955,1.5192,1.5429,1.5558,1.5601,1.5601,1.5235,1.451,1.3923,1.3324,1.2603,1.201,1.1776,1.1776,1.1776,1.1776,1.1776,1.1776,1.1776,1.1776,1.1776,1.1776,1.1534,1.055,0.9572,0.8593,0.7617,0.6644,0.5916,0.5916,0.5916,0.5916,0.5916,0.5421,0.5049,0.4926,0.3943,0.3083,0.296,0.074,-0.0986,-0.0986,-0.2742,-0.4041,-0.4101,-0.4164,-0.4224,-0.4283,-0.4836,-0.5245,-0.5379,-0.6581,-0.7383,-0.7512,-0.8451,-0.9383,-1.0439,-1.1365,-1.1894,-1.2025,-1.3079,-1.4006,-1.4931,-1.4931,-1.5016,0.0,0.0,0.0,2.4615,0.0,0.0,0.0,2.4219,2.4136,0.0,0.0,0.0,0.0,0.0,0.0,0.0,0.0,0.0,0.0,0.0,0.0,0.0,0.0,0.0,2.0292,2.0292,2.0292,2.0292,1.9347,1.8796,1.8796,1.7591,1.67,1.6038,1.603,1.5707,1.5059,1.5329,1.5458,1.5458,1.5458,1.5458,1.5458,1.5458,1.5383,1.5198,1.5445,1.5363,1.5268,1.5505,1.5601,1.5601,1.5601,1.5353,1.4997,1.4401,1.3803,1.3084,1.2483,1.201,1.1776,1.1776,1.1776,1.1776,1.1776,1.1776,1.1776,1.1776,1.1405,1.0793,0.9815,0.8836,0.7861,0.6888,0.628,0.5916,0.5916,0.5916,0.5794,0.5421,0.4803,0.4435,0.4435,0.3576,0.2839,0.2592,0.0493,-0.0986,-0.0986,-0.2747,-0.4057,-0.412,-0.418,-0.4372,-0.4839,-0.5248,-0.5647,-0.6447,-0.7116,-0.765,-0.8051,-0.8451,-0.8851,-0.9383,-1.0439,-1.0969,-1.0969,-1.1578,-1.264,-1.4137,-1.4772,-1.5271,0.0,0.0,0.0,0.0,0.0,2.455,0.0,0.0,0.0,0.0,0.0,0.0,0.0,0.0,0.0,0.0,0.0,0.0,0.0,0.0,0.0,0.0,0.0,0.0,0.0,2.0292,2.0292,2.0292,1.9546,1.9072,1.9072,1.8039,1.7275,1.7009,1.6919,1.6711,1.6484,1.6609,1.6736,1.6736,1.6736,1.6736,1.6736,1.6736,1.6473,1.6136,1.6363,1.6069,1.5565,1.5987,1.5946,1.5601,1.5601,1.5601,1.5483,1.4867,1.4282,1.3564,1.2964,1.2251,1.1776,1.1776,1.1776,1.1776,1.1776,1.1776,1.1776,1.1776,1.1042,1.0058,0.9079,0.8105,0.7128,0.6162,0.5916,0.5916,0.5916,0.5794,0.5544,0.5049,0.4312,0.3699,0.3699,0.3207,0.2592,0.21,0.0493,-0.074,-0.0991,-0.2633,-0.3819,-0.4136,-0.4196,-0.4519,-0.5376,-0.5513,-0.6183,-0.7379,-0.765,-0.7917,-0.8584,-0.859,-0.859,-0.859,-0.9516,-0.9927,-0.9952,-1.02,-1.1404,-1.3401,-1.4654,-1.5711,0.0,0.0,0.0,0.0,2.455,0.0,0.0,0.0,0.0,0.0,0.0,0.0,0.0,0.0,0.0,0.0,0.0,0.0,0.0,0.0,0.0,0.0,0.0,0.0,0.0,2.0292,2.0292,2.0292,2.0201,2.011,2.011,2.034,1.9733,1.8302,1.8625,1.8147,1.6685,1.6711,1.6736,1.6736,1.6736,1.6736,1.6736,1.6736,1.6908,1.7401,1.7439,1.7187,1.6833,1.7677,1.7114,1.5601,1.5601,1.5601,1.5483,1.4867,1.4282,1.3564,1.2964,1.2251,1.1776,1.1776,1.1776,1.1776,1.1776,1.1776,1.1776,1.1776,1.1042,1.0058,0.9079,0.8105,0.7128,0.6162,0.5916,0.5916,0.5916,0.5421,0.5049,0.4926,0.3943,0.3083,0.3083,0.2592,0.21,0.1977,0.0987,-0.0,-0.1004,-0.2038,-0.3101,-0.4068,-0.4262,-0.4568,-0.5379,-0.5915,-0.6585,-0.7517,-0.8051,-0.8456,-0.859,-0.859,-0.859,-0.859,-0.8723,-0.8773,-0.9019,-0.998,-1.1461,-1.3746,-1.4594,-1.5739,0.0,0.0,0.0,0.0,0.0,0.0,0.0,0.0,2.4317,0.0,0.0,0.0,0.0,0.0,0.0,0.0,0.0,0.0,0.0,0.0,0.0,0.0,0.0,0.0,0.0,0.0,0.0,0.0,2.0292,2.0292,2.0292,2.0374,2.0083,1.9259,1.9299,1.9023,1.8213,1.8213,1.8213,1.8213,1.8213,1.8213,1.8213,1.8213,1.8224,1.8353,1.8353,1.8107,1.7806,1.8273,1.7572,1.6419,1.6419,1.6065,1.5601,1.5235,1.452,1.3693,1.3324,1.2612,1.1776,1.1776,1.1776,1.1776,1.1776,1.1776,1.1655,1.1042,1.0179,0.9207,0.8227,0.7255,0.6403,0.6039,0.5916,0.5794,0.5421,0.5049,0.4681,0.3943,0.333,0.2839,0.2469,0.2224,0.1977,0.1977,0.1111,0.0124,-0.1007,-0.1915,-0.298,-0.4079,-0.4669,-0.5245,-0.5915,-0.6581,-0.7383,-0.8051,-0.8451,-0.859,-0.859,-0.859,-0.859,-0.859,-0.866,-0.872,-0.8769,-0.9601,-1.0783,-1.2436,-1.4294,-1.5901,2.7162,0.0,0.0,0.0,0.0,0.0,0.0,0.0,0.0,0.0,0.0,0.0,0.0,0.0,0.0,0.0,0.0,2.0257,0.0,0.0,0.0,0.0,0.0,0.0,0.0,0.0,0.0,0.0,0.0,2.0343,2.0446,2.0432,2.0325,1.9905,1.9953,1.974,1.9272,1.9272,1.9272,1.9272,1.9272,1.9272,1.9272,1.9272,1.9305,1.9126,1.9126,1.9009,1.8739,1.9087,1.8506,1.7337,1.7337,1.6762,1.5946,1.572,1.4759,1.3693,1.3693,1.2853,1.1776,1.1776,1.1776,1.1776,1.1776,1.1776,1.1655,1.0921,0.9937,0.8958,0.7983,0.7011,0.628,0.5916,0.5794,0.5544,0.5049,0.4681,0.4066,0.3207,0.2837,0.2592,0.21,0.1977,0.1977,0.1977,0.1362,0.0374,-0.1013,-0.1799,-0.2737,-0.4102,-0.4948,-0.5647,-0.6317,-0.7116,-0.7784,-0.8584,-0.859,-0.859,-0.859,-0.859,-0.86,-0.8638,-0.8725,-0.8802,-0.8872,-0.9467,-1.0137,-1.1153,-1.4106,-1.5923,0.0,0.0,0.0,2.6052,0.0,0.0,0.0,0.0,2.4272,0.0,0.0,0.0,0.0,0.0,2.1051,1.9901,2.0052,0.0,0.0,0.0,0.0,0.0,0.0,0.0,0.0,0.0,0.0,0.0,0.0,0.0,2.084,2.1199,2.1075,2.0353,2.0617,2.0395,1.9272,1.9272,1.9272,1.9272,1.9272,1.9272,1.9272,1.9272,1.9623,2.0128,2.0128,2.0046,1.9809,2.0744,2.0026,1.8389,1.8389,1.7806,1.6879,1.5946,1.4759,1.3693,1.3693,1.2853,1.1776,1.1776,1.1776,1.1776,1.1776,1.1776,1.1776,1.1776,1.1042,1.0058,0.8958,0.8105,0.7133,0.6162,0.5421,0.4926,0.4926,0.3943,0.3083,0.296,0.2469,0.1977,0.1977,0.1977,0.1977,0.1977,0.2,0.114,-0.09,-0.1175,-0.1986,-0.4029,-0.4977,-0.5647,-0.6317,-0.7116,-0.7784,-0.8584,-0.859,-0.859,-0.859,-0.859,-0.8644,-0.8764,-0.8769,-0.8889,-0.9122,-0.9553,-1.0042,-1.0593,-1.3998,-1.6263,0.0,0.0,2.7162,2.5779,0.0,0.0,0.0,0.0,0.0,0.0,0.0,0.0,0.0,0.0,2.0692,2.0837,2.0567,2.024,0.0,0.0,0.0,0.0,0.0,0.0,0.0,0.0,0.0,0.0,0.0,0.0,0.0,2.1216,2.1092,2.0369,2.0734,2.0411,1.9272,1.9272,1.9272,1.9272,1.9272,1.9272,1.9272,1.9272,1.9623,2.0237,2.0237,2.0381,2.0744,2.1089,2.05,1.9216,1.8622,1.7806,1.6879,1.5946,1.4759,1.3573,1.2733,1.2139,1.1776,1.1776,1.1776,1.1776,1.1776,1.1776,1.1655,1.1042,1.0058,0.9079,0.8105,0.7133,0.6158,0.5418,0.5049,0.4681,0.382,0.333,0.2839,0.2469,0.2099,0.1977,0.1977,0.1977,0.1977,0.1977,0.2,0.1522,-0.0,-0.0653,-0.1854,-0.3758,-0.5242,-0.6317,-0.7116,-0.7784,-0.8318,-0.859,-0.859,-0.8622,-0.8704,-0.8709,-0.8764,-0.8889,-0.9249,-0.9473,-0.9558,-1.0215,-1.0706,-1.0894,-1.429,-1.6131,2.7683,2.7221,0.0,2.5779,2.5633,0.0,2.5884,0.0,0.0,0.0,0.0,0.0,0.0,0.0,2.1087,2.1356,2.0997,2.0564,0.0,2.0292,0.0,0.0,0.0,0.0,0.0,0.0,0.0,0.0,0.0,0.0,0.0,0.0,2.1159,2.0559,2.0798,2.0411,1.9272,1.9272,1.9272,1.9272,1.9272,1.9272,1.9272,1.9272,1.9623,2.0237,2.0237,2.0603,2.1203,2.1203,2.0859,2.0155,1.9216,1.8519,1.7818,1.6183,1.4759,1.3573,1.2251,1.1776,1.1776,1.1776,1.1776,1.1776,1.1776,1.1776,1.1655,1.1042,1.0058,0.9079,0.8105,0.7011,0.5912,0.5049,0.4558,0.3943,0.3207,0.2839,0.2469,0.21,0.1977,0.1977,0.1977,0.1977,0.1979,0.199,0.2016,0.1534,0.0389,-0.0263,-0.1731,-0.4163,-0.5781,-0.6991,-0.7784,-0.8318,-0.859,-0.859,-0.8628,-0.8687,-0.8769,-0.8812,-0.8894,-0.9154,-0.9519,-0.9865,-1.0048,-1.0712,-1.1325,-1.1893,-1.4716,-1.6452]},{"header":{"parameterUnit":"m.s-1","parameterCategory":1,"la1":30.6,"la2":29.2853,"lo1":-89.7004,"lo2":-87.6739,"dy":0.0162,"dx":0.0183,"nx":112,"ny":82,"refTime":"2024-03-06T06:00:00:Z","depth":0,"parameterNumber":3,"parameterNumberName":"V-component_of_WINDS"},"data":[0.0,0.0,0.0,0.0,0.0,0.0,0.0,0.0,0.0,0.0,0.0,0.0,0.0,0.0,0.0,0.0,0.0,0.0,0.0,0.0,0.0,0.0,0.0,0.0,0.0,0.0,0.0,0.0,0.0,0.0,0.0,0.0,0.0,0.0,0.0,0.0,0.0,0.0,0.0,0.0,0.0,0.0,0.0,0.0,0.0,0.0,0.0,0.0,0.0,0.0,0.0,0.0,0.0,0.0,0.0,0.0,0.0,0.0,0.0,0.0,0.0,0.0,0.0,0.0,0.0,0.0,0.0,0.0,0.0,0.0,0.0,0.0,0.0,0.0,0.0,0.0,0.0,0.0,0.0,0.0,0.0,0.0,0.0,0.0,0.0,0.0,0.0,0.0,0.0,0.0,0.0,-4.5919,-4.5953,-4.5997,-4.5997,-4.5997,-4.6047,-4.6176,0.0,0.0,0.0,0.0,0.0,0.0,0.0,0.0,0.0,0.0,0.0,0.0,0.0,0.0,0.0,0.0,0.0,0.0,0.0,0.0,0.0,0.0,0.0,0.0,0.0,0.0,0.0,0.0,0.0,0.0,0.0,0.0,0.0,0.0,0.0,0.0,0.0,0.0,0.0,0.0,0.0,0.0,0.0,0.0,0.0,0.0,0.0,0.0,0.0,0.0,0.0,0.0,0.0,0.0,0.0,0.0,0.0,0.0,0.0,0.0,0.0,0.0,0.0,0.0,0.0,0.0,0.0,0.0,0.0,0.0,0.0,0.0,0.0,0.0,0.0,0.0,0.0,0.0,0.0,0.0,0.0,0.0,0.0,0.0,0.0,0.0,0.0,0.0,0.0,0.0,0.0,0.0,0.0,0.0,0.0,0.0,0.0,0.0,0.0,0.0,0.0,0.0,0.0,0.0,-4.5786,-4.5964,-4.5997,-4.5997,-4.5997,-4.5997,-4.6047,-4.6176,0.0,0.0,0.0,0.0,0.0,0.0,0.0,0.0,0.0,0.0,0.0,0.0,0.0,0.0,0.0,0.0,0.0,0.0,0.0,0.0,0.0,0.0,0.0,0.0,0.0,0.0,0.0,0.0,0.0,0.0,0.0,0.0,0.0,0.0,0.0,0.0,0.0,0.0,0.0,0.0,0.0,0.0,0.0,0.0,0.0,0.0,0.0,0.0,0.0,0.0,0.0,0.0,0.0,0.0,0.0,0.0,0.0,0.0,0.0,0.0,0.0,0.0,0.0,0.0,0.0,0.0,0.0,0.0,0.0,0.0,0.0,0.0,0.0,0.0,0.0,0.0,0.0,0.0,0.0,0.0,0.0,0.0,0.0,0.0,0.0,0.0,0.0,0.0,0.0,0.0,0.0,0.0,0.0,0.0,0.0,0.0,0.0,0.0,0.0,0.0,0.0,0.0,0.0,-4.5841,-4.5905,-4.5997,-4.5997,-4.5997,-4.5997,-4.5997,-4.6047,-4.6176,-4.6215,0.0,0.0,0.0,0.0,0.0,0.0,0.0,0.0,0.0,0.0,0.0,0.0,0.0,0.0,0.0,0.0,0.0,0.0,0.0,0.0,0.0,0.0,0.0,0.0,0.0,0.0,0.0,0.0,0.0,0.0,0.0,0.0,0.0,0.0,0.0,0.0,0.0,0.0,0.0,0.0,0.0,0.0,0.0,0.0,0.0,0.0,0.0,0.0,0.0,0.0,0.0,0.0,0.0,0.0,0.0,0.0,0.0,0.0,0.0,0.0,0.0,0.0,0.0,0.0,0.0,0.0,0.0,0.0,0.0,0.0,0.0,0.0,0.0,0.0,0.0,0.0,0.0,0.0,0.0,0.0,0.0,0.0,0.0,0.0,0.0,0.0,0.0,0.0,0.0,0.0,0.0,0.0,0.0,0.0,0.0,0.0,0.0,0.0,0.0,0.0,0.0,0.0,-4.5941,-4.5997,-4.5997,-4.5997,-4.5997,-4.5997,-4.6007,-4.6056,-4.6176,-4.6378,0.0,0.0,0.0,0.0,0.0,0.0,0.0,0.0,0.0,0.0,0.0,0.0,0.0,0.0,0.0,0.0,0.0,0.0,0.0,0.0,0.0,0.0,0.0,0.0,0.0,0.0,0.0,0.0,0.0,0.0,0.0,0.0,0.0,0.0,0.0,0.0,0.0,0.0,0.0,0.0,0.0,0.0,0.0,0.0,0.0,0.0,0.0,0.0,0.0,0.0,0.0,0.0,0.0,0.0,0.0,0.0,0.0,0.0,0.0,0.0,0.0,0.0,0.0,0.0,0.0,0.0,0.0,0.0,0.0,0.0,0.0,0.0,0.0,0.0,0.0,0.0,0.0,0.0,0.0,0.0,0.0,0.0,0.0,0.0,0.0,0.0,0.0,0.0,0.0,0.0,0.0,0.0,0.0,0.0,0.0,0.0,0.0,0.0,0.0,0.0,0.0,0.0,-4.5941,-4.5997,-4.5997,-4.5997,-4.5997,-4.5997,-4.6047,-4.613,-4.6215,-4.695,0.0,0.0,0.0,0.0,0.0,0.0,0.0,0.0,0.0,0.0,0.0,0.0,0.0,0.0,0.0,0.0,0.0,0.0,0.0,0.0,0.0,0.0,0.0,0.0,0.0,0.0,0.0,0.0,0.0,0.0,0.0,0.0,0.0,0.0,0.0,0.0,0.0,0.0,0.0,0.0,0.0,0.0,0.0,0.0,0.0,0.0,0.0,0.0,0.0,0.0,0.0,0.0,0.0,0.0,0.0,0.0,0.0,0.0,0.0,0.0,0.0,0.0,0.0,0.0,0.0,0.0,0.0,0.0,0.0,0.0,0.0,0.0,0.0,0.0,0.0,0.0,0.0,0.0,0.0,0.0,0.0,0.0,0.0,0.0,0.0,0.0,0.0,0.0,0.0,0.0,0.0,0.0,0.0,0.0,0.0,0.0,0.0,0.0,0.0,0.0,0.0,0.0,-4.5941,-4.5997,0.0,-4.5997,-4.623,-4.6773,-4.6833,-4.7115,-4.7735,0.0,0.0,0.0,0.0,0.0,0.0,0.0,0.0,0.0,0.0,0.0,0.0,0.0,0.0,0.0,0.0,0.0,0.0,0.0,0.0,0.0,0.0,0.0,0.0,0.0,0.0,0.0,0.0,0.0,0.0,0.0,0.0,0.0,0.0,0.0,0.0,0.0,0.0,0.0,0.0,0.0,0.0,0.0,0.0,0.0,0.0,0.0,0.0,0.0,0.0,0.0,0.0,0.0,0.0,0.0,0.0,0.0,0.0,0.0,0.0,0.0,0.0,0.0,0.0,0.0,0.0,0.0,0.0,0.0,0.0,0.0,0.0,0.0,0.0,0.0,0.0,0.0,0.0,0.0,0.0,0.0,0.0,0.0,0.0,0.0,0.0,0.0,0.0,0.0,0.0,0.0,0.0,0.0,0.0,0.0,0.0,0.0,0.0,0.0,0.0,0.0,0.0,-4.5944,-4.5964,-4.6113,0.0,-4.6424,-4.6784,-4.765,-4.7748,-4.8029,-4.8684,0.0,0.0,0.0,0.0,0.0,0.0,0.0,0.0,0.0,0.0,0.0,0.0,0.0,0.0,0.0,0.0,0.0,0.0,0.0,0.0,0.0,0.0,0.0,0.0,0.0,0.0,0.0,0.0,0.0,0.0,0.0,0.0,0.0,0.0,0.0,0.0,0.0,0.0,0.0,0.0,0.0,0.0,0.0,0.0,0.0,0.0,0.0,0.0,0.0,0.0,0.0,0.0,0.0,0.0,0.0,0.0,0.0,0.0,0.0,0.0,0.0,0.0,0.0,0.0,0.0,0.0,0.0,0.0,0.0,0.0,0.0,0.0,0.0,0.0,0.0,0.0,0.0,0.0,0.0,0.0,0.0,0.0,0.0,0.0,0.0,0.0,0.0,0.0,0.0,0.0,0.0,0.0,0.0,0.0,0.0,0.0,0.0,0.0,0.0,0.0,0.0,0.0,-4.5997,-4.5997,-4.6346,-4.724,-4.7317,-4.7688,-4.8642,-4.8725,-4.8762,0.0,0.0,0.0,0.0,0.0,0.0,0.0,0.0,0.0,0.0,0.0,0.0,0.0,0.0,0.0,0.0,0.0,0.0,0.0,0.0,0.0,0.0,0.0,0.0,0.0,0.0,0.0,0.0,0.0,0.0,0.0,0.0,0.0,0.0,0.0,0.0,0.0,0.0,0.0,0.0,0.0,0.0,0.0,0.0,0.0,0.0,0.0,0.0,0.0,0.0,0.0,0.0,0.0,0.0,0.0,0.0,0.0,0.0,0.0,0.0,0.0,0.0,0.0,0.0,0.0,0.0,0.0,0.0,0.0,0.0,0.0,0.0,0.0,0.0,0.0,0.0,0.0,0.0,0.0,0.0,0.0,0.0,0.0,0.0,0.0,0.0,0.0,0.0,0.0,0.0,0.0,0.0,0.0,0.0,0.0,0.0,0.0,0.0,0.0,0.0,0.0,0.0,0.0,-4.6851,-4.6929,-4.724,-4.8133,-4.8253,-4.8633,-4.9459,-4.9582,-4.9893,-5.0595,0.0,0.0,0.0,0.0,0.0,0.0,0.0,0.0,0.0,0.0,0.0,0.0,0.0,0.0,0.0,0.0,0.0,0.0,0.0,0.0,0.0,0.0,0.0,0.0,0.0,0.0,0.0,0.0,0.0,0.0,0.0,0.0,0.0,0.0,0.0,0.0,0.0,0.0,0.0,0.0,0.0,0.0,0.0,0.0,0.0,0.0,0.0,0.0,0.0,0.0,0.0,0.0,0.0,0.0,0.0,0.0,0.0,0.0,0.0,0.0,0.0,0.0,0.0,0.0,0.0,0.0,0.0,0.0,0.0,0.0,0.0,0.0,0.0,0.0,0.0,0.0,0.0,0.0,0.0,0.0,0.0,0.0,0.0,0.0,0.0,0.0,0.0,0.0,0.0,0.0,0.0,0.0,0.0,0.0,0.0,0.0,0.0,0.0,0.0,0.0,0.0,0.0,-4.724,-4.7589,-4.8155,-4.9012,-4.9166,-4.952,-5.0387,-5.0489,-5.0781,-5.1349,0.0,0.0,0.0,0.0,0.0,0.0,0.0,0.0,0.0,0.0,0.0,0.0,0.0,0.0,0.0,0.0,0.0,0.0,0.0,0.0,0.0,0.0,0.0,0.0,0.0,0.0,0.0,0.0,0.0,0.0,0.0,0.0,0.0,0.0,0.0,0.0,0.0,0.0,0.0,0.0,0.0,0.0,0.0,0.0,0.0,0.0,0.0,0.0,0.0,0.0,0.0,0.0,0.0,0.0,0.0,0.0,0.0,0.0,0.0,0.0,0.0,0.0,0.0,0.0,0.0,0.0,0.0,0.0,0.0,0.0,0.0,0.0,0.0,0.0,0.0,0.0,0.0,0.0,0.0,0.0,0.0,0.0,0.0,0.0,0.0,0.0,0.0,0.0,0.0,0.0,0.0,0.0,0.0,0.0,0.0,0.0,0.0,0.0,0.0,0.0,0.0,0.0,-4.7522,-4.8233,-4.9051,-4.9925,-5.0017,-5.0371,-5.1247,-5.1327,-5.1328,-5.1398,0.0,0.0,0.0,0.0,0.0,0.0,0.0,0.0,0.0,0.0,0.0,0.0,0.0,0.0,0.0,0.0,0.0,0.0,0.0,0.0,0.0,0.0,0.0,0.0,0.0,0.0,0.0,0.0,0.0,0.0,0.0,0.0,0.0,0.0,0.0,0.0,0.0,0.0,0.0,0.0,0.0,0.0,0.0,0.0,0.0,0.0,0.0,0.0,0.0,0.0,0.0,0.0,0.0,0.0,0.0,0.0,0.0,0.0,0.0,0.0,-4.2382,0.0,0.0,0.0,0.0,0.0,0.0,0.0,0.0,0.0,0.0,0.0,0.0,0.0,0.0,0.0,0.0,0.0,0.0,0.0,0.0,0.0,0.0,0.0,0.0,0.0,0.0,0.0,0.0,0.0,0.0,0.0,0.0,0.0,0.0,0.0,0.0,0.0,0.0,0.0,0.0,0.0,-4.9262,-4.9504,-4.9971,-5.0902,-5.0998,-5.1088,-5.1289,-5.1366,-5.1363,-5.1398,-5.1398,0.0,0.0,0.0,0.0,0.0,0.0,0.0,0.0,0.0,0.0,0.0,0.0,0.0,0.0,0.0,0.0,0.0,0.0,0.0,0.0,0.0,0.0,0.0,0.0,0.0,0.0,0.0,0.0,0.0,0.0,0.0,0.0,0.0,0.0,0.0,0.0,0.0,0.0,0.0,0.0,0.0,0.0,0.0,0.0,0.0,0.0,0.0,0.0,0.0,0.0,0.0,0.0,0.0,0.0,0.0,0.0,0.0,0.0,0.0,0.0,-4.2734,0.0,0.0,0.0,0.0,0.0,0.0,0.0,0.0,0.0,0.0,0.0,0.0,0.0,0.0,0.0,0.0,0.0,0.0,0.0,0.0,0.0,0.0,0.0,0.0,0.0,0.0,0.0,0.0,0.0,0.0,0.0,0.0,0.0,0.0,0.0,0.0,0.0,0.0,0.0,0.0,-4.9831,-5.027,-5.0746,-5.1245,-5.1289,-5.1286,-5.1307,-5.1336,-5.1367,-5.1357,-5.1357,0.0,0.0,0.0,0.0,0.0,0.0,0.0,0.0,0.0,0.0,0.0,0.0,0.0,0.0,0.0,0.0,0.0,0.0,0.0,0.0,0.0,0.0,0.0,0.0,0.0,0.0,0.0,0.0,0.0,0.0,0.0,0.0,0.0,0.0,0.0,0.0,0.0,0.0,0.0,0.0,0.0,0.0,0.0,0.0,0.0,0.0,0.0,0.0,0.0,0.0,0.0,0.0,0.0,-4.2885,-4.2922,-4.2922,-4.2996,-4.3212,-4.3526,-4.3212,-4.3248,-4.3526,-4.3177,0.0,0.0,0.0,0.0,0.0,0.0,0.0,0.0,0.0,0.0,0.0,0.0,0.0,0.0,0.0,0.0,0.0,0.0,0.0,0.0,0.0,0.0,0.0,0.0,-4.5757,-4.5757,0.0,0.0,0.0,0.0,0.0,0.0,0.0,0.0,0.0,0.0,0.0,0.0,-5.0147,-5.0828,-5.1325,-5.1324,-5.1318,-5.1297,-5.1317,-5.131,-5.1303,-5.1281,-5.132,-5.1303,0.0,0.0,0.0,0.0,0.0,0.0,0.0,0.0,0.0,0.0,0.0,0.0,0.0,0.0,0.0,0.0,0.0,0.0,0.0,0.0,0.0,0.0,0.0,0.0,0.0,0.0,0.0,0.0,0.0,0.0,0.0,0.0,-3.9315,-3.9439,0.0,0.0,0.0,0.0,0.0,0.0,0.0,0.0,0.0,0.0,0.0,0.0,0.0,-4.2216,-4.2216,-4.2619,-4.281,-4.281,-4.3141,-4.3318,-4.3318,-4.3795,-4.4023,-4.4085,-4.4116,0.0,-4.4085,-4.4116,0.0,0.0,0.0,0.0,0.0,0.0,0.0,0.0,0.0,0.0,0.0,0.0,0.0,0.0,0.0,0.0,0.0,0.0,0.0,0.0,0.0,0.0,-4.5718,-4.5891,-4.5964,-4.5964,0.0,-4.5905,-4.6073,-4.6784,-4.7132,0.0,0.0,0.0,0.0,0.0,0.0,0.0,-5.1205,-5.1327,-5.1404,-5.1396,-5.1386,-5.1369,-5.1289,-5.1281,-5.1281,-5.132,-5.132,-5.1281,-5.1289,-5.1281,0.0,0.0,0.0,0.0,0.0,0.0,0.0,0.0,0.0,0.0,0.0,0.0,0.0,0.0,0.0,0.0,0.0,0.0,0.0,0.0,0.0,0.0,0.0,0.0,0.0,0.0,0.0,0.0,0.0,-3.9156,-3.9629,-4.0319,-4.0514,-4.0659,0.0,0.0,0.0,0.0,0.0,0.0,0.0,0.0,0.0,-4.1924,-4.2302,-4.2657,-4.2885,-4.3283,-4.3526,-4.3594,-4.3763,-4.386,-4.3923,-4.4147,-4.4274,-4.4274,-4.4325,-4.4325,-4.4296,-4.4296,-4.4304,-4.4304,0.0,0.0,0.0,0.0,-4.4411,-4.444,-4.4468,-4.4496,0.0,-4.4648,0.0,0.0,0.0,0.0,0.0,0.0,0.0,0.0,0.0,0.0,-4.5893,-4.5986,-4.5997,-4.6113,-4.6618,-4.6701,-4.6795,0.0,-4.8072,-4.8871,-4.926,0.0,0.0,0.0,0.0,-5.1313,-5.1406,-5.1398,-5.1414,-5.1419,-5.1356,-5.1335,-5.1281,-5.132,-5.132,-5.132,-5.132,-5.132,-5.132,-5.132,-5.132,0.0,0.0,0.0,0.0,0.0,0.0,0.0,0.0,0.0,0.0,0.0,0.0,0.0,0.0,0.0,0.0,0.0,0.0,0.0,0.0,0.0,0.0,0.0,0.0,0.0,0.0,0.0,0.0,-3.9577,-4.022,-4.1059,-4.1335,-4.1471,0.0,0.0,0.0,0.0,0.0,0.0,-4.1604,-4.1692,-4.1917,-4.2216,-4.2734,-4.3105,-4.3422,-4.386,-4.4116,-4.4214,-4.4214,-4.4244,-4.4304,-4.4333,-4.4333,-4.4325,-4.4383,-4.4411,-4.4411,-4.4354,-4.4325,-4.4325,-4.4325,-4.4354,-4.4411,-4.4411,-4.4496,-4.4605,-4.4605,-4.4621,-4.47,-4.4825,0.0,-4.4919,-4.5159,0.0,0.0,0.0,0.0,-4.5688,-4.5747,-4.5893,-4.6014,-4.5997,-4.6152,-4.6502,-4.7162,-4.7667,-4.7978,0.0,-4.901,-4.9964,-5.0197,0.0,0.0,0.0,0.0,-5.1367,-5.1403,-5.1414,-5.1375,-5.1369,-5.1342,-5.1289,-5.1281,-5.132,-5.132,-5.132,-5.132,-5.132,-5.132,-5.132,-5.132,-5.132,0.0,0.0,0.0,0.0,0.0,0.0,0.0,0.0,0.0,0.0,0.0,0.0,0.0,0.0,0.0,0.0,0.0,0.0,0.0,0.0,0.0,0.0,0.0,0.0,0.0,0.0,0.0,0.0,0.0,-4.138,-4.1515,0.0,0.0,0.0,0.0,-4.1604,-4.1604,-4.1604,-4.1604,-4.1966,-4.2175,-4.2216,-4.3032,-4.3453,-4.3487,-4.4017,-4.4304,-4.4266,-4.4266,-4.4304,-4.4296,-4.4354,-4.4383,-4.4383,-4.4468,-4.4468,-4.4468,-4.4468,-4.4468,-4.4468,-4.4468,-4.4468,-4.4468,-4.4468,-4.4621,-4.4776,-4.4776,-4.4943,-4.518,-4.518,-4.518,-4.518,-4.5201,-4.5342,0.0,0.0,-4.5718,-4.5905,-4.598,-4.5975,-4.5997,-4.5997,-4.6618,-4.724,-4.7279,-4.8599,-4.9765,0.0,-4.9849,-5.0143,-5.1,0.0,-5.1307,-5.1366,-5.1328,-5.132,-5.141,-5.1386,-5.1369,-5.1317,-5.131,-5.1303,-5.1281,-5.132,-5.132,-5.132,-5.132,-5.132,-5.132,-5.132,-5.132,-5.132,-5.132,0.0,0.0,0.0,0.0,0.0,0.0,0.0,0.0,0.0,0.0,0.0,0.0,0.0,0.0,0.0,0.0,0.0,0.0,0.0,0.0,0.0,0.0,0.0,0.0,0.0,0.0,0.0,0.0,-4.138,-4.1515,0.0,-4.1604,-4.1604,-4.1604,-4.1604,-4.1604,-4.1744,-4.2015,-4.218,-4.2544,-4.3177,-4.3456,-4.3758,-4.4017,-4.4207,-4.4296,-4.4354,-4.4354,-4.4383,-4.4411,-4.444,-4.444,-4.4468,-4.4468,-4.4496,-4.4496,-4.4496,-4.4496,-4.4496,-4.4496,-4.4496,-4.4496,-4.4648,-4.4739,-4.4825,-4.4988,-4.5137,-4.5222,-4.5362,-4.5491,-4.5594,-4.5594,-4.5658,-4.5771,-4.58,-4.588,-4.5991,-4.5975,-4.5997,-4.6152,-4.6696,-4.7084,-4.7628,-4.8716,-4.9479,-5.0071,-5.0607,-5.075,-5.0867,-5.1185,-5.1307,-5.1365,-5.1406,-5.1398,-5.1379,-5.141,-5.1341,-5.1323,-5.1369,-5.1349,-5.1289,-5.1281,-5.132,-5.132,-5.132,-5.132,-5.132,-5.132,-5.132,-5.1554,-5.2138,-5.2138,-5.2567,0.0,0.0,0.0,0.0,0.0,0.0,0.0,0.0,0.0,0.0,0.0,0.0,0.0,0.0,0.0,0.0,0.0,0.0,0.0,0.0,0.0,0.0,0.0,0.0,0.0,0.0,-4.099,-4.138,-4.1515,-4.1604,-4.1604,-4.1604,-4.1604,-4.1604,-4.1736,-4.1966,-4.2266,-4.2582,-4.3032,-4.3693,-4.3855,-4.4079,-4.4325,-4.4362,-4.4383,-4.444,-4.444,-4.444,-4.4496,-4.4496,-4.4496,-4.4496,-4.4496,-4.4496,-4.4496,-4.4496,-4.4496,-4.4496,-4.4496,-4.4551,-4.4621,-4.4764,-4.4896,-4.5077,-4.5304,-4.5419,-4.5399,-4.556,-4.5688,-4.5814,-4.5814,-4.5841,-4.5906,-4.5917,-4.598,-4.6003,-4.5997,-4.623,-4.6579,-4.7162,-4.7738,-4.8506,-4.9635,-5.0135,-5.055,-5.1152,-5.1274,-5.1284,-5.131,-5.1367,-5.1403,-5.1403,-5.1382,-5.1391,-5.1401,-5.133,-5.1303,-5.1356,-5.1335,-5.132,-5.132,-5.132,-5.132,-5.132,-5.132,-5.132,-5.132,-5.132,-5.1554,-5.2138,-5.2723,-5.3463,-5.4359,0.0,0.0,0.0,0.0,0.0,0.0,0.0,0.0,0.0,0.0,0.0,0.0,0.0,0.0,0.0,0.0,0.0,0.0,0.0,0.0,0.0,0.0,0.0,-4.0514,-4.1024,-4.1426,-4.1426,-4.1515,-4.1604,-4.1604,-4.1604,-4.1604,-4.1604,-4.1966,-4.2221,-4.2306,-4.3105,-4.359,-4.3726,-4.417,-4.4411,-4.4411,-4.4468,-4.4496,-4.4496,-4.4496,-4.4496,-4.4496,-4.4496,-4.4496,-4.4496,-4.4496,-4.4496,-4.4496,-4.4496,-4.4496,-4.4496,-4.4496,-4.4648,-4.48,-4.4825,-4.512,-4.5543,-4.5718,-4.58,-4.58,-4.58,-4.58,-4.5814,-4.5893,-4.5906,-4.5919,-4.598,-4.5991,-4.6003,-4.6035,-4.6657,-4.7317,-4.7356,-4.869,-4.9925,-4.9917,-5.0678,-5.131,-5.1406,-5.1406,-5.1406,-5.1406,-5.1396,-5.1414,-5.1414,-5.1391,0.0,-5.1414,-5.1342,-5.132,-5.1281,-5.1281,-5.132,-5.132,-5.132,-5.132,-5.132,-5.132,-5.1359,-5.1359,-5.1359,-5.1398,-5.1437,-5.3112,-5.4398,-5.5256,0.0,0.0,0.0,0.0,0.0,0.0,0.0,0.0,0.0,0.0,0.0,0.0,0.0,0.0,0.0,0.0,0.0,0.0,0.0,0.0,0.0,0.0,-4.1335,-4.1163,-4.138,-4.156,-4.156,-4.156,-4.1604,-4.1604,-4.1604,-4.1604,-4.1604,-4.1966,-4.2382,-4.2848,-4.3387,-4.3855,-4.4258,-4.4411,-4.4468,-4.4468,-4.4468,-4.4496,-4.4496,-4.4496,-4.4496,-4.4496,-4.4496,-4.4496,-4.4496,-4.4496,-4.4496,-4.4496,-4.4496,-4.4568,-4.4714,-4.4714,-4.4764,-4.4849,-4.5184,-4.547,-4.5742,-4.5786,-4.58,-4.58,-4.58,-4.5827,-4.588,-4.5893,-4.5932,-4.598,-4.5991,-4.6014,-4.6141,-4.6773,-4.7123,-4.7628,-4.8871,-4.9547,-5.008,-5.0696,-5.1137,-5.1365,-5.1406,-5.1402,-5.1389,-5.1389,-5.1382,-5.141,-5.1406,-5.1386,0.0,-5.1414,-5.1342,-5.1289,-5.1303,-5.1289,-5.132,-5.132,-5.132,-5.132,-5.132,-5.1904,-5.2255,-5.2255,-5.284,-5.3463,-5.4126,-5.5217,-5.5879,0.0,0.0,0.0,0.0,0.0,0.0,0.0,0.0,0.0,0.0,0.0,0.0,0.0,0.0,0.0,0.0,0.0,0.0,0.0,0.0,0.0,0.0,-4.1163,-4.1471,-4.1471,-4.156,-4.1604,-4.1604,-4.1604,-4.1604,-4.1604,-4.1604,-4.1692,-4.1831,-4.2257,-4.2734,-4.3318,-4.3726,-4.4109,-4.4468,-4.4496,-4.4496,-4.4496,-4.4496,-4.4496,-4.4496,-4.4496,-4.4496,-4.4496,-4.4496,-4.4496,0.0,-4.4568,-4.4621,-4.4648,-4.4751,-4.4862,0.0,0.0,0.0,0.0,0.0,-4.5688,-4.58,-4.58,-4.58,-4.5814,-4.5827,-4.588,-4.5906,-4.5932,-4.5968,-4.6003,-4.6014,-4.5986,-4.6191,-4.7084,-4.7589,-4.8172,-4.9571,-5.0196,-5.0628,-5.1135,-5.132,-5.14,-5.14,-5.1389,0.0,-5.1414,-5.1414,-5.141,-5.1401,-5.1386,-5.1375,-5.1369,-5.1303,-5.1289,-5.1296,-5.1289,-5.132,-5.132,-5.1632,0.0,0.0,0.0,-5.3151,-5.3151,-5.3619,0.0,0.0,0.0,-5.6152,-5.6503,0.0,0.0,0.0,-5.5916,-5.5792,0.0,0.0,0.0,0.0,0.0,0.0,0.0,0.0,0.0,0.0,0.0,0.0,0.0,0.0,0.0,0.0,-4.1426,-4.1604,-4.1604,-4.1604,-4.1604,-4.1604,-4.1604,-4.1604,-4.1604,-4.1604,-4.1744,-4.2175,-4.258,-4.3069,-4.3693,0.0,0.0,0.0,0.0,-4.4496,-4.4496,-4.4496,-4.4496,-4.4496,-4.4496,-4.4496,-4.4496,-4.4496,-4.4496,-4.4496,-4.4688,-4.4776,-4.48,-4.5071,-4.5201,-4.5222,-4.4966,-4.5163,-4.556,-4.5718,-4.58,-4.58,-4.58,0.0,0.0,-4.5893,-4.5906,-4.5919,-4.598,-4.6003,-4.6003,-4.5997,-4.6074,-4.6346,-4.724,-4.8094,-4.8949,-4.9843,-5.0696,-5.1288,-5.1297,-5.1367,-5.1418,-5.1414,-5.1414,-5.1414,-5.1414,-5.1414,-5.141,-5.1396,-5.138,-5.1369,-5.131,-5.1296,-5.132,-5.132,0.0,0.0,-5.1437,-5.2255,-5.2762,-5.2762,-5.358,-5.4087,-5.4203,-5.4203,-5.4554,-5.5333,-5.5333,-5.5723,-5.6503,-5.6314,-5.6093,-5.5896,-5.6063,-5.593,0.0,0.0,0.0,0.0,0.0,0.0,0.0,0.0,0.0,0.0,0.0,0.0,0.0,0.0,0.0,-4.1209,-4.1426,-4.1604,-4.1604,-4.1604,-4.1604,-4.1604,-4.1604,-4.1604,-4.1604,-4.1604,-4.1744,-4.2175,-4.258,-4.3069,-4.3693,-4.4079,-4.4354,-4.4496,-4.4496,-4.4496,-4.4496,-4.4496,-4.4496,-4.4496,0.0,0.0,-4.4496,-4.4496,-4.4496,-4.4496,-4.4551,-4.4674,-4.48,-4.4849,-4.5099,-4.5455,-4.538,-4.5505,-4.5771,-4.58,-4.58,-4.58,-4.58,-4.58,-4.5814,-4.5893,-4.5919,-4.5905,-4.598,-4.6014,0.0,-4.5997,-4.6502,-4.724,-4.8133,-4.8988,-4.9881,-5.0736,-5.1074,-5.1239,-5.1288,-5.1363,-5.1402,-5.1382,-5.1414,-5.1414,-5.1414,-5.1406,-5.1396,-5.138,-5.1369,-5.131,-5.1289,-5.1281,-5.132,-5.132,-5.1943,-5.2333,-5.2333,-5.3151,-5.3658,-5.3658,-5.4476,-5.5256,-5.5957,-5.5996,-5.6074,-5.623,-5.623,-5.6347,-5.6503,-5.6314,-5.6093,-5.5896,-5.5769,-5.5605,0.0,0.0,0.0,0.0,0.0,0.0,0.0,0.0,0.0,0.0,0.0,-4.0645,-4.0918,0.0,-4.13,-4.13,-4.1471,-4.1604,-4.1604,-4.1604,-4.1604,-4.1604,-4.1604,-4.1604,-4.1604,-4.1604,-4.1874,-4.2462,-4.2696,-4.3141,-4.3955,-4.4207,-4.4354,-4.4496,-4.4496,-4.4496,-4.4496,-4.4496,-4.4496,-4.4496,-4.4496,-4.4496,-4.4496,-4.4496,-4.4496,-4.4496,-4.4751,-4.491,-4.5011,-4.5245,-4.5435,-4.5642,-4.5642,-4.5703,-4.58,-4.58,-4.58,-4.58,-4.58,-4.58,-4.5814,-4.5867,-4.5893,-4.5917,-4.5964,-4.5986,-4.6074,-4.654,-4.6968,-4.7589,-4.891,-4.9571,-5.0114,-5.1008,-5.1211,-5.1225,-5.1288,-5.1359,-5.1405,-5.1382,-5.1765,-5.2038,-5.2038,-5.2377,-5.2361,-5.1531,-5.1323,-5.1459,-5.1904,-5.1943,-5.2138,-5.2567,-5.2995,-5.3268,-5.3268,-5.4048,-5.4749,-5.5178,-5.5606,-5.6035,-5.6464,-5.6503,-5.6503,-5.6503,-5.6503,-5.6503,-5.6503,-5.6214,-5.6017,-5.5879,-5.5605,-5.5451,0.0,0.0,0.0,0.0,0.0,0.0,0.0,0.0,-4.0319,-4.0823,-4.1,-4.1093,-4.1093,-4.1244,-4.138,-4.138,-4.1515,-4.1604,-4.1604,-4.1604,-4.1604,-4.1604,-4.1604,-4.1648,-4.1736,-4.1736,-4.205,-4.2847,-4.2922,-4.3318,-4.4237,-4.4304,-4.4354,-4.4496,-4.4496,-4.4496,-4.4496,-4.4496,-4.4496,-4.4496,-4.4496,-4.4496,-4.4496,-4.4496,-4.4496,-4.4524,-4.5004,-4.5222,-4.5303,-4.5642,-4.58,-4.58,-4.58,-4.58,-4.58,-4.58,-4.5814,-4.5814,-4.5814,-4.5814,-4.5841,-4.5905,-4.6034,-4.6162,-4.6258,-4.6385,-4.6657,-4.7356,-4.7667,-4.8133,-4.9532,-5.0037,-5.0309,-5.1047,-5.119,-5.1203,-5.1269,-5.1469,-5.1641,-5.1626,-5.2358,-5.2936,-5.2936,-5.3504,-5.3448,-5.2122,-5.1869,-5.2044,-5.277,-5.2684,-5.2918,-5.3814,-5.3892,-5.4048,-5.4398,-5.5061,-5.5762,-5.6464,-5.6503,-5.6503,-5.6503,-5.6503,-5.6503,-5.6503,-5.6503,-5.6494,-5.6437,-5.6078,-5.5879,-5.5825,-5.5547,-5.5403,-3.7465,-3.7743,-3.8488,-3.9007,-3.9506,-4.007,0.0,0.0,-4.0823,-4.0871,-4.1,-4.1093,-4.1093,-4.1244,-4.138,-4.138,-4.1515,-4.1604,-4.1604,-4.1604,-4.1604,-4.1604,-4.1604,-4.1744,-4.2092,-4.2133,-4.2462,-4.3283,-4.3318,-4.3627,-4.4274,-4.4304,-4.4354,-4.4496,-4.4496,-4.4496,-4.4496,-4.4496,-4.4496,-4.4496,-4.4496,-4.4496,-4.4496,-4.4496,-4.4496,-4.4524,-4.5004,-4.5323,-4.5491,-4.5688,-4.58,-4.58,-4.58,-4.58,-4.58,-4.58,-4.5827,-4.5893,-4.5893,-4.5867,-4.5905,-4.598,-4.6496,-4.7156,-4.7151,-4.7706,-4.8327,-4.8444,-4.9027,-4.9648,-4.9843,-5.0464,-5.1086,-5.1163,-5.1214,-5.1219,-5.1195,-5.1859,-5.2487,-5.2461,-5.3229,-5.3834,-5.3834,-5.3943,-5.3933,-5.3738,-5.3657,-5.3627,-5.372,-5.3081,-5.2918,-5.3814,-5.3892,-5.4515,-5.6074,-5.6308,-5.6386,-5.6503,-5.6503,-5.6503,-5.6503,-5.6503,-5.6503,-5.6503,-5.6503,-5.6427,-5.6239,-5.6033,-5.5807,-5.5609,-5.5451,-5.5403,-4.0055,-4.0057,-4.0034,0.0,-4.0508,-4.0612,-4.0421,-4.0368,-4.05,-4.0823,-4.1,-4.1093,-4.1152,-4.129,-4.1426,0.0,-4.156,-4.1604,-4.1604,-4.1604,-4.1604,-4.1604,-4.1604,-4.1692,-4.1831,-4.205,-4.2422,-4.2996,-4.3248,-4.366,-4.4266,-4.4304,-4.4354,-4.4496,-4.4496,-4.4496,-4.4496,-4.4496,-4.4496,-4.4496,-4.4496,-4.4496,-4.4496,-4.4496,-4.4541,-4.4688,-4.5049,-4.5323,-4.5526,-4.5703,-4.58,-4.58,-4.58,-4.5814,-4.5841,-4.5814,-4.5827,-4.5893,-4.5893,-4.588,-4.5995,-4.6562,-4.7,-4.7389,-4.7889,-4.8327,-4.8716,-4.9221,-4.9609,-4.9998,-5.0503,-5.093,-5.1202,-5.1202,-5.1202,-5.1197,-5.1178,-5.1505,-5.1826,-5.1874,-5.2615,-5.3193,-5.3253,-5.3669,-5.4016,-5.3982,-5.3943,-5.4071,-5.4585,-5.4329,-5.4437,-5.5333,-5.5411,-5.5723,-5.6425,-5.6503,-5.6503,-5.6503,-5.6503,-5.6503,-5.6503,-5.6503,-5.6437,-5.6336,-5.6336,-5.6239,-5.5994,-5.5825,-5.5941,-5.6335,-5.6179,-5.6358,-4.1351,-4.1399,-4.1283,-4.1441,-4.146,-4.1291,-4.0712,-4.0406,-4.0368,-4.0823,-4.1,-4.114,-4.1163,-4.13,-4.1426,-4.156,-4.1604,-4.1604,-4.1604,-4.1604,-4.1604,-4.1604,-4.1604,-4.1648,-4.1744,-4.2133,-4.2541,-4.2959,-4.3318,-4.3758,-4.4266,-4.4304,-4.4354,-4.4496,-4.4496,-4.4496,-4.4496,-4.4496,-4.4496,-4.4496,-4.4496,-4.4496,-4.4496,-4.4496,-4.4621,-4.48,-4.4988,-4.5204,-4.5455,-4.5626,-4.5703,-4.5703,-4.5786,-4.5827,-4.5893,-4.5866,-4.5893,-4.5932,-4.5932,-4.606,-4.6407,-4.7078,-4.7633,-4.8149,-4.8794,-4.9143,-4.9454,-5.0076,-5.027,-5.0386,-5.1047,-5.1202,-5.1202,-5.1202,-5.1202,-5.1186,-5.1191,-5.1382,-5.1596,-5.1711,-5.2382,-5.2967,-5.3061,-5.3591,-5.4021,-5.399,-5.3961,-5.417,-5.4749,-5.5038,-5.545,-5.6074,-5.6347,-5.6503,-5.6503,-5.6503,-5.6503,-5.6503,-5.6503,-5.6503,-5.6503,-5.6503,-5.6417,-5.6214,-5.6214,-5.6194,-5.6193,-5.6056,-5.639,-5.7167,-5.7035,-5.7428,-4.0055,-4.0794,-4.1444,-4.2078,-4.2091,-4.1974,-4.194,-4.1388,-4.0871,-4.0871,-4.1,-4.114,-4.1163,-4.13,-4.1426,-4.156,-4.1604,-4.1604,-4.1604,-4.1604,-4.1604,-4.1604,-4.1604,-4.1744,0.0,-4.2541,-4.2959,-4.3353,-4.3726,-4.4085,-4.4304,-4.4304,-4.4354,-4.4496,-4.4496,-4.4496,-4.4496,-4.4496,-4.4496,-4.4496,-4.4496,-4.4496,-4.4496,-4.4496,-4.4621,-4.48,-4.48,-4.4943,-4.5222,-4.5437,-4.5526,-4.5543,-4.5703,-4.5827,-4.5893,-4.5893,-4.5944,-4.5991,-4.5991,-4.6557,-4.7279,-4.7279,-4.8444,-4.9843,-4.9843,-5.0464,-5.1125,-5.1163,-5.1163,-5.1163,-5.1202,-5.1202,-5.1202,-5.1202,-5.1202,-5.1202,-5.1202,-5.1843,-5.2487,-5.2546,-5.3277,-5.3865,-5.3959,-5.399,-5.399,-5.399,-5.4016,-5.3967,-5.3949,-5.4695,-5.5217,-5.5256,-5.5996,-5.6503,-5.6503,-5.6503,-5.6503,-5.6503,-5.6503,-5.6503,-5.6503,-5.6503,-5.6417,-5.6214,-5.6214,-5.6404,-5.6857,-5.6857,-5.722,-5.7875,-5.7848,-5.8307,-4.2103,-4.2518,-4.28,-4.3423,-4.3597,-4.3388,-4.2871,-4.2181,-4.163,-4.163,-4.1263,-4.1012,-4.1163,-4.1255,-4.1346,-4.156,-4.1604,-4.1604,-4.1604,-4.1604,-4.1604,-4.1604,-4.1604,0.0,0.0,0.0,0.0,-4.3353,-4.3758,-4.4085,-4.4304,-4.4304,-4.4354,-4.4496,-4.4496,-4.4496,-4.4496,-4.4496,-4.4496,-4.4496,-4.4496,-4.4496,-4.4496,-4.4496,-4.4551,-4.4595,-4.4764,-4.4849,-4.4943,-4.5184,-4.54,-4.5526,-4.561,-4.5771,-4.5893,-4.5956,-4.5991,-4.5986,-4.6003,-4.6557,-4.7395,-4.7978,-4.8949,-4.9998,-5.0581,-5.0969,-5.1202,-5.1202,-5.1202,-5.1202,-5.1202,-5.1202,-5.1202,-5.1202,-5.1202,-5.1202,-5.1202,-5.1431,-5.1648,-5.1661,-5.1952,-5.2181,-5.2264,-5.229,-5.2269,-5.225,-5.3727,-5.4807,-5.4755,-5.5506,-5.6074,-5.6074,-5.6308,-5.6503,-5.6503,-5.6503,-5.6503,-5.6503,-5.6503,-5.6437,-5.6325,-5.6286,-5.6135,-5.5807,-5.6367,-5.669,-5.6677,-5.7289,-5.7927,-5.8689,-5.8689,-5.9147,-4.3218,-4.3571,-4.3885,-4.4508,-4.4492,-4.4147,-4.3715,-4.2975,-4.2319,-4.2043,-4.1885,-4.167,-4.1267,-4.1464,-4.1695,-4.1595,-4.1604,-4.1604,-4.1604,-4.1604,-4.1604,-4.1604,-4.1604,-4.1648,0.0,0.0,0.0,-4.3141,-4.3693,-4.4085,-4.4304,-4.4304,-4.4354,-4.4496,-4.4496,-4.4496,-4.4496,-4.4496,-4.4496,-4.4496,-4.4496,-4.4496,-4.4496,-4.4496,-4.4496,-4.4496,-4.4648,-4.4688,-4.4714,-4.4981,-4.5142,-4.5323,-4.5473,-4.5658,-4.588,-4.5893,-4.6147,-4.6463,-4.6441,-4.7035,-4.79,-4.8794,-4.9648,-5.0464,-5.1047,-5.1202,-5.1202,-5.1202,-5.1202,-5.1202,-5.1202,-5.1202,-5.1202,-5.1202,-5.1202,-5.1202,-5.1202,-5.1202,-5.1197,-5.1187,-5.1239,-5.1293,-5.1366,-5.1396,-5.1406,-5.1386,-5.3331,-5.4768,-5.4741,-5.5506,-5.616,-5.6472,-5.6511,-5.6503,-5.6503,-5.6503,-5.6503,-5.6503,-5.6503,-5.6427,-5.6226,-5.6486,-5.6459,-5.6049,-5.6896,-5.7373,-5.7504,-5.8077,-5.8765,-5.9568,-5.9568,-5.9873,-4.329,-4.3939,-4.4541,-4.5123,-4.4819,-4.432,-4.432,-4.3768,-4.3059,-4.225,-4.2812,-4.2944,0.0,0.0,-4.238,-4.1735,-4.1639,-4.1604,-4.1604,-4.1604,-4.1604,0.0,0.0,0.0,0.0,0.0,0.0,-4.2772,0.0,-4.4085,-4.4304,-4.4304,-4.4354,-4.4496,-4.4496,-4.4496,-4.4496,-4.4496,-4.4496,-4.4496,-4.4496,-4.4496,-4.4496,-4.4496,-4.4496,-4.4496,-4.4496,-4.4496,-4.4496,-4.4714,-4.4872,-4.5011,-4.5283,-4.5543,-4.58,-4.5814,-4.6435,-4.7317,-4.7356,-4.7939,-4.8794,-4.9609,-5.0503,-5.1202,-5.1202,-5.1202,-5.1202,-5.1202,-5.1202,-5.1202,-5.1202,-5.1202,-5.1202,-5.1202,-5.1202,-5.1202,-5.1202,-5.1202,-5.1197,-5.1217,-5.1203,-5.1252,-5.1365,-5.1396,-5.141,-5.1401,-5.2879,-5.4,-5.393,-5.4687,-5.5576,-5.641,-5.6519,-5.6503,-5.6503,-5.6503,-5.6503,-5.6503,-5.6541,-5.6456,-5.6253,-5.7003,-5.7279,-5.6973,-5.7758,-5.8486,-5.9136,-5.9147,-5.9606,-6.0408,-6.0408,-6.0408,-4.2615,-4.2925,-4.3229,-4.3823,-4.4204,-4.4436,-4.4436,-4.4213,-4.394,-4.3733,-4.3573,-4.3291,0.0,0.0,0.0,-4.2507,-4.199,0.0,-4.1604,-4.1604,0.0,-4.1604,0.0,-4.1648,-4.1744,-4.2008,0.0,0.0,-4.3248,-4.3758,-4.4266,-4.4304,-4.4354,-4.4496,-4.4496,-4.4496,-4.4496,-4.4496,-4.4496,-4.4496,-4.4496,-4.4496,-4.4496,-4.4496,-4.4496,-4.4496,-4.4496,-4.4496,-4.4496,-4.4648,-4.4814,-4.5011,-4.5243,-4.5509,-4.5814,-4.588,-4.6499,-4.7395,-4.8055,-4.8832,-4.9609,-4.9843,-5.0503,-5.1202,-5.1202,-5.1202,-5.1202,-5.1202,-5.1202,-5.1202,-5.1202,-5.1202,-5.1202,-5.1202,-5.1202,-5.1202,-5.1202,-5.1202,-5.1214,-5.1197,-5.125,-5.1297,-5.1406,-5.1396,-5.141,-5.1401,-5.2879,-5.4,-5.393,-5.5241,-5.6246,-5.6472,-5.6511,-5.6503,-5.6503,-5.6503,-5.6503,-5.6503,-5.7048,-5.7281,-5.6969,-5.7744,-5.8065,-5.7857,-5.8514,-5.9,-5.9302,-5.9829,-6.0179,-6.0408,-6.0408,-6.0408,-4.2072,-4.2574,-4.3043,-4.3072,-4.3589,-4.4145,-4.4429,-4.4456,-4.435,-4.4303,-4.4369,0.0,-4.3597,0.0,0.0,0.0,0.0,0.0,-4.1604,-4.1604,-4.1604,0.0,-4.1604,0.0,-4.1604,-4.1788,-4.2216,0.0,-4.3248,-4.3693,-4.4266,-4.4325,-4.4383,-4.4496,-4.4496,-4.4496,-4.4496,-4.4496,-4.4496,-4.4496,-4.4496,-4.4496,-4.4496,-4.4496,-4.4496,-4.4496,0.0,-4.4496,-4.4496,-4.4659,-4.4802,-4.4957,-4.5154,-4.5381,-4.5719,-4.6121,-4.6897,-4.792,-4.8774,-4.9691,-5.0464,-5.0464,-5.0814,-5.1202,-5.1202,-5.1202,-5.1202,-5.1202,-5.1202,-5.1202,-5.1202,-5.1202,-5.1202,-5.1202,-5.1202,-5.1202,-5.1202,-5.1202,-5.1202,-5.1202,-5.1217,-5.1279,-5.1357,-5.1367,-5.1391,-5.1401,-5.2884,-5.3972,-5.3897,-5.5411,-5.6488,-5.6519,-5.6511,-5.6503,-5.6503,-5.6814,-5.7009,-5.7009,-5.7788,-5.8148,-5.7885,-5.8645,-5.899,-5.8726,-5.9407,-5.9818,-5.9843,-6.0223,-6.0408,-6.0408,-6.0408,-6.0408,-4.1623,-4.2309,-4.2993,-4.2525,-4.2855,-4.3588,-4.4202,-4.4429,-4.4483,-4.4457,0.0,-4.537,-4.4063,-4.3838,-4.3676,-4.3044,0.0,-4.1604,-4.1604,-4.1604,-4.1604,-4.1604,-4.1604,-4.1604,-4.1604,-4.1604,-4.1924,-4.2774,-4.3211,-4.3689,-4.4266,-4.4354,-4.4411,-4.4496,-4.4496,-4.4496,-4.4496,-4.4496,-4.4496,-4.4496,-4.4496,-4.4496,-4.4496,-4.4496,-4.4496,-4.4496,-4.4496,0.0,-4.4496,-4.4659,-4.4815,-4.4938,-4.508,-4.5337,-4.5744,-4.6436,-4.7499,-4.8681,-4.9456,-5.0377,-5.1202,-5.1202,-5.1202,-5.1202,-5.1202,-5.1202,-5.1202,-5.1202,-5.1202,-5.1202,-5.1202,-5.1202,-5.1202,-5.1202,-5.1202,-5.1202,-5.1202,-5.1202,-5.1202,-5.1202,-5.1211,-5.1225,-5.1288,-5.1361,-5.1443,-5.1566,-5.2971,-5.406,-5.4228,-5.5574,-5.6496,-5.6496,-5.6597,-5.6658,-5.6658,-5.7399,-5.7866,-5.7866,-5.8685,-5.9065,-5.8869,-5.971,-6.0002,-5.9617,-6.0342,-6.0608,-6.0425,-6.0398,-6.0408,-6.0408,-6.0408,-6.0408,-4.1403,-4.1342,-4.1247,-4.1661,-4.2236,-4.2925,-4.3529,-4.4112,0.0,0.0,-4.5528,-4.5683,-4.549,-4.4572,-4.3851,-4.3711,0.0,0.0,0.0,0.0,-4.1604,0.0,0.0,0.0,0.0,0.0,0.0,0.0,0.0,-4.3523,-4.4354,-4.4383,-4.4411,-4.4496,-4.4496,-4.4496,-4.4496,-4.4496,-4.4496,-4.4496,-4.4496,-4.4496,-4.4496,-4.4496,-4.4496,-4.4496,-4.4496,0.0,-4.4496,-4.4764,-4.4889,-4.4938,-4.517,-4.5781,-4.6512,-4.6666,-4.7885,-4.9495,-4.965,-5.0377,-5.1202,-5.1202,-5.1202,-5.1202,-5.1202,-5.1202,-5.1202,-5.1202,-5.1202,-5.1202,-5.1202,-5.1202,-5.1202,-5.1202,-5.1202,-5.1202,-5.1202,-5.1202,-5.1202,-5.1202,-5.1211,-5.1225,-5.1288,-5.1361,-5.1639,-5.2355,-5.3366,-5.4494,-5.5884,-5.6296,-5.651,-5.6496,-5.7104,-5.7477,-5.7477,-5.8295,-5.8763,-5.8763,-5.9581,-5.996,-5.9801,-6.0604,-6.0942,-6.0713,-6.0702,-6.0681,-6.0633,-6.0506,-6.0408,-6.0408,-6.0408,-6.0408,-4.0923,-4.083,-4.0672,-4.0988,-4.1596,-4.2269,-4.2863,0.0,0.0,0.0,-4.5389,-4.5787,-4.5787,0.0,0.0,0.0,0.0,0.0,0.0,0.0,0.0,0.0,0.0,0.0,0.0,0.0,0.0,0.0,0.0,-4.3387,-4.398,-4.4325,-4.4468,-4.4496,-4.4496,-4.4496,-4.4496,-4.4496,-4.4496,-4.4496,-4.4496,-4.4496,-4.4496,-4.4496,-4.4496,-4.4496,-4.4496,0.0,-4.4496,-4.4789,-4.4914,-4.4976,-4.5649,-4.6199,-4.6682,-4.7622,-4.8606,-4.956,-4.9984,-5.0542,-5.1089,-5.1089,-5.1127,-5.1202,-5.1202,-5.1202,-5.1202,-5.1202,-5.1202,-5.1202,-5.1202,-5.1202,-5.1202,-5.1202,-5.1202,-5.1202,-5.1202,-5.1202,-5.1202,-5.1202,-5.1211,-5.1225,-5.1288,-5.1361,-5.1834,-5.3178,-5.4108,-5.5279,-5.6948,-5.7551,-5.7843,-5.7783,-5.8156,-5.8373,-5.8373,-5.9191,-5.9698,-5.9698,-6.0477,-6.0926,-6.0834,-6.1211,-6.1317,-6.1002,-6.0905,-6.0773,-6.0546,-6.0453,-6.0408,-6.0408,-6.0408,-6.0408,-4.0448,-4.0609,-4.0609,-4.0609,-4.1083,-4.1785,-4.2459,-4.2986,0.0,-4.4373,-4.5089,-4.5649,-4.5803,0.0,-4.3886,0.0,0.0,0.0,0.0,0.0,0.0,0.0,0.0,0.0,0.0,0.0,0.0,0.0,0.0,0.0,-4.3855,-4.4258,-4.4496,-4.4496,-4.4496,-4.4496,-4.4496,-4.4496,-4.4496,-4.4496,-4.4496,-4.4496,-4.4496,-4.4496,-4.4496,-4.4496,-4.4496,0.0,0.0,-4.5054,-4.5293,-4.5545,-4.645,-4.6882,-4.7226,-4.8602,-4.9286,-4.9662,-5.0276,-5.0681,-5.0937,-5.1005,-5.1075,-5.1202,-5.1202,-5.1202,-5.1202,-5.1202,-5.1202,-5.1202,-5.1202,-5.1202,-5.1202,-5.1202,-5.1202,-5.1202,-5.1202,-5.1202,-5.1202,-5.1202,-5.1211,-5.1264,-5.1523,-5.1634,-5.2303,-5.4268,-5.5123,-5.6255,-5.8128,-5.8961,-5.9404,-5.9545,-5.9404,-5.9269,-5.9269,-6.0088,-6.0594,-6.0594,-6.1218,-6.1607,-6.1607,-6.1607,-6.1421,-6.1002,-6.1002,-6.0779,-6.0408,-6.0408,-6.0293,-6.0102,-6.0102,-6.0026,-4.0448,-4.0609,-4.0609,-4.0609,-4.1083,-4.1785,-4.2459,0.0,-4.3047,-4.4429,-4.4872,-4.5196,-4.5854,-4.4844,0.0,0.0,0.0,-4.1604,0.0,0.0,0.0,0.0,0.0,0.0,0.0,0.0,0.0,0.0,0.0,0.0,-4.4411,-4.4468,-4.4496,-4.4496,-4.4496,-4.4496,-4.4496,-4.4496,-4.4496,-4.4496,-4.4496,-4.4496,-4.4496,-4.4496,-4.4496,-4.4496,-4.4496,0.0,0.0,-4.5949,-4.6506,-4.7214,-4.7556,-4.8181,-4.8869,-4.9022,-4.963,-5.0392,-5.0469,-5.0625,-5.0786,-5.0937,-5.1075,-5.1202,-5.1202,-5.1202,-5.1202,-5.1202,-5.1202,-5.1202,-5.1202,-5.1202,-5.1202,-5.1202,-5.1202,-5.1202,-5.1202,-5.1202,-5.1202,-5.1202,-5.1211,-5.1466,-5.2347,-5.2494,-5.3357,-5.5986,-5.645,-5.7387,-5.9846,-6.021,-6.0581,-6.1283,-6.0659,-6.0165,-6.0165,-6.0984,-6.149,-6.149,-6.1568,-6.1607,-6.1607,-6.1607,-6.1421,-6.1002,-6.1002,-6.0779,-6.0408,-6.0408,-5.9988,-5.9224,-5.9224,-5.8842,-4.0821,-4.0828,-4.0704,-4.1083,-4.1399,-4.1654,-4.1948,0.0,-4.2863,-4.3905,-4.4563,-4.5005,-4.5262,-4.4563,-4.3746,-4.3325,-4.2306,0.0,-4.1604,0.0,0.0,0.0,0.0,0.0,0.0,0.0,0.0,0.0,0.0,0.0,-4.4229,-4.4411,-4.4496,-4.4496,-4.4496,-4.4496,-4.4496,-4.4496,-4.4496,-4.4496,-4.4496,-4.4496,-4.4496,-4.4496,-4.4759,-4.5209,-4.5209,0.0,0.0,-4.6819,-4.7112,-4.7479,-4.8281,-4.8793,-4.9137,-4.9633,-5.0061,-5.0396,-5.0396,-5.0466,-5.0625,-5.0769,-5.0937,-5.1089,-5.1178,-5.1202,-5.1202,-5.1202,-5.1202,-5.1202,-5.1202,-5.1202,-5.1202,-5.1202,-5.1202,-5.1202,-5.1202,-5.1202,-5.1358,-5.1824,-5.2005,-5.2333,-5.3249,-5.3437,-5.432,-5.6922,-5.7309,-5.8246,-6.0861,-6.1147,-6.1244,-6.1556,-6.1283,-6.1062,-6.1062,-6.1412,-6.1607,-6.1607,-6.1607,-6.1607,-6.1607,-6.1468,-6.1289,-6.1002,-6.0884,-6.0411,-5.9606,-5.9606,-5.9185,-5.8383,-5.8383,-5.823,-4.088,-4.0952,-4.0956,-4.1241,-4.143,-4.1588,0.0,0.0,-4.2553,-4.3376,-4.4021,-4.449,-4.4694,-4.4174,-4.35,-4.2893,-4.2131,-4.1604,-4.1604,0.0,0.0,0.0,0.0,0.0,0.0,0.0,0.0,0.0,0.0,0.0,-4.3986,-4.4325,-4.4496,-4.4496,-4.4496,-4.4496,-4.4496,-4.4496,-4.4496,-4.4496,-4.4496,-4.4496,-4.4533,-4.4759,-4.5172,-4.5697,-4.596,0.0,0.0,-4.7651,-4.7908,-4.8238,-4.912,-4.9442,-4.9519,-5.0092,-5.0283,-5.0283,-5.0283,-5.0374,-5.0466,-5.0642,-5.0803,-5.0952,-5.1127,-5.1202,-5.1202,-5.1202,-5.1202,-5.1202,-5.1202,-5.1202,-5.1202,-5.1202,-5.1202,-5.128,-5.1513,-5.1552,-5.1785,-5.2601,-5.2894,-5.3253,-5.4108,-5.4335,-5.524,-5.7816,-5.8163,-5.9022,-6.1408,-6.1654,-6.1588,-6.1595,-6.1595,-6.1607,-6.1607,-6.1607,-6.1607,-6.1607,-6.1607,-6.1607,-6.1607,-6.1421,-6.119,-6.1002,-6.0569,-5.9931,-5.9109,-5.888,-5.8307,-5.7504,-5.7504,-5.7504,-4.0441,-4.0921,-4.143,-4.0767,-4.1114,-4.1588,0.0,-4.1588,-4.1948,-4.3047,-4.329,-4.3531,-4.4251,-4.3831,-4.3201,-4.2847,-4.2131,-4.1604,-4.1604,0.0,0.0,0.0,0.0,0.0,0.0,0.0,0.0,0.0,0.0,0.0,-4.373,-4.4199,-4.4496,-4.4496,-4.4496,-4.4496,-4.4496,-4.4496,-4.4496,-4.4496,-4.4496,-4.4496,-4.4533,-4.5322,-4.5697,0.0,0.0,0.0,0.0,-4.8483,-4.9083,-4.9906,-5.0188,-5.0283,-5.0283,-5.0283,-5.0283,-5.0283,-5.0283,-5.0283,-5.0352,-5.0605,-5.0696,-5.0748,-5.1102,-5.1202,-5.1202,-5.1202,-5.1202,-5.1202,-5.1202,-5.1202,-5.1202,-5.1202,-5.1202,-5.1435,-5.2212,-5.2407,-5.264,-5.3533,-5.3783,-5.4147,-5.4931,-5.5195,-5.6138,-5.8714,-5.9095,-5.9714,-6.1481,-6.1641,-6.1612,-6.1595,-6.1595,-6.1607,-6.1607,-6.1607,-6.1607,-6.1607,-6.1607,-6.1607,-6.1607,-6.1421,-6.119,-6.1002,-5.9952,-5.9317,-5.9109,-5.8307,-5.7466,-5.6587,-5.6587,-5.6587,-4.1072,-4.1299,-4.1525,-4.1336,-4.143,-4.1588,-4.1588,-4.1588,-4.1884,-4.308,-4.2894,-4.2684,-4.3132,-4.2837,-4.2319,-4.1685,-4.1565,-4.1604,0.0,0.0,0.0,0.0,0.0,0.0,0.0,0.0,0.0,0.0,0.0,0.0,-4.373,-4.4199,-4.4496,-4.4496,-4.4496,-4.4496,-4.4496,-4.4496,-4.4496,-4.4533,-4.5059,-4.5322,-4.5359,-4.6186,-4.6899,0.0,0.0,0.0,0.0,-4.9391,-4.9652,-4.9906,-5.0188,-5.0283,-5.0283,-5.0283,-5.0283,-5.0283,-5.0283,-5.0283,-5.0329,-5.0507,-5.0624,-5.0731,-5.0981,-5.1153,-5.1202,-5.1202,-5.1202,-5.1202,-5.1202,-5.1202,-5.1358,-5.1901,-5.2018,-5.2251,-5.3106,-5.33,-5.3533,-5.4427,-5.4648,-5.5009,-5.5825,-5.6562,-5.7465,-5.8909,-5.9602,-6.0411,-6.1549,-6.1634,-6.1603,-6.1612,-6.1586,-6.1607,-6.1607,-6.1607,-6.1607,-6.1607,-6.1607,-6.1607,-6.1607,-6.0706,-6.0184,-6.0112,-5.8989,-5.8068,-5.739,-5.7122,-5.6587,-5.5785,-5.5785,-5.6064,-4.1256,-4.1456,-4.1588,-4.1588,-4.1588,-4.1588,-4.1588,0.0,-4.1949,-4.2476,-4.2386,-4.208,-4.2049,-4.1987,-4.1698,-4.1081,-4.1346,0.0,0.0,0.0,0.0,0.0,0.0,0.0,0.0,0.0,0.0,0.0,0.0,0.0,-4.366,-4.4109,-4.4411,-4.4496,-4.4496,-4.4496,-4.4496,-4.4496,-4.4646,-4.4946,-4.5472,-4.5885,-4.6223,-4.7087,-4.7725,0.0,0.0,0.0,0.0,-4.9807,-4.9879,-4.9906,-5.0188,-5.0283,-5.0283,-5.0283,-5.0283,-5.0283,-5.0283,-5.0283,-5.0306,-5.0445,-5.0644,-5.0835,-5.0952,-5.1089,-5.1202,-5.1202,-5.1202,-5.128,-5.1552,-5.1668,-5.1863,-5.2678,-5.2873,-5.3145,-5.3999,-5.4194,-5.4465,-5.532,-5.5511,-5.5728,-5.6289,-5.6913,-5.76,-5.848,-5.909,-5.9742,-6.0606,-6.0644,-6.0621,-6.0629,-6.0612,-6.0633,-6.0633,-6.1218,-6.1607,-6.1607,-6.1295,-6.1101,-6.1101,-5.9886,-5.9184,-5.9184,-5.8011,-5.7122,-5.6587,-5.6282,-5.5899,-5.5403,-5.5403,-5.5962,0.0,-4.1456,-4.1588,-4.1588,-4.1588,-4.1588,-4.1588,-4.1819,0.0,-4.1555,-4.1694,-4.1617,-4.0983,-4.1154,-4.1287,-4.0987,0.0,0.0,0.0,0.0,0.0,0.0,0.0,0.0,0.0,0.0,0.0,0.0,0.0,0.0,-4.3697,-4.3918,-4.4229,-4.4468,-4.4496,-4.4496,-4.4496,-4.4571,-4.4984,-4.5697,-4.581,-4.6298,-4.7124,-4.7913,-4.8288,0.0,0.0,0.0,0.0,-4.9807,-4.9879,-4.9906,-5.0188,-5.0283,-5.0283,-5.0283,-5.0283,-5.0283,-5.0283,-5.0283,-5.0306,-5.0445,-5.0699,-5.099,-5.1044,-5.1127,-5.1202,-5.128,-5.128,-5.1474,-5.229,-5.2484,-5.2717,-5.3572,-5.3805,-5.4038,-5.4893,-5.5087,-5.532,-5.6136,-5.6319,-5.634,-5.6402,-5.6517,-5.6873,-5.7668,-5.783,-5.8162,-5.9,-5.9038,-5.9005,-5.8991,-5.9014,-5.8996,-5.8996,-6.0477,-6.1412,-6.1412,-6.0672,-6.0204,-6.0195,-5.8978,-5.8333,-5.8276,-5.7128,-5.6511,-5.6511,-5.5747,-5.5403,-5.5403,-5.5479,-5.6267,-4.0783,0.0,-4.1588,-4.1588,-4.1588,-4.1588,0.0,-4.1437,0.0,0.0,0.0,0.0,0.0,0.0,0.0,0.0,0.0,0.0,0.0,0.0,0.0,0.0,0.0,0.0,0.0,0.0,0.0,0.0,0.0,-4.3426,-4.3697,-4.3918,-4.4229,-4.4468,-4.4496,-4.4496,-4.4496,-4.5097,-4.551,-4.5735,-4.7012,-4.7725,-4.795,-4.8814,-4.9189,0.0,0.0,0.0,-4.9521,-4.9807,-4.9879,-4.9906,-5.0188,-5.0283,-5.0283,-5.0283,-5.0283,-5.0283,-5.0283,-5.0283,-5.0306,-5.0445,-5.0547,-5.0778,-5.1657,-5.1593,-5.1319,-5.194,-5.2135,-5.2329,-5.3183,-5.3378,-5.3611,-5.4504,-5.4699,-5.4932,-5.5825,-5.5981,-5.6058,-5.6253,-5.6319,-5.634,-5.6402,-5.7024,-5.7576,-5.7785,-5.8376,-5.8864,-5.9066,-5.903,-5.8996,-5.9005,-5.9005,-5.8996,-5.8996,-5.9386,-5.962,-5.962,-5.9425,-5.9241,-5.9075,-5.8041,-5.7428,-5.7271,-5.6228,-5.567,-5.567,-5.5479,-5.5403,-5.5403,-5.6014,-5.6774,-4.0578,-4.1189,-4.1588,-4.1588,-4.1588,-4.1494,-4.1209,-4.1215,0.0,0.0,0.0,0.0,0.0,0.0,0.0,0.0,0.0,0.0,0.0,0.0,0.0,0.0,0.0,0.0,0.0,0.0,0.0,0.0,0.0,-4.3286,-4.3697,-4.386,-4.4109,-4.4468,-4.4496,-4.4496,-4.4496,-4.5284,-4.5885,-4.6298,-4.7575,-4.8401,-4.8814,-4.9265,-4.949,0.0,0.0,0.0,-4.9521,-4.9807,-4.9879,-4.9906,-5.0188,-5.0283,-5.0283,-5.0283,-5.0283,-5.0283,-5.0283,-5.0283,-5.0382,-5.0856,-5.1058,-5.1257,-5.228,-5.243,-5.2343,-5.286,-5.2989,-5.3183,-5.4077,-5.431,-5.4504,-5.5398,-5.5592,-5.5747,-5.6214,-5.6291,-5.6291,-5.6291,-5.6314,-5.6329,-5.6397,-5.6819,-5.7187,-5.7239,-5.7635,-5.7928,-5.7928,-5.7892,-5.7866,-5.7866,-5.7866,-5.7866,-5.7866,-5.7866,-5.8178,-5.8957,-5.8607,-5.8325,-5.8169,-5.7156,-5.6464,-5.6222,-5.567,-5.5403,-5.5403,-5.5403,-5.5403,-5.5441,-5.6217,-5.6938,-4.0178,-4.0831,-4.1365,-4.143,-4.1336,-4.1114,-4.0641,-4.083,0.0,0.0,0.0,0.0,0.0,0.0,0.0,0.0,0.0,0.0,0.0,0.0,0.0,0.0,0.0,0.0,0.0,0.0,0.0,0.0,0.0,-4.3142,-4.3697,-4.373,-4.3955,-4.4468,-4.4496,-4.4496,-4.4496,-4.5435,-4.6261,-4.7012,-4.795,-4.8776,-4.949,-4.949,-4.949,-4.949,0.0,0.0,-4.9521,-4.9807,-4.9879,-4.9906,-5.0188,-5.0283,-5.0283,-5.0283,-5.0283,-5.0283,-5.0283,-5.0397,-5.0627,-5.1353,-5.1752,-5.2116,-5.2944,-5.3436,-5.3716,-5.3987,-5.3987,-5.4116,-5.4971,-5.5204,-5.5398,-5.6136,-5.6291,-5.6291,-5.6291,-5.6291,-5.6291,-5.6291,-5.6291,-5.6325,-5.638,-5.6406,-5.6434,-5.6585,-5.6548,-5.6485,-5.6485,-5.6488,-5.6503,-5.6503,-5.6503,-5.6503,-5.6503,-5.6503,-5.7126,-5.8529,-5.7944,-5.7429,-5.7236,-5.6317,-5.5668,-5.5403,-5.5403,-5.5403,-5.5403,-5.5403,-5.5479,-5.5594,-5.6355,-5.7073,-3.859,-3.9276,-4.0084,-4.0606,-4.0293,-3.985,-4.0036,-3.9891,0.0,0.0,0.0,0.0,0.0,0.0,0.0,0.0,0.0,0.0,0.0,0.0,0.0,0.0,0.0,0.0,0.0,0.0,0.0,0.0,0.0,0.0,-4.3697,-4.373,-4.3955,-4.4468,-4.4496,-4.4496,-4.4496,-4.6035,-4.6861,-4.7012,-4.8551,-4.9377,-4.949,-4.949,-4.949,-4.949,0.0,-4.949,-4.9521,-4.9807,-4.9879,-4.9906,-5.0188,-5.0283,-5.0283,-5.0283,-5.0283,-5.0283,-5.0283,-5.0779,-5.1429,-5.1582,-5.2064,-5.2839,-5.3804,-5.4264,-5.4589,-5.5404,-5.5253,-5.5009,-5.5864,-5.6097,-5.6136,-5.6253,-5.6291,-5.6291,-5.6291,-5.6291,-5.6291,-5.6291,-5.6291,-5.6302,-5.6316,-5.6341,-5.6426,-5.6484,-5.6493,-5.6485,-5.6485,-5.6488,-5.6503,-5.6503,-5.6503,-5.6503,-5.6503,-5.6503,-5.6619,-5.6853,-5.6775,-5.6531,-5.614,-5.572,-5.544,-5.5403,-5.5403,-5.5403,-5.5403,-5.5403,-5.5747,-5.6434,-5.7156,-5.7911,-3.7712,-3.7653,-3.7958,-3.8838,-3.9283,-3.947,-3.9396,-3.9403,-3.9372,0.0,0.0,0.0,0.0,0.0,0.0,0.0,0.0,0.0,0.0,0.0,0.0,0.0,0.0,0.0,0.0,0.0,0.0,0.0,0.0,0.0,-4.3458,-4.3631,-4.3892,-4.4258,-4.4411,-4.4496,-4.4496,-4.5697,-4.6523,-4.7012,-4.8701,-4.949,-4.949,-4.949,-4.949,-4.949,0.0,-4.949,-4.9521,-4.9807,-4.9879,-4.9906,-5.0188,-5.0283,-5.0283,-5.0283,-5.0283,-5.0359,-5.0856,-5.1276,-5.1773,-5.2652,-5.3187,-5.367,-5.4585,-5.5017,-5.5227,-5.573,-5.58,-5.5786,-5.6214,-5.6291,-5.6291,-5.6291,-5.6291,-5.6291,-5.6291,-5.6291,-5.6291,-5.6291,-5.6291,-5.6302,-5.629,-5.6374,-5.6422,-5.6484,-5.6497,-5.6485,-5.6485,-5.6488,-5.6503,-5.6503,-5.6503,-5.6503,-5.6503,-5.6503,-5.6503,-5.6503,-5.6314,-5.6093,-5.5896,-5.5593,-5.5403,-5.5403,-5.5403,-5.5403,-5.5403,-5.5403,-5.5797,-5.6572,-5.7291,-5.8081,-3.6851,-3.6467,-3.629,-3.7088,-3.8028,-3.8809,-3.8814,-3.8979,-3.9137,0.0,0.0,0.0,0.0,0.0,0.0,0.0,0.0,0.0,0.0,0.0,0.0,0.0,0.0,0.0,0.0,0.0,0.0,0.0,0.0,0.0,-4.3286,-4.3526,-4.3791,-4.4109,-4.4383,-4.4496,-4.4496,-4.5284,-4.6148,-4.7012,-4.8476,-4.9302,-4.949,-4.949,-4.949,-4.949,-4.949,-4.949,-4.9521,-4.9807,-4.9879,-4.9906,-5.0188,-5.0283,-5.0283,-5.0283,-5.0436,-5.0703,-5.1391,-5.1849,-5.2422,-5.3683,-5.4256,-5.4524,-5.5212,-5.5538,-5.5665,-5.5769,-5.604,-5.6291,-5.6291,-5.6291,-5.6291,-5.6291,-5.6291,-5.6291,-5.6291,-5.6291,-5.6291,-5.6291,-5.6291,-5.629,-5.63,-5.6361,-5.6422,-5.6481,-5.6504,-5.6485,-5.6485,-5.6488,-5.6503,-5.6503,-5.6503,-5.6503,-5.6503,-5.6503,-5.6494,-5.6437,-5.6093,-5.5896,-5.5896,-5.5593,-5.5403,-5.5403,-5.5403,-5.5403,-5.5403,-5.5568,-5.6038,-5.6796,-5.7511,-5.8327,-3.5659,-3.58,-3.6104,-3.6027,-3.6475,-3.7154,-3.8187,-3.8472,0.0,-3.9181,0.0,0.0,0.0,0.0,0.0,0.0,0.0,0.0,0.0,0.0,0.0,0.0,0.0,0.0,0.0,0.0,0.0,0.0,0.0,0.0,-4.3286,-4.3526,-4.3791,-4.4109,-4.4383,-4.4496,-4.4496,-4.5284,-4.6148,-4.7012,-4.7875,-4.8701,-4.949,-4.949,-4.949,-4.949,-4.949,-4.949,-4.9521,-4.9807,-4.9879,-4.9906,-5.0188,-5.0283,-5.0283,-5.0283,-5.0818,-5.1544,-5.1582,-5.2614,-5.3951,-5.4065,-5.4639,-5.5326,-5.5403,-5.5593,-5.5789,-5.5789,-5.604,-5.6291,-5.6291,-5.6291,-5.6291,-5.6291,-5.6291,-5.6291,-5.6291,-5.6291,-5.6291,-5.6291,-5.6291,-5.6291,-5.6304,-5.6363,-5.6411,-5.6415,-5.6478,-5.6485,-5.6485,-5.6488,-5.6503,-5.6503,-5.6503,-5.6503,-5.6503,-5.6503,-5.6427,-5.6239,-5.6033,-5.5896,-5.5896,-5.5593,-5.5403,-5.5403,-5.5403,-5.5403,-5.5403,-5.6088,-5.6823,-5.7624,-5.8394,-5.914,-3.4951,-3.4913,-3.5096,-3.5424,-3.5976,0.0,0.0,-3.8408,-3.8576,-3.9181,-3.9288,0.0,0.0,0.0,0.0,0.0,0.0,0.0,0.0,0.0,0.0,0.0,0.0,0.0,0.0,0.0,0.0,0.0,0.0,0.0,0.0,-4.3458,-4.3763,-4.386,-4.4258,-4.4496,-4.4496,-4.4796,-4.566,-4.7012,-4.78,-4.8664,-4.949,-4.949,-4.949,-4.949,-4.949,-4.9551,-4.9634,-4.9797,-4.9933,-5.0038,-5.0212,-5.0283,-5.0359,-5.0932,-5.1314,-5.1773,-5.2805,-5.3569,-5.418,-5.4715,-5.5173,-5.5499,-5.5499,-5.5643,-5.5808,-5.59,-5.604,-5.6132,-5.6278,-5.6291,-5.6291,-5.6291,-5.6291,-5.6291,-5.6291,-5.6291,-5.6291,-5.6291,-5.6291,-5.6291,-5.6291,-5.631,-5.6329,-5.6406,-5.6406,-5.6445,-5.6491,-5.6488,-5.6503,-5.6503,-5.6503,-5.6503,-5.6503,-5.6503,-5.6455,-5.6368,-5.6093,-5.5843,-5.5711,-5.5523,-5.5403,-5.5403,-5.5403,-5.567,-5.6167,-5.6393,-5.7177,-5.8453,-5.8707,-5.9185,-3.4516,-3.4399,-3.4534,-3.5234,0.0,0.0,-3.8091,-3.8464,-3.8655,-3.9202,-3.9288,0.0,0.0,0.0,0.0,0.0,0.0,0.0,0.0,0.0,0.0,0.0,0.0,0.0,0.0,0.0,0.0,0.0,0.0,0.0,0.0,-4.3389,-4.373,-4.373,-4.4199,-4.4496,-4.4496,-4.4759,-4.5585,-4.7012,-4.78,-4.8664,-4.949,-4.949,-4.949,-4.949,-4.949,-4.9582,-4.9721,-4.9824,-4.9986,-5.0163,-5.0236,-5.0283,-5.0397,-5.1276,-5.1773,-5.2193,-5.3607,-5.4295,-5.46,-5.5249,-5.5499,-5.5638,-5.5643,-5.5788,-5.5882,-5.5968,-5.6071,-5.6117,-5.6278,-5.6291,-5.6291,-5.6291,-5.6291,-5.6291,-5.6291,-5.6291,-5.6291,-5.6291,-5.6291,-5.6291,-5.6291,-5.628,-5.634,-5.6402,-5.6406,-5.6426,-5.6491,-5.6488,-5.6503,-5.6503,-5.6503,-5.6503,-5.6503,-5.6503,-5.6455,-5.6417,-5.6093,-5.5825,-5.5691,-5.5499,-5.5403,-5.5403,-5.567,-5.6052,-5.6587,-5.7052,-5.7806,-5.8919,-5.9064,-5.9419,-3.4399,-3.4399,0.0,0.0,0.0,0.0,-3.8091,-3.86,-3.8931,-3.9202,0.0,-3.9288,0.0,0.0,0.0,0.0,0.0,0.0,0.0,0.0,0.0,0.0,0.0,0.0,0.0,0.0,0.0,0.0,0.0,0.0,0.0,-4.3389,-4.373,-4.373,-4.4199,-4.4496,-4.4496,-4.5284,-4.6148,-4.7012,-4.78,-4.8664,-4.949,-4.949,-4.949,-4.949,-4.949,-4.9582,-4.9721,-4.9862,-5.0063,-5.0283,-5.0283,-5.0321,-5.0436,-5.1314,-5.2117,-5.2919,-5.3798,-5.4677,-5.5428,-5.5547,-5.5615,-5.5621,-5.575,-5.59,-5.6001,-5.6001,-5.617,-5.6291,-5.6291,-5.6291,-5.6291,-5.6291,-5.6291,-5.6291,-5.6291,-5.6291,-5.6291,-5.6291,-5.6291,-5.6291,-5.6291,-5.6319,-5.634,-5.6402,-5.6406,-5.6426,-5.6491,-5.6488,-5.6503,-5.6503,-5.6503,-5.6503,-5.6503,-5.6503,-5.6427,-5.6226,-5.5994,-5.5896,-5.5896,-5.5593,-5.5403,-5.5403,-5.6205,-5.6587,-5.6625,-5.8168,-5.8919,-5.8919,-5.9602,-5.9885,-3.4399,-3.4668,0.0,0.0,0.0,0.0,0.0,-3.8511,0.0,0.0,0.0,0.0,0.0,0.0,0.0,0.0,0.0,0.0,0.0,0.0,0.0,0.0,0.0,0.0,0.0,0.0,0.0,0.0,0.0,0.0,0.0,-4.3389,-4.373,-4.373,-4.4199,-4.4496,-4.4496,-4.5284,-4.6148,-4.7012,-4.78,-4.8664,-4.949,-4.949,-4.949,-4.949,-4.949,-4.9582,-4.9721,-4.9971,-5.0139,-5.0283,-5.0283,-5.0665,-5.1314,-5.2155,-5.2996,-5.3836,-5.4715,-5.5174,-5.5403,-5.544,-5.5593,-5.573,-5.5789,-5.6007,-5.6199,-5.6199,-5.6265,-5.6291,-5.6291,-5.6291,-5.6291,-5.6291,-5.6291,-5.6291,-5.6291,-5.6291,-5.6291,-5.6291,-5.6291,-5.6291,-5.6291,-5.629,-5.63,-5.6397,-5.6395,-5.6403,-5.6503,-5.6511,-5.6503,-5.6503,-5.6503,-5.6503,-5.6503,-5.6503,-5.6455,-5.6427,-5.6093,-5.5825,-5.5691,-5.5499,-5.567,-5.6243,-5.6473,-5.716,-5.8345,-5.874,-5.9185,-5.9756,-5.9868,-5.9885,-3.4399,0.0,0.0,0.0,0.0,0.0,0.0,0.0,0.0,0.0,0.0,0.0,0.0,0.0,0.0,0.0,0.0,0.0,0.0,0.0,0.0,0.0,0.0,0.0,0.0,0.0,0.0,0.0,0.0,0.0,0.0,-4.3389,-4.373,-4.373,-4.4199,-4.4496,-4.4496,-4.566,-4.6486,-4.7012,-4.8176,-4.9002,-4.949,-4.949,-4.949,-4.949,-4.9551,-4.9634,-4.9807,-4.9986,-5.0163,-5.0283,-5.0283,-5.0818,-5.1697,-5.2499,-5.3339,-5.4218,-5.5097,-5.5403,-5.5403,-5.5465,-5.5593,-5.573,-5.5845,-5.604,-5.6199,-5.6278,-5.6291,-5.6291,-5.6291,-5.6291,-5.6291,-5.6291,-5.6291,-5.6291,-5.6291,-5.6291,-5.6291,-5.6291,-5.6291,-5.6291,-5.6291,-5.6291,-5.6325,-5.6361,-5.639,-5.6403,-5.6478,-5.648,-5.6503,-5.6503,-5.6503,-5.6503,-5.6503,-5.6503,-5.6503,-5.6503,-5.6121,-5.5998,-5.6232,-5.6022,-5.6091,-5.6587,-5.7237,-5.805,-5.9054,-5.9282,-5.9612,-6.0038,-5.995,-5.9885,-3.4399,0.0,0.0,0.0,0.0,0.0,0.0,0.0,0.0,0.0,0.0,0.0,0.0,0.0,0.0,0.0,0.0,0.0,0.0,0.0,0.0,0.0,0.0,0.0,0.0,0.0,0.0,0.0,0.0,0.0,0.0,-4.3389,-4.373,-4.373,-4.4199,-4.4496,-4.4496,-4.6186,-4.7012,-4.7012,-4.8701,-4.949,-4.949,-4.949,-4.949,-4.949,-4.9642,-4.9778,-4.9879,-5.005,-5.0139,-5.0298,-5.0397,-5.0971,-5.1811,-5.2614,-5.3454,-5.4333,-5.5135,-5.5403,-5.5428,-5.5547,-5.5593,-5.5643,-5.5882,-5.5985,-5.6017,-5.6213,-5.6291,-5.6291,-5.6291,-5.6291,-5.6291,-5.6291,-5.6291,-5.6291,-5.6291,-5.6291,-5.6291,-5.6291,-5.6291,-5.6291,-5.6291,-5.6291,-5.6302,-5.6308,-5.6356,-5.6429,-5.6475,-5.6503,-5.6503,-5.6503,-5.6503,-5.6503,-5.6503,-5.6503,-5.6503,-5.6503,-5.6199,-5.636,-5.7172,-5.6783,-5.6664,-5.6816,-5.8307,-5.9092,-5.9112,-5.9786,-6.0068,-6.0013,-5.9918,-5.9885,0.0,-3.527,0.0,0.0,0.0,0.0,0.0,0.0,0.0,0.0,0.0,0.0,0.0,0.0,0.0,0.0,0.0,0.0,0.0,0.0,0.0,0.0,0.0,0.0,0.0,0.0,0.0,0.0,0.0,0.0,-4.2882,-4.3389,-4.373,-4.373,-4.4199,-4.4496,-4.4496,-4.6186,-4.7012,0.0,-4.8701,-4.949,-4.949,-4.949,-4.949,-4.949,-4.9521,-4.9642,-4.975,-4.9879,-5.0012,-5.0215,-5.0999,-5.1811,-5.2652,-5.3492,-5.4371,-5.5135,-5.5326,-5.5403,-5.5403,-5.5415,-5.5499,-5.5599,-5.5665,-5.5827,-5.6001,-5.6033,-5.6185,-5.6291,-5.6291,-5.6291,-5.6291,-5.6291,-5.6291,-5.6291,-5.6291,-5.6291,-5.6291,-5.6291,-5.6291,-5.6291,-5.6291,-5.6291,-5.6325,-5.6361,-5.6403,-5.6429,-5.6475,-5.6503,-5.6503,-5.6503,-5.6503,-5.6503,-5.6503,-5.6503,-5.6503,-5.6503,-5.6781,-5.7018,-5.7211,-5.6783,-5.7199,-5.8536,-5.8918,-5.9397,-6.0027,-6.0053,-6.0068,-6.0013,-5.9918,-5.9885,0.0,0.0,0.0,0.0,0.0,0.0,0.0,0.0,0.0,0.0,0.0,0.0,0.0,0.0,0.0,0.0,0.0,0.0,0.0,0.0,0.0,0.0,0.0,0.0,0.0,0.0,0.0,0.0,0.0,-4.2768,-4.2882,-4.3389,-4.373,-4.373,-4.4199,-4.4496,-4.4496,-4.6186,-4.7012,-4.7012,-4.8701,-4.949,-4.949,-4.949,-4.949,-4.949,-4.949,-4.9582,-4.9692,-4.9778,-4.9906,-5.0203,-5.1154,-5.203,-5.2919,-5.3798,-5.4639,-5.5403,-5.5403,-5.5403,-5.5403,-5.5403,-5.544,-5.5538,-5.5593,-5.5707,-5.5827,-5.5968,-5.6087,-5.6185,-5.6278,-5.6291,-5.6291,-5.6291,-5.6291,-5.6291,-5.6291,-5.6291,-5.6291,-5.6291,-5.6291,-5.6291,-5.6291,-5.6291,-5.6314,-5.6379,-5.639,-5.6404,-5.6501,-5.6485,-5.6503,-5.6503,-5.6503,-5.6503,-5.6503,-5.6503,-5.6658,-5.7048,-5.7169,-5.7541,-5.8353,-5.8011,-5.823,-5.9071,-5.9474,-5.9836,-6.0197,-6.0106,-6.0045,-5.995,-5.9918,-5.9885,0.0,0.0,0.0,0.0,0.0,0.0,0.0,0.0,0.0,0.0,0.0,0.0,0.0,0.0,0.0,0.0,0.0,0.0,0.0,0.0,0.0,0.0,0.0,0.0,0.0,0.0,0.0,0.0,0.0,-4.2688,-4.2844,-4.3389,-4.373,-4.373,-4.4199,-4.4496,-4.4496,-4.6186,-4.7012,-4.7012,-4.8701,-4.949,-4.949,-4.949,-4.949,-4.949,-4.949,-4.9551,-4.9663,-4.9692,-4.991,-5.0316,-5.1268,-5.2183,-5.3085,-5.3989,-5.4791,-5.5403,-5.5403,-5.5403,-5.5403,-5.5403,-5.5403,-5.5428,-5.5523,-5.5593,-5.5643,-5.5864,-5.5952,-5.5985,-5.617,-5.6213,-5.6265,-5.6265,-5.6278,-5.6291,-5.6291,-5.6291,-5.6291,-5.6291,-5.6291,-5.6291,-5.6291,-5.6291,-5.6341,-5.6377,-5.6402,-5.6404,-5.6478,-5.6497,-5.6503,-5.6503,-5.6503,-5.6503,-5.6503,-5.6503,-5.6853,-5.7633,-5.7533,-5.8118,-5.963,-5.948,-5.9327,-5.9311,-5.9979,-6.0235,-6.0068,-6.0045,-5.9982,-5.9885,-5.9885,-5.9885,0.0,0.0,0.0,0.0,0.0,0.0,0.0,0.0,0.0,0.0,0.0,0.0,0.0,0.0,0.0,0.0,0.0,0.0,0.0,0.0,0.0,0.0,0.0,0.0,0.0,0.0,0.0,0.0,-4.2333,-4.2609,-4.2649,-4.3284,-4.373,-4.373,-4.4199,-4.4496,-4.4496,-4.6186,-4.7012,-4.7012,-4.8701,-4.949,-4.949,-4.949,-4.949,-4.949,-4.949,-4.949,-4.9521,-4.9634,-5.0136,-5.0912,-5.2026,-5.3008,-5.3846,-5.4855,-5.5288,-5.5403,-5.5403,-5.5403,-5.5403,-5.5403,-5.5403,-5.5403,-5.5428,-5.5514,-5.5615,-5.5643,-5.5748,-5.5827,-5.5845,-5.5935,-5.6017,-5.6017,-5.6185,-5.6291,-5.6291,-5.6291,-5.6291,-5.6291,-5.6291,-5.6291,-5.6291,-5.6291,-5.6341,-5.6377,-5.6402,-5.6404,-5.6478,-5.6497,-5.6503,-5.6503,-5.6503,-5.6503,-5.6503,-5.6503,-5.6853,-5.7633,-5.8207,-5.887,-5.9687,-6.0217,-6.0355,-6.017,-6.0256,-6.0205,-6.0007,-5.9975,-5.9982,-5.9885,-5.9885,-5.9885,-3.5976,0.0,0.0,0.0,0.0,0.0,0.0,0.0,0.0,0.0,0.0,0.0,0.0,0.0,0.0,0.0,0.0,0.0,0.0,0.0,0.0,0.0,0.0,0.0,0.0,0.0,0.0,0.0,-4.2086,-4.2292,-4.2609,-4.3178,-4.3594,-4.3697,-4.4199,-4.4496,-4.4496,-4.6186,-4.7462,-4.8401,-4.9152,-4.949,-4.949,-4.949,-4.949,-4.949,-4.949,-4.949,-4.949,-4.9582,-5.0094,-5.1013,-5.2068,-5.3052,-5.4009,-5.5045,-5.5403,-5.5403,-5.5403,-5.5403,-5.5403,-5.5403,-5.5403,-5.5403,-5.5403,-5.5415,-5.5514,-5.5593,-5.5643,-5.5707,-5.5769,-5.59,-5.6001,-5.6001,-5.6132,-5.6291,-5.6291,-5.6291,-5.6291,-5.6291,-5.6291,-5.6291,-5.6291,-5.6291,-5.6341,-5.6377,-5.6402,-5.6404,-5.6478,-5.6497,-5.6503,-5.6503,-5.6503,-5.6503,-5.6503,-5.6892,-5.7516,-5.8373,-5.9048,-5.9716,-6.0383,-6.0608,-6.0533,-6.0197,-6.0197,-6.0137,-6.0013,-5.9982,-5.9918,-5.9885,-5.9885,-5.9885,0.0,0.0,0.0,0.0,0.0,0.0,0.0,0.0,0.0,0.0,0.0,0.0,0.0,0.0,0.0,0.0,0.0,0.0,0.0,0.0,0.0,0.0,0.0,0.0,0.0,0.0,0.0,0.0,-4.1874,-4.2127,-4.2609,-4.3142,-4.3526,-4.3758,-4.4266,-4.4496,-4.4496,-4.6186,-4.7838,-4.949,-4.949,-4.949,-4.949,-4.949,-4.949,-4.949,-4.949,-4.949,-4.9527,-4.9715,-5.0341,-5.1254,-5.2323,-5.33,-5.4258,-5.5096,-5.5403,-5.5403,-5.5403,-5.5403,-5.5403,-5.5403,-5.5403,-5.5403,-5.5403,-5.5403,-5.5428,-5.5499,-5.5547,-5.557,-5.5665,-5.5789,-5.59,-5.5935,-5.6087,-5.6226,-5.6291,-5.6291,-5.6291,-5.6291,-5.6291,-5.6291,-5.6291,-5.6291,-5.6341,-5.6377,-5.6402,-5.6404,-5.6478,-5.6497,-5.6503,-5.6503,-5.6503,-5.658,-5.6775,-5.736,-5.8178,-5.9269,-5.9822,-6.0342,-6.0963,-6.0843,-6.052,-6.0099,-6.0068,-6.0038,-5.9982,-5.9918,-5.9885,-5.9885,-5.9885,-5.9885,0.0,0.0,0.0,0.0,0.0,0.0,0.0,0.0,0.0,0.0,0.0,0.0,0.0,0.0,0.0,0.0,0.0,0.0,0.0,0.0,0.0,0.0,0.0,0.0,0.0,0.0,0.0,0.0,-4.1788,-4.2127,-4.2655,-4.3141,-4.3627,-4.4079,-4.4354,-4.4496,-4.4496,-4.6186,-4.7838,-4.949,-4.949,-4.949,-4.949,-4.949,-4.949,-4.949,-4.949,-4.949,-4.9565,-5.0316,-5.1104,-5.1963,-5.3097,-5.4048,-5.4903,-5.526,-5.5403,-5.5403,-5.5403,-5.5403,-5.5403,-5.5403,-5.5403,-5.5403,-5.5403,-5.5403,-5.5403,-5.5403,-5.5403,-5.5428,-5.5428,-5.5499,-5.5643,-5.5769,-5.5917,-5.6087,-5.6265,-5.6291,-5.6291,-5.6291,-5.6291,-5.6291,-5.6291,-5.6291,-5.6341,-5.6377,-5.6402,-5.6404,-5.6478,-5.6497,-5.6503,-5.6503,-5.6503,-5.6814,-5.7555,-5.7672,-5.8412,-6.0126,-6.0282,-6.0487,-6.0982,-6.0945,-6.0627,-6.0099,-6.0007,-5.9982,-5.9885,-5.9885,-5.9885,-5.9885,-5.9885,-5.9885,0.0,0.0,0.0,0.0,0.0,0.0,0.0,0.0,0.0,0.0,0.0,0.0,0.0,0.0,0.0,0.0,0.0,0.0,0.0,0.0,0.0,0.0,0.0,0.0,0.0,0.0,0.0,0.0,0.0,-4.2257,-4.2655,-4.3284,-4.3758,-4.4109,-4.4383,-4.5021,-4.611,-4.6711,-4.7838,-4.949,-4.949,-4.949,-4.949,-4.949,-4.949,-4.949,-4.949,-4.949,-4.9565,-5.0353,-5.118,-5.2,-5.305,-5.4073,-5.4912,-5.5113,-5.5286,-5.5403,-5.5403,-5.5403,-5.5403,-5.5403,-5.5403,-5.5403,-5.5403,-5.5403,-5.5403,-5.5403,-5.5403,-5.5403,-5.5403,-5.557,-5.5769,-5.604,-5.617,-5.6213,-5.6278,-5.6291,-5.6291,-5.6291,-5.6291,-5.6291,-5.6291,-5.629,-5.6308,-5.6377,-5.6415,-5.6406,-5.6478,-5.6497,-5.6503,-5.6503,-5.6503,-5.6814,-5.7633,-5.8217,-5.9035,-6.0243,-6.0828,-6.1071,-6.0925,-6.0886,-6.0627,-6.0038,-6.0013,-5.9982,-5.9885,-5.9885,-5.9885,-5.9885,-5.9885,-5.9885,-3.5816,0.0,0.0,0.0,0.0,0.0,0.0,0.0,0.0,0.0,0.0,0.0,0.0,0.0,0.0,0.0,0.0,0.0,0.0,0.0,0.0,0.0,0.0,0.0,0.0,0.0,0.0,0.0,0.0,0.0,-4.2922,-4.3387,-4.3823,-4.4199,-4.4411,-4.5322,-4.6974,-4.7012,-4.7838,-4.949,-4.949,-4.949,-4.949,-4.949,-4.949,-4.949,-4.949,-4.964,-4.9978,-5.0767,-5.1593,-5.2451,-5.3402,-5.4238,-5.495,-5.5057,-5.5233,-5.5403,-5.5403,-5.5403,-5.5403,-5.5403,-5.5403,-5.5403,-5.5403,-5.5403,-5.5403,-5.5403,-5.5403,-5.5403,-5.5403,-5.5615,-5.5845,-5.6071,-5.6199,-5.6291,-5.6291,-5.6291,-5.6291,-5.6291,-5.6291,-5.6291,-5.6291,-5.6314,-5.6329,-5.6386,-5.638,-5.6406,-5.6478,-5.6497,-5.6503,-5.6503,-5.6736,-5.7243,-5.8061,-5.8957,-5.9815,-6.0672,-6.1237,-6.1408,-6.102,-6.0866,-6.058,-6.0099,-6.0007,-5.995,-5.9885,-5.9885,-5.9885,-5.9885,-5.9885,-5.9885,0.0,0.0,0.0,0.0,0.0,0.0,0.0,0.0,0.0,0.0,0.0,0.0,0.0,0.0,0.0,0.0,0.0,0.0,0.0,0.0,0.0,0.0,0.0,0.0,0.0,0.0,0.0,0.0,-4.2541,-4.2996,-4.3453,-4.3487,-4.3786,-4.4383,-4.4477,-4.5359,-4.6974,-4.7012,-4.7875,-4.949,-4.949,-4.949,-4.949,-4.949,-4.949,-4.949,-4.9527,-4.9978,-5.0804,-5.1593,-5.2419,-5.3278,-5.4231,-5.473,-5.495,-5.5057,-5.5195,-5.5403,-5.5403,-5.5403,-5.5403,-5.5403,-5.5403,-5.5403,-5.5403,-5.5403,-5.5403,-5.5403,-5.5403,-5.5403,-5.5403,-5.5615,-5.5789,-5.5808,-5.6056,-5.6291,-5.6291,-5.6291,-5.6291,-5.6291,-5.6291,-5.6291,-5.6291,-5.6314,-5.6329,-5.6386,-5.6383,-5.6445,-5.6478,-5.6497,-5.6503,-5.6541,-5.7243,-5.8061,-5.8957,-5.9815,-6.0672,-6.1529,-6.1557,-6.1421,-6.1181,-6.0825,-6.0507,-6.0293,-6.0038,-5.9885,-5.9885,-5.9885,-5.9885,-5.9885,-5.9885,-5.9885,-3.5782,0.0,0.0,0.0,0.0,0.0,0.0,-3.8493,0.0,0.0,0.0,0.0,0.0,0.0,0.0,0.0,0.0,0.0,0.0,0.0,0.0,0.0,0.0,0.0,0.0,0.0,0.0,0.0,-4.2133,-4.258,-4.3032,-4.3689,-4.417,-4.4383,-4.4974,-4.5827,-4.7012,-4.7575,-4.8401,-4.949,-4.949,-4.949,-4.949,-4.949,-4.949,-4.9527,-5.0128,-5.0804,-5.1593,-5.1818,-5.2419,-5.3278,-5.4138,-5.4635,-5.4882,-5.4941,-5.5151,-5.5403,-5.5403,-5.5403,-5.5403,-5.5403,-5.5403,-5.5403,-5.5403,-5.5403,-5.5403,-5.5403,-5.5403,-5.5428,-5.5499,-5.5665,-5.5827,-5.5917,-5.6117,-5.6291,-5.6291,-5.6291,-5.6291,-5.6291,-5.6291,-5.6291,-5.6291,-5.6347,-5.6377,-5.6386,-5.6432,-5.6479,-5.6515,-5.6497,-5.6697,-5.7321,-5.7555,-5.8295,-5.9815,-6.0165,-6.0672,-6.1529,-6.1557,-6.1369,-6.107,-6.0906,-6.0627,-6.0237,-6.015,-6.0038,-5.9885,-5.9885,-5.9885,-5.9885,-5.9885,-5.9885,-3.6006,-3.6966,-3.7879,0.0,0.0,0.0,-3.8758,-3.8659,-3.8659,0.0,0.0,0.0,0.0,0.0,0.0,0.0,0.0,0.0,0.0,0.0,0.0,0.0,0.0,0.0,0.0,-4.1744,-4.1874,-4.1874,-4.2257,-4.2657,-4.3069,-4.386,-4.4304,-4.4354,-4.5169,-4.6023,-4.7012,-4.78,-4.8626,-4.949,-4.949,-4.949,-4.949,-4.949,-4.949,-4.9527,-5.0353,-5.1142,-5.1931,-5.2306,-5.2944,-5.3733,-5.4221,-5.4538,-5.4791,-5.4852,-5.5066,-5.5286,-5.5377,-5.5403,-5.5403,-5.5403,-5.5403,-5.5403,-5.5403,-5.5403,-5.5403,-5.5403,-5.5403,-5.5454,-5.557,-5.5707,-5.5827,-5.5968,-5.6132,-5.6291,-5.6291,-5.6291,-5.6291,-5.6291,-5.6291,-5.6304,-5.629,-5.6378,-5.6394,-5.6449,-5.6476,-5.6515,-5.6515,-5.6497,-5.6814,-5.7594,-5.8022,-5.8802,-6.0165,-6.0633,-6.1052,-6.1539,-6.1523,-6.1342,-6.107,-6.0945,-6.0689,-6.0321,-6.0321,-6.0208,-6.0007,-5.995,-5.9885,-5.9885,-5.9885,-5.9885,-3.6258,-3.7294,-3.8334,-3.839,0.0,0.0,-3.9189,-3.9156,-3.9123,0.0,0.0,0.0,0.0,0.0,0.0,0.0,0.0,0.0,0.0,0.0,0.0,0.0,0.0,0.0,-4.1604,-4.1924,-4.2133,-4.2133,-4.2501,-4.2885,-4.3248,-4.3763,-4.4123,-4.4386,-4.5193,-4.6143,-4.7124,-4.795,-4.8739,-4.949,-4.949,-4.949,-4.949,-4.949,-4.9565,-4.9678,-5.0466,-5.1292,-5.2118,-5.2982,-5.3733,-5.4409,-5.4409,-5.4472,-5.4629,-5.4822,-5.4971,-5.514,-5.5313,-5.5403,-5.5403,-5.5403,-5.5403,-5.5403,-5.5403,-5.5403,-5.5403,-5.5403,-5.5403,-5.5454,-5.557,-5.5707,-5.5827,-5.5968,-5.6132,-5.6291,-5.6291,-5.6291,-5.6291,-5.6291,-5.6304,-5.629,-5.6297,-5.6359,-5.6449,-5.6478,-5.6518,-5.6515,-5.6515,-5.6575,-5.6931,-5.7749,-5.8607,-5.9503,-6.036,-6.114,-6.1578,-6.1484,-6.1421,-6.1298,-6.1181,-6.0963,-6.0727,-6.0533,-6.0508,-6.0403,-6.0237,-6.0038,-5.9918,-5.9885,-5.9885,-5.9923,0.0,0.0,0.0,0.0,0.0,0.0,-3.856,-3.8427,-3.8261,0.0,0.0,0.0,0.0,0.0,0.0,0.0,0.0,0.0,0.0,0.0,0.0,0.0,0.0,0.0,-4.1604,-4.1692,-4.1736,-4.1736,-4.2092,-4.2342,-4.2422,-4.2847,-4.3576,-4.4753,-4.5597,-4.661,-4.795,-4.8814,-4.934,-4.949,-4.949,-4.949,-4.949,-4.949,-4.9865,-5.0504,-5.133,-5.2156,-5.2982,-5.3808,-5.4259,-5.4409,-5.4409,-5.4472,-5.4629,-5.4822,-5.4971,-5.514,-5.5313,-5.5403,-5.5403,-5.5403,-5.5403,-5.5403,-5.5403,-5.5403,-5.5403,-5.5403,-5.5403,-5.5454,-5.557,-5.5707,-5.5827,-5.5968,-5.6132,-5.6291,-5.6291,-5.6291,-5.6291,-5.6291,-5.6302,-5.6297,-5.6308,-5.6386,-5.6478,-5.6485,-5.6518,-5.6515,-5.6515,-5.7082,-5.7788,-5.8646,-5.9542,-6.0399,-6.1257,-6.145,-6.1495,-6.1484,-6.1327,-6.1236,-6.1181,-6.1098,-6.0962,-6.075,-6.0584,-6.0482,-6.0456,-6.0237,-6.0068,-5.9885,-5.9885,-6.0226,0.0,0.0,0.0,-3.9202,0.0,0.0,0.0,-3.8758,-3.8626,0.0,0.0,0.0,0.0,0.0,0.0,0.0,0.0,0.0,0.0,0.0,0.0,0.0,0.0,0.0,-4.1604,-4.1604,-4.1604,-4.1604,-4.1966,-4.2216,-4.2216,-4.2732,-4.3506,-4.4669,-4.5584,-4.6604,-4.776,-4.8617,-4.9027,-4.9027,-4.9027,-4.9027,-4.9027,-4.9027,-4.9542,-5.0497,-5.132,-5.2282,-5.3245,-5.4071,-5.4409,-5.4409,-5.4409,-5.4439,-5.4538,-5.4698,-5.4852,-5.5028,-5.5168,-5.5313,-5.5403,-5.5403,-5.5403,-5.5403,-5.5403,-5.5403,-5.5403,-5.5403,-5.544,-5.5523,-5.5665,-5.5789,-5.5935,-5.6102,-5.6213,-5.6291,-5.6291,-5.6291,-5.6304,-5.6302,-5.6319,-5.6349,-5.6349,-5.6449,-5.653,-5.6542,-5.6521,-5.6515,-5.6515,-5.72,-5.8022,-5.8918,-5.9776,-6.0624,-6.1489,-6.1534,-6.146,-6.1342,-6.1268,-6.1203,-6.1152,-6.1098,-6.1041,-6.0962,-6.075,-6.0657,-6.0657,-6.0981,-6.077,-6.0038,-6.0367,-6.0686,0.0,0.0,0.0,0.0,0.0,-3.9288,0.0,0.0,0.0,0.0,0.0,0.0,0.0,0.0,0.0,0.0,0.0,0.0,0.0,0.0,0.0,0.0,0.0,0.0,0.0,-4.1604,-4.1604,-4.1604,-4.1917,-4.2092,-4.2092,-4.2757,-4.3576,-4.4601,-4.5553,-4.6544,-4.7535,-4.8236,-4.8605,-4.8605,-4.8605,-4.8605,-4.8605,-4.8605,-4.9231,-5.041,-5.1117,-5.2151,-5.3403,-5.3971,-5.4268,-5.4409,-5.4409,-5.4409,-5.4443,-5.4533,-5.473,-5.4912,-5.5057,-5.526,-5.5403,-5.5403,-5.5403,-5.5403,-5.5403,-5.5403,-5.5403,-5.5403,-5.5514,-5.5621,-5.575,-5.59,-5.6033,-5.6265,-5.6291,-5.6291,-5.6291,-5.6304,-5.629,-5.6297,-5.6359,-5.6441,-5.6441,-5.6471,-5.6542,-5.6602,-5.6521,-5.6558,-5.6749,-5.744,-5.8273,-5.9152,-6.001,-6.0809,-6.1445,-6.1472,-6.1408,-6.1197,-6.1203,-6.1169,-6.1079,-6.1118,-6.1118,-6.1118,-6.0941,-6.0955,-6.1109,-6.1781,-6.153,-6.0446,-6.1039,-6.13,0.0,0.0,0.0,0.0,-3.9288,0.0,0.0,0.0,0.0,0.0,0.0,0.0,0.0,0.0,0.0,0.0,0.0,0.0,0.0,0.0,0.0,0.0,0.0,0.0,0.0,-4.1604,-4.1604,-4.1604,-4.1648,-4.1692,-4.1692,-4.2405,-4.3551,-4.5015,-4.5812,-4.6968,-4.8458,-4.8532,-4.8605,-4.8605,-4.8605,-4.8605,-4.8605,-4.8605,-4.9455,-5.0897,-5.1007,-5.2122,-5.3795,-5.3606,-5.387,-5.4409,-5.4409,-5.4409,-5.4443,-5.4533,-5.473,-5.4912,-5.5057,-5.526,-5.5403,-5.5403,-5.5403,-5.5403,-5.5403,-5.5403,-5.5403,-5.5403,-5.5514,-5.5621,-5.575,-5.59,-5.6033,-5.6265,-5.6291,-5.6291,-5.6291,-5.6302,-5.6297,-5.6308,-5.6386,-5.6478,-5.6478,-5.6542,-5.6602,-5.6606,-5.6554,-5.6797,-5.753,-5.8363,-5.9176,-6.0058,-6.0945,-6.1471,-6.1484,-6.1434,-6.1366,-6.122,-6.1152,-6.1137,-6.1118,-6.1118,-6.1118,-6.1118,-6.1099,-6.1447,-6.2201,-6.2133,-6.1837,-6.137,-6.1977,-6.2542,0.0,0.0,0.0,0.0,0.0,0.0,0.0,0.0,-3.9295,0.0,0.0,0.0,0.0,0.0,0.0,0.0,0.0,0.0,0.0,0.0,0.0,0.0,0.0,0.0,0.0,0.0,0.0,0.0,-4.1604,-4.1604,-4.1604,-4.2476,-4.3562,-4.4827,-4.5744,-4.6789,-4.8072,-4.8072,-4.8072,-4.8072,-4.8072,-4.8072,-4.8072,-4.8072,-4.9069,-5.0769,-5.0769,-5.1851,-5.3604,-5.3447,-5.3682,-5.4127,-5.4127,-5.4233,-5.4409,-5.4472,-5.4667,-5.492,-5.4971,-5.5178,-5.5403,-5.5403,-5.5403,-5.5403,-5.5403,-5.5403,-5.5428,-5.5514,-5.5599,-5.5768,-5.5882,-5.6056,-5.6199,-5.6278,-5.6291,-5.6304,-5.6302,-5.6297,-5.6329,-5.6386,-5.6464,-5.653,-5.6548,-5.6597,-5.6606,-5.6606,-5.6551,-5.6797,-5.7686,-5.8484,-5.9339,-6.0213,-6.1032,-6.1495,-6.1434,-6.1327,-6.1236,-6.1152,-6.1098,-6.1118,-6.1118,-6.1118,-6.1118,-6.1118,-6.1621,-6.2046,-6.2394,-6.3299,-6.3584,-6.3242,-6.3169,-6.3186,-3.7385,0.0,0.0,0.0,0.0,0.0,0.0,0.0,0.0,0.0,0.0,0.0,0.0,0.0,0.0,0.0,0.0,-4.1534,0.0,0.0,0.0,0.0,0.0,0.0,0.0,0.0,0.0,0.0,0.0,-4.171,-4.192,-4.2837,-4.3837,-4.4971,-4.5889,-4.6787,-4.7699,-4.7699,-4.7699,-4.7699,-4.7699,-4.7699,-4.7699,-4.7699,-4.8696,-5.0483,-5.0483,-5.1527,-5.3285,-5.3162,-5.3367,-5.3758,-5.3758,-5.3981,-5.4268,-5.4375,-5.4603,-5.492,-5.492,-5.5123,-5.5403,-5.5403,-5.5403,-5.5403,-5.5403,-5.5403,-5.5428,-5.5538,-5.5643,-5.5769,-5.5917,-5.6087,-5.6213,-5.6291,-5.6304,-5.629,-5.6297,-5.6329,-5.6377,-5.6471,-5.6491,-5.6542,-5.6602,-5.6606,-5.6606,-5.6606,-5.6741,-5.7186,-5.8038,-5.8879,-5.9703,-6.0564,-6.1167,-6.146,-6.1394,-6.1268,-6.1186,-6.1079,-6.1118,-6.1118,-6.1118,-6.1118,-6.1195,-6.1466,-6.2085,-6.2627,-6.3129,-6.4307,-6.4916,-6.4908,-6.4291,-6.3865,0.0,0.0,0.0,-3.8262,0.0,0.0,0.0,0.0,-3.9415,0.0,0.0,0.0,0.0,0.0,-4.0874,-4.0578,-4.1113,0.0,0.0,0.0,0.0,0.0,0.0,0.0,0.0,0.0,0.0,0.0,0.0,0.0,-4.2728,-4.3465,-4.4435,-4.5713,-4.6579,-4.7187,-4.7699,-4.7699,-4.7699,-4.7699,-4.7699,-4.7699,-4.7699,-4.7699,-4.8568,-5.0134,-5.0134,-5.1217,-5.298,-5.2663,-5.2857,-5.3407,-5.3407,-5.3604,-5.3944,-5.4268,-5.4603,-5.492,-5.492,-5.5123,-5.5403,-5.5403,-5.5403,-5.5403,-5.5403,-5.5403,-5.5403,-5.5403,-5.5514,-5.5621,-5.5769,-5.59,-5.6071,-5.6265,-5.6302,-5.6308,-5.6308,-5.6386,-5.6478,-5.6485,-5.6548,-5.6606,-5.6606,-5.6606,-5.6606,-5.6606,-5.727,-5.8075,-5.8938,-5.9832,-6.067,-6.147,-6.1518,-6.146,-6.1394,-6.1268,-6.1186,-6.1079,-6.1118,-6.1118,-6.1118,-6.1118,-6.1505,-6.2356,-6.2394,-6.3245,-6.4909,-6.4886,-6.5247,-6.5951,-6.5154,-6.4626,0.0,0.0,-3.7385,-3.8399,0.0,0.0,0.0,0.0,0.0,0.0,0.0,0.0,0.0,0.0,-4.1276,-4.0896,-4.1251,-4.1499,0.0,0.0,0.0,0.0,0.0,0.0,0.0,0.0,0.0,0.0,0.0,0.0,0.0,-4.35,-4.447,-4.5749,-4.6569,-4.7223,-4.7699,-4.7699,-4.7699,-4.7699,-4.7699,-4.7699,-4.7699,-4.7699,-4.8568,-5.009,-5.009,-5.1084,-5.2663,-5.2526,-5.2717,-5.3157,-5.3326,-5.3604,-5.3944,-5.4268,-5.4603,-5.495,-5.5151,-5.5325,-5.5403,-5.5403,-5.5403,-5.5403,-5.5403,-5.5403,-5.5428,-5.5514,-5.5621,-5.575,-5.59,-5.6071,-5.6226,-5.6263,-5.6297,-5.6329,-5.6394,-5.6464,-5.653,-5.6548,-5.6563,-5.6606,-5.6606,-5.6606,-5.6606,-5.6606,-5.727,-5.8105,-5.8984,-5.9879,-6.0675,-6.1448,-6.1456,-6.1394,-6.1268,-6.1186,-6.1116,-6.1118,-6.1118,-6.135,-6.193,-6.1969,-6.2356,-6.3245,-6.3786,-6.4345,-6.4925,-6.5418,-6.5735,-6.5982,-6.513,-6.4699,-3.6904,-3.7294,0.0,-3.8399,-3.8544,0.0,-3.8375,0.0,0.0,0.0,0.0,0.0,0.0,0.0,-4.1163,-4.1024,-4.1209,-4.1471,0.0,-4.1604,0.0,0.0,0.0,0.0,0.0,0.0,0.0,0.0,0.0,0.0,0.0,0.0,-4.4611,-4.6177,-4.6712,-4.7223,-4.7699,-4.7699,-4.7699,-4.7699,-4.7699,-4.7699,-4.7699,-4.7699,-4.8568,-5.009,-5.009,-5.0995,-5.248,-5.248,-5.2618,-5.285,-5.3157,-5.3404,-5.3641,-5.4198,-5.4603,-5.495,-5.526,-5.5403,-5.5403,-5.5403,-5.5403,-5.5403,-5.5403,-5.5403,-5.5428,-5.5514,-5.5621,-5.575,-5.59,-5.6087,-5.6253,-5.6297,-5.6339,-5.6386,-5.6471,-5.653,-5.6548,-5.6602,-5.6606,-5.6606,-5.6606,-5.6606,-5.6684,-5.6996,-5.7738,-5.8574,-5.9452,-6.0312,-6.103,-6.1461,-6.1447,-6.1361,-6.1186,-6.1116,-6.1118,-6.1118,-6.1389,-6.1814,-6.2394,-6.2704,-6.3284,-6.4115,-6.4655,-6.5037,-6.5286,-6.5774,-6.5909,-6.5769,-6.5035,-6.4779]}]]